<?xml version="1.0" encoding="UTF-8" standalone="no" ?>
<gpx xmlns="http://www.topografix.com/GPX/1/1" xmlns:xsi="http://www.w3.org/2001/XMLSchema-instance" xsi:schemaLocation="http://www.topografix.com/GPX/1/1 http://www.topografix.com/GPX/1/1/gpx.xsd" version="1.1" creator="VisuGPX - https://www.visugpx.com">
  <metadata>
    <name>Mouton d'Anou - Saint Jeannet (retour)</name>
  </metadata>
  <trk>
    <name><![CDATA[Mouton d'Anou - St Jeannet]]></name>
    <trkseg>
      <trkpt lat="43.79251" lon="7.12638">
        <ele>1024</ele>
        <time>2019-04-27T10:22:19Z</time>
      </trkpt>
      <trkpt lat="43.79252" lon="7.12647">
        <ele>1024</ele>
        <time>2019-04-27T10:22:25Z</time>
      </trkpt>
      <trkpt lat="43.79251" lon="7.1265">
        <ele>1024</ele>
        <time>2019-04-27T10:22:31Z</time>
      </trkpt>
      <trkpt lat="43.79251" lon="7.12656">
        <ele>1023</ele>
        <time>2019-04-27T10:22:37Z</time>
      </trkpt>
      <trkpt lat="43.7925" lon="7.12659">
        <ele>1023</ele>
        <time>2019-04-27T10:22:43Z</time>
      </trkpt>
      <trkpt lat="43.7925" lon="7.12659">
        <ele>1023</ele>
        <time>2019-04-27T10:22:49Z</time>
      </trkpt>
      <trkpt lat="43.79251" lon="7.12659">
        <ele>1023</ele>
        <time>2019-04-27T10:22:55Z</time>
      </trkpt>
      <trkpt lat="43.7925" lon="7.12659">
        <ele>1023</ele>
        <time>2019-04-27T10:23:01Z</time>
      </trkpt>
      <trkpt lat="43.7925" lon="7.12659">
        <ele>1023</ele>
        <time>2019-04-27T10:23:07Z</time>
      </trkpt>
      <trkpt lat="43.7925" lon="7.1266">
        <ele>1023</ele>
        <time>2019-04-27T10:23:13Z</time>
      </trkpt>
      <trkpt lat="43.7925" lon="7.12655">
        <ele>1023</ele>
        <time>2019-04-27T10:23:19Z</time>
      </trkpt>
      <trkpt lat="43.79255" lon="7.12647">
        <ele>1023</ele>
        <time>2019-04-27T10:23:26Z</time>
      </trkpt>
      <trkpt lat="43.79258" lon="7.12641">
        <ele>1024</ele>
        <time>2019-04-27T10:23:31Z</time>
      </trkpt>
      <trkpt lat="43.79258" lon="7.12633">
        <ele>1024</ele>
        <time>2019-04-27T10:23:37Z</time>
      </trkpt>
      <trkpt lat="43.79259" lon="7.12626">
        <ele>1024</ele>
        <time>2019-04-27T10:23:43Z</time>
      </trkpt>
      <trkpt lat="43.79261" lon="7.12619">
        <ele>1024</ele>
        <time>2019-04-27T10:23:50Z</time>
      </trkpt>
      <trkpt lat="43.7926" lon="7.12613">
        <ele>1024</ele>
        <time>2019-04-27T10:23:55Z</time>
      </trkpt>
      <trkpt lat="43.79263" lon="7.12605">
        <ele>1024</ele>
        <time>2019-04-27T10:24:01Z</time>
      </trkpt>
      <trkpt lat="43.79268" lon="7.12598">
        <ele>1023</ele>
        <time>2019-04-27T10:24:07Z</time>
      </trkpt>
      <trkpt lat="43.79268" lon="7.12589">
        <ele>1024</ele>
        <time>2019-04-27T10:24:13Z</time>
      </trkpt>
      <trkpt lat="43.79264" lon="7.12583">
        <ele>1025</ele>
        <time>2019-04-27T10:24:20Z</time>
      </trkpt>
      <trkpt lat="43.79259" lon="7.1258">
        <ele>1026</ele>
        <time>2019-04-27T10:24:25Z</time>
      </trkpt>
      <trkpt lat="43.79253" lon="7.12578">
        <ele>1027</ele>
        <time>2019-04-27T10:24:31Z</time>
      </trkpt>
      <trkpt lat="43.7925" lon="7.12575">
        <ele>1027</ele>
        <time>2019-04-27T10:24:37Z</time>
      </trkpt>
      <trkpt lat="43.79245" lon="7.12575">
        <ele>1028</ele>
        <time>2019-04-27T10:24:43Z</time>
      </trkpt>
      <trkpt lat="43.79243" lon="7.12573">
        <ele>1028</ele>
        <time>2019-04-27T10:24:50Z</time>
      </trkpt>
      <trkpt lat="43.79241" lon="7.12569">
        <ele>1029</ele>
        <time>2019-04-27T10:24:56Z</time>
      </trkpt>
      <trkpt lat="43.79238" lon="7.12567">
        <ele>1029</ele>
        <time>2019-04-27T10:25:01Z</time>
      </trkpt>
      <trkpt lat="43.79233" lon="7.12567">
        <ele>1030</ele>
        <time>2019-04-27T10:25:08Z</time>
      </trkpt>
      <trkpt lat="43.79231" lon="7.12563">
        <ele>1031</ele>
        <time>2019-04-27T10:25:13Z</time>
      </trkpt>
      <trkpt lat="43.79228" lon="7.12559">
        <ele>1032</ele>
        <time>2019-04-27T10:25:19Z</time>
      </trkpt>
      <trkpt lat="43.79225" lon="7.12557">
        <ele>1032</ele>
        <time>2019-04-27T10:25:25Z</time>
      </trkpt>
      <trkpt lat="43.79224" lon="7.12552">
        <ele>1032</ele>
        <time>2019-04-27T10:25:31Z</time>
      </trkpt>
      <trkpt lat="43.79221" lon="7.12549">
        <ele>1033</ele>
        <time>2019-04-27T10:25:38Z</time>
      </trkpt>
      <trkpt lat="43.79217" lon="7.12546">
        <ele>1033</ele>
        <time>2019-04-27T10:25:43Z</time>
      </trkpt>
      <trkpt lat="43.79215" lon="7.1255">
        <ele>1034</ele>
        <time>2019-04-27T10:25:49Z</time>
      </trkpt>
      <trkpt lat="43.7921" lon="7.12551">
        <ele>1036</ele>
        <time>2019-04-27T10:25:55Z</time>
      </trkpt>
      <trkpt lat="43.79206" lon="7.12553">
        <ele>1036</ele>
        <time>2019-04-27T10:26:01Z</time>
      </trkpt>
      <trkpt lat="43.79202" lon="7.12554">
        <ele>1037</ele>
        <time>2019-04-27T10:26:08Z</time>
      </trkpt>
      <trkpt lat="43.79198" lon="7.12553">
        <ele>1037</ele>
        <time>2019-04-27T10:26:14Z</time>
      </trkpt>
      <trkpt lat="43.79194" lon="7.12552">
        <ele>1038</ele>
        <time>2019-04-27T10:26:19Z</time>
      </trkpt>
      <trkpt lat="43.79191" lon="7.12553">
        <ele>1038</ele>
        <time>2019-04-27T10:26:25Z</time>
      </trkpt>
      <trkpt lat="43.79188" lon="7.12553">
        <ele>1038</ele>
        <time>2019-04-27T10:26:31Z</time>
      </trkpt>
      <trkpt lat="43.79188" lon="7.1255">
        <ele>1038</ele>
        <time>2019-04-27T10:26:38Z</time>
      </trkpt>
      <trkpt lat="43.79184" lon="7.12548">
        <ele>1040</ele>
        <time>2019-04-27T10:26:43Z</time>
      </trkpt>
      <trkpt lat="43.7918" lon="7.12548">
        <ele>1040</ele>
        <time>2019-04-27T10:26:49Z</time>
      </trkpt>
      <trkpt lat="43.79176" lon="7.12547">
        <ele>1040</ele>
        <time>2019-04-27T10:26:55Z</time>
      </trkpt>
      <trkpt lat="43.79173" lon="7.12545">
        <ele>1041</ele>
        <time>2019-04-27T10:27:01Z</time>
      </trkpt>
      <trkpt lat="43.79169" lon="7.12543">
        <ele>1041</ele>
        <time>2019-04-27T10:27:08Z</time>
      </trkpt>
      <trkpt lat="43.79165" lon="7.1254">
        <ele>1042</ele>
        <time>2019-04-27T10:27:14Z</time>
      </trkpt>
      <trkpt lat="43.79163" lon="7.12537">
        <ele>1042</ele>
        <time>2019-04-27T10:27:19Z</time>
      </trkpt>
      <trkpt lat="43.79161" lon="7.12534">
        <ele>1042</ele>
        <time>2019-04-27T10:27:25Z</time>
      </trkpt>
      <trkpt lat="43.79159" lon="7.12531">
        <ele>1044</ele>
        <time>2019-04-27T10:27:31Z</time>
      </trkpt>
      <trkpt lat="43.79156" lon="7.12529">
        <ele>1044</ele>
        <time>2019-04-27T10:27:37Z</time>
      </trkpt>
      <trkpt lat="43.79154" lon="7.12528">
        <ele>1044</ele>
        <time>2019-04-27T10:27:43Z</time>
      </trkpt>
      <trkpt lat="43.79151" lon="7.12526">
        <ele>1044</ele>
        <time>2019-04-27T10:27:49Z</time>
      </trkpt>
      <trkpt lat="43.79148" lon="7.12524">
        <ele>1044</ele>
        <time>2019-04-27T10:27:55Z</time>
      </trkpt>
      <trkpt lat="43.79146" lon="7.12523">
        <ele>1045</ele>
        <time>2019-04-27T10:28:02Z</time>
      </trkpt>
      <trkpt lat="43.79144" lon="7.12522">
        <ele>1045</ele>
        <time>2019-04-27T10:28:07Z</time>
      </trkpt>
      <trkpt lat="43.79139" lon="7.12521">
        <ele>1046</ele>
        <time>2019-04-27T10:28:13Z</time>
      </trkpt>
      <trkpt lat="43.79134" lon="7.12524">
        <ele>1046</ele>
        <time>2019-04-27T10:28:19Z</time>
      </trkpt>
      <trkpt lat="43.79131" lon="7.12525">
        <ele>1046</ele>
        <time>2019-04-27T10:28:25Z</time>
      </trkpt>
      <trkpt lat="43.79132" lon="7.12524">
        <ele>1046</ele>
        <time>2019-04-27T10:28:31Z</time>
      </trkpt>
      <trkpt lat="43.79132" lon="7.12523">
        <ele>1046</ele>
        <time>2019-04-27T10:28:37Z</time>
      </trkpt>
      <trkpt lat="43.79132" lon="7.12523">
        <ele>1046</ele>
        <time>2019-04-27T10:28:43Z</time>
      </trkpt>
      <trkpt lat="43.7913" lon="7.12523">
        <ele>1046</ele>
        <time>2019-04-27T10:28:49Z</time>
      </trkpt>
      <trkpt lat="43.79125" lon="7.12521">
        <ele>1047</ele>
        <time>2019-04-27T10:28:56Z</time>
      </trkpt>
      <trkpt lat="43.79122" lon="7.12516">
        <ele>1048</ele>
        <time>2019-04-27T10:29:01Z</time>
      </trkpt>
      <trkpt lat="43.79118" lon="7.12512">
        <ele>1049</ele>
        <time>2019-04-27T10:29:07Z</time>
      </trkpt>
      <trkpt lat="43.79115" lon="7.12507">
        <ele>1050</ele>
        <time>2019-04-27T10:29:13Z</time>
      </trkpt>
      <trkpt lat="43.79112" lon="7.12502">
        <ele>1051</ele>
        <time>2019-04-27T10:29:19Z</time>
      </trkpt>
      <trkpt lat="43.79111" lon="7.12496">
        <ele>1052</ele>
        <time>2019-04-27T10:29:25Z</time>
      </trkpt>
      <trkpt lat="43.7911" lon="7.12492">
        <ele>1052</ele>
        <time>2019-04-27T10:29:31Z</time>
      </trkpt>
      <trkpt lat="43.7911" lon="7.1249">
        <ele>1052</ele>
        <time>2019-04-27T10:29:37Z</time>
      </trkpt>
      <trkpt lat="43.7911" lon="7.12489">
        <ele>1053</ele>
        <time>2019-04-27T10:29:43Z</time>
      </trkpt>
      <trkpt lat="43.79104" lon="7.12485">
        <ele>1054</ele>
        <time>2019-04-27T10:29:49Z</time>
      </trkpt>
      <trkpt lat="43.79102" lon="7.12484">
        <ele>1054</ele>
        <time>2019-04-27T10:29:55Z</time>
      </trkpt>
      <trkpt lat="43.79098" lon="7.12483">
        <ele>1054</ele>
        <time>2019-04-27T10:30:02Z</time>
      </trkpt>
      <trkpt lat="43.79095" lon="7.1248">
        <ele>1054</ele>
        <time>2019-04-27T10:30:07Z</time>
      </trkpt>
      <trkpt lat="43.79092" lon="7.12478">
        <ele>1055</ele>
        <time>2019-04-27T10:30:13Z</time>
      </trkpt>
      <trkpt lat="43.79089" lon="7.12472">
        <ele>1055</ele>
        <time>2019-04-27T10:30:19Z</time>
      </trkpt>
      <trkpt lat="43.79085" lon="7.1247">
        <ele>1056</ele>
        <time>2019-04-27T10:30:25Z</time>
      </trkpt>
      <trkpt lat="43.79083" lon="7.12471">
        <ele>1056</ele>
        <time>2019-04-27T10:30:31Z</time>
      </trkpt>
      <trkpt lat="43.79078" lon="7.12472">
        <ele>1056</ele>
        <time>2019-04-27T10:30:37Z</time>
      </trkpt>
      <trkpt lat="43.79073" lon="7.12473">
        <ele>1057</ele>
        <time>2019-04-27T10:30:43Z</time>
      </trkpt>
      <trkpt lat="43.79068" lon="7.12473">
        <ele>1058</ele>
        <time>2019-04-27T10:30:49Z</time>
      </trkpt>
      <trkpt lat="43.79065" lon="7.12475">
        <ele>1058</ele>
        <time>2019-04-27T10:30:55Z</time>
      </trkpt>
      <trkpt lat="43.79061" lon="7.12474">
        <ele>1058</ele>
        <time>2019-04-27T10:31:01Z</time>
      </trkpt>
      <trkpt lat="43.79058" lon="7.12473">
        <ele>1058</ele>
        <time>2019-04-27T10:31:07Z</time>
      </trkpt>
      <trkpt lat="43.79056" lon="7.1247">
        <ele>1058</ele>
        <time>2019-04-27T10:31:13Z</time>
      </trkpt>
      <trkpt lat="43.79054" lon="7.12476">
        <ele>1059</ele>
        <time>2019-04-27T10:31:19Z</time>
      </trkpt>
      <trkpt lat="43.79051" lon="7.12481">
        <ele>1059</ele>
        <time>2019-04-27T10:31:25Z</time>
      </trkpt>
      <trkpt lat="43.79046" lon="7.12481">
        <ele>1059</ele>
        <time>2019-04-27T10:31:31Z</time>
      </trkpt>
      <trkpt lat="43.79042" lon="7.12484">
        <ele>1059</ele>
        <time>2019-04-27T10:31:37Z</time>
      </trkpt>
      <trkpt lat="43.79039" lon="7.12482">
        <ele>1059</ele>
        <time>2019-04-27T10:31:43Z</time>
      </trkpt>
      <trkpt lat="43.79035" lon="7.12481">
        <ele>1060</ele>
        <time>2019-04-27T10:31:49Z</time>
      </trkpt>
      <trkpt lat="43.7903" lon="7.12485">
        <ele>1060</ele>
        <time>2019-04-27T10:31:56Z</time>
      </trkpt>
      <trkpt lat="43.79027" lon="7.12489">
        <ele>1060</ele>
        <time>2019-04-27T10:32:02Z</time>
      </trkpt>
      <trkpt lat="43.79025" lon="7.12497">
        <ele>1059</ele>
        <time>2019-04-27T10:32:07Z</time>
      </trkpt>
      <trkpt lat="43.79021" lon="7.12498">
        <ele>1059</ele>
        <time>2019-04-27T10:32:13Z</time>
      </trkpt>
      <trkpt lat="43.79016" lon="7.12496">
        <ele>1060</ele>
        <time>2019-04-27T10:32:20Z</time>
      </trkpt>
      <trkpt lat="43.79013" lon="7.12497">
        <ele>1060</ele>
        <time>2019-04-27T10:32:25Z</time>
      </trkpt>
      <trkpt lat="43.79011" lon="7.12497">
        <ele>1059</ele>
        <time>2019-04-27T10:32:32Z</time>
      </trkpt>
      <trkpt lat="43.79011" lon="7.12497">
        <ele>1059</ele>
        <time>2019-04-27T10:32:37Z</time>
      </trkpt>
      <trkpt lat="43.79012" lon="7.12498">
        <ele>1059</ele>
        <time>2019-04-27T10:32:43Z</time>
      </trkpt>
      <trkpt lat="43.79011" lon="7.12496">
        <ele>1059</ele>
        <time>2019-04-27T10:32:49Z</time>
      </trkpt>
      <trkpt lat="43.79011" lon="7.12496">
        <ele>1059</ele>
        <time>2019-04-27T10:32:55Z</time>
      </trkpt>
      <trkpt lat="43.7901" lon="7.12496">
        <ele>1059</ele>
        <time>2019-04-27T10:33:01Z</time>
      </trkpt>
      <trkpt lat="43.7901" lon="7.12496">
        <ele>1059</ele>
        <time>2019-04-27T10:33:07Z</time>
      </trkpt>
      <trkpt lat="43.7901" lon="7.12496">
        <ele>1059</ele>
        <time>2019-04-27T10:33:13Z</time>
      </trkpt>
      <trkpt lat="43.7901" lon="7.12496">
        <ele>1059</ele>
        <time>2019-04-27T10:33:19Z</time>
      </trkpt>
      <trkpt lat="43.7901" lon="7.12497">
        <ele>1059</ele>
        <time>2019-04-27T10:33:25Z</time>
      </trkpt>
      <trkpt lat="43.7901" lon="7.12497">
        <ele>1059</ele>
        <time>2019-04-27T10:33:31Z</time>
      </trkpt>
      <trkpt lat="43.7901" lon="7.12497">
        <ele>1059</ele>
        <time>2019-04-27T10:33:37Z</time>
      </trkpt>
      <trkpt lat="43.7901" lon="7.12497">
        <ele>1059</ele>
        <time>2019-04-27T10:33:43Z</time>
      </trkpt>
      <trkpt lat="43.7901" lon="7.12497">
        <ele>1059</ele>
        <time>2019-04-27T10:33:49Z</time>
      </trkpt>
      <trkpt lat="43.7901" lon="7.12497">
        <ele>1059</ele>
        <time>2019-04-27T10:33:55Z</time>
      </trkpt>
      <trkpt lat="43.7901" lon="7.12497">
        <ele>1059</ele>
        <time>2019-04-27T10:34:01Z</time>
      </trkpt>
      <trkpt lat="43.7901" lon="7.12497">
        <ele>1059</ele>
        <time>2019-04-27T10:34:07Z</time>
      </trkpt>
      <trkpt lat="43.7901" lon="7.12497">
        <ele>1059</ele>
        <time>2019-04-27T10:34:13Z</time>
      </trkpt>
      <trkpt lat="43.7901" lon="7.12497">
        <ele>1059</ele>
        <time>2019-04-27T10:34:19Z</time>
      </trkpt>
      <trkpt lat="43.7901" lon="7.12497">
        <ele>1059</ele>
        <time>2019-04-27T10:34:25Z</time>
      </trkpt>
      <trkpt lat="43.7901" lon="7.12497">
        <ele>1059</ele>
        <time>2019-04-27T10:34:31Z</time>
      </trkpt>
      <trkpt lat="43.7901" lon="7.12497">
        <ele>1059</ele>
        <time>2019-04-27T10:34:37Z</time>
      </trkpt>
      <trkpt lat="43.7901" lon="7.12496">
        <ele>1059</ele>
        <time>2019-04-27T10:34:43Z</time>
      </trkpt>
      <trkpt lat="43.7901" lon="7.12497">
        <ele>1059</ele>
        <time>2019-04-27T10:34:49Z</time>
      </trkpt>
      <trkpt lat="43.7901" lon="7.12497">
        <ele>1059</ele>
        <time>2019-04-27T10:34:55Z</time>
      </trkpt>
      <trkpt lat="43.7901" lon="7.12497">
        <ele>1059</ele>
        <time>2019-04-27T10:35:01Z</time>
      </trkpt>
      <trkpt lat="43.7901" lon="7.12497">
        <ele>1059</ele>
        <time>2019-04-27T10:35:07Z</time>
      </trkpt>
      <trkpt lat="43.7901" lon="7.12497">
        <ele>1059</ele>
        <time>2019-04-27T10:35:13Z</time>
      </trkpt>
      <trkpt lat="43.7901" lon="7.12497">
        <ele>1059</ele>
        <time>2019-04-27T10:35:19Z</time>
      </trkpt>
      <trkpt lat="43.7901" lon="7.12497">
        <ele>1059</ele>
        <time>2019-04-27T10:35:25Z</time>
      </trkpt>
      <trkpt lat="43.7901" lon="7.12497">
        <ele>1059</ele>
        <time>2019-04-27T10:35:31Z</time>
      </trkpt>
      <trkpt lat="43.7901" lon="7.12498">
        <ele>1059</ele>
        <time>2019-04-27T10:35:37Z</time>
      </trkpt>
      <trkpt lat="43.7901" lon="7.12498">
        <ele>1059</ele>
        <time>2019-04-27T10:35:43Z</time>
      </trkpt>
      <trkpt lat="43.7901" lon="7.12498">
        <ele>1059</ele>
        <time>2019-04-27T10:35:49Z</time>
      </trkpt>
      <trkpt lat="43.7901" lon="7.12498">
        <ele>1059</ele>
        <time>2019-04-27T10:35:55Z</time>
      </trkpt>
      <trkpt lat="43.79011" lon="7.12499">
        <ele>1059</ele>
        <time>2019-04-27T10:36:01Z</time>
      </trkpt>
      <trkpt lat="43.79013" lon="7.125">
        <ele>1059</ele>
        <time>2019-04-27T10:36:07Z</time>
      </trkpt>
      <trkpt lat="43.79013" lon="7.12499">
        <ele>1059</ele>
        <time>2019-04-27T10:36:13Z</time>
      </trkpt>
      <trkpt lat="43.79013" lon="7.12498">
        <ele>1059</ele>
        <time>2019-04-27T10:36:19Z</time>
      </trkpt>
      <trkpt lat="43.79015" lon="7.12497">
        <ele>1060</ele>
        <time>2019-04-27T10:36:25Z</time>
      </trkpt>
      <trkpt lat="43.79015" lon="7.12497">
        <ele>1060</ele>
        <time>2019-04-27T10:36:31Z</time>
      </trkpt>
      <trkpt lat="43.79016" lon="7.12496">
        <ele>1060</ele>
        <time>2019-04-27T10:36:37Z</time>
      </trkpt>
      <trkpt lat="43.79016" lon="7.12496">
        <ele>1060</ele>
        <time>2019-04-27T10:36:43Z</time>
      </trkpt>
      <trkpt lat="43.79016" lon="7.12496">
        <ele>1060</ele>
        <time>2019-04-27T10:36:49Z</time>
      </trkpt>
      <trkpt lat="43.79015" lon="7.12496">
        <ele>1060</ele>
        <time>2019-04-27T10:36:55Z</time>
      </trkpt>
      <trkpt lat="43.79015" lon="7.12496">
        <ele>1060</ele>
        <time>2019-04-27T10:37:01Z</time>
      </trkpt>
      <trkpt lat="43.79015" lon="7.12495">
        <ele>1060</ele>
        <time>2019-04-27T10:37:08Z</time>
      </trkpt>
      <trkpt lat="43.79015" lon="7.12495">
        <ele>1060</ele>
        <time>2019-04-27T10:37:13Z</time>
      </trkpt>
      <trkpt lat="43.79015" lon="7.12496">
        <ele>1060</ele>
        <time>2019-04-27T10:37:19Z</time>
      </trkpt>
      <trkpt lat="43.79015" lon="7.12496">
        <ele>1060</ele>
        <time>2019-04-27T10:37:25Z</time>
      </trkpt>
      <trkpt lat="43.79015" lon="7.12495">
        <ele>1060</ele>
        <time>2019-04-27T10:37:31Z</time>
      </trkpt>
      <trkpt lat="43.79014" lon="7.12496">
        <ele>1060</ele>
        <time>2019-04-27T10:37:37Z</time>
      </trkpt>
      <trkpt lat="43.79015" lon="7.12496">
        <ele>1060</ele>
        <time>2019-04-27T10:37:43Z</time>
      </trkpt>
      <trkpt lat="43.79015" lon="7.12496">
        <ele>1060</ele>
        <time>2019-04-27T10:37:49Z</time>
      </trkpt>
      <trkpt lat="43.79016" lon="7.12497">
        <ele>1060</ele>
        <time>2019-04-27T10:37:55Z</time>
      </trkpt>
      <trkpt lat="43.79015" lon="7.12497">
        <ele>1060</ele>
        <time>2019-04-27T10:38:01Z</time>
      </trkpt>
      <trkpt lat="43.79015" lon="7.12497">
        <ele>1060</ele>
        <time>2019-04-27T10:38:07Z</time>
      </trkpt>
      <trkpt lat="43.79016" lon="7.12497">
        <ele>1060</ele>
        <time>2019-04-27T10:38:13Z</time>
      </trkpt>
      <trkpt lat="43.79016" lon="7.12497">
        <ele>1060</ele>
        <time>2019-04-27T10:38:19Z</time>
      </trkpt>
      <trkpt lat="43.79016" lon="7.12497">
        <ele>1060</ele>
        <time>2019-04-27T10:38:25Z</time>
      </trkpt>
      <trkpt lat="43.79016" lon="7.12497">
        <ele>1060</ele>
        <time>2019-04-27T10:38:31Z</time>
      </trkpt>
      <trkpt lat="43.79016" lon="7.12497">
        <ele>1060</ele>
        <time>2019-04-27T10:38:37Z</time>
      </trkpt>
      <trkpt lat="43.79016" lon="7.12496">
        <ele>1060</ele>
        <time>2019-04-27T10:38:43Z</time>
      </trkpt>
      <trkpt lat="43.79016" lon="7.12496">
        <ele>1060</ele>
        <time>2019-04-27T10:38:49Z</time>
      </trkpt>
      <trkpt lat="43.79016" lon="7.12496">
        <ele>1060</ele>
        <time>2019-04-27T10:38:55Z</time>
      </trkpt>
      <trkpt lat="43.79015" lon="7.12495">
        <ele>1060</ele>
        <time>2019-04-27T10:39:01Z</time>
      </trkpt>
      <trkpt lat="43.79015" lon="7.12495">
        <ele>1060</ele>
        <time>2019-04-27T10:39:07Z</time>
      </trkpt>
      <trkpt lat="43.79015" lon="7.12495">
        <ele>1060</ele>
        <time>2019-04-27T10:39:13Z</time>
      </trkpt>
      <trkpt lat="43.79015" lon="7.12495">
        <ele>1060</ele>
        <time>2019-04-27T10:39:19Z</time>
      </trkpt>
      <trkpt lat="43.79015" lon="7.12495">
        <ele>1060</ele>
        <time>2019-04-27T10:39:25Z</time>
      </trkpt>
      <trkpt lat="43.79015" lon="7.12495">
        <ele>1060</ele>
        <time>2019-04-27T10:39:31Z</time>
      </trkpt>
      <trkpt lat="43.79015" lon="7.12495">
        <ele>1060</ele>
        <time>2019-04-27T10:39:37Z</time>
      </trkpt>
      <trkpt lat="43.79015" lon="7.12495">
        <ele>1060</ele>
        <time>2019-04-27T10:39:43Z</time>
      </trkpt>
      <trkpt lat="43.79015" lon="7.12495">
        <ele>1060</ele>
        <time>2019-04-27T10:39:49Z</time>
      </trkpt>
      <trkpt lat="43.79015" lon="7.12494">
        <ele>1060</ele>
        <time>2019-04-27T10:39:55Z</time>
      </trkpt>
      <trkpt lat="43.79015" lon="7.12494">
        <ele>1060</ele>
        <time>2019-04-27T10:40:01Z</time>
      </trkpt>
      <trkpt lat="43.79015" lon="7.12494">
        <ele>1060</ele>
        <time>2019-04-27T10:40:07Z</time>
      </trkpt>
      <trkpt lat="43.79015" lon="7.12494">
        <ele>1060</ele>
        <time>2019-04-27T10:40:13Z</time>
      </trkpt>
      <trkpt lat="43.79015" lon="7.12493">
        <ele>1060</ele>
        <time>2019-04-27T10:40:19Z</time>
      </trkpt>
      <trkpt lat="43.79015" lon="7.12494">
        <ele>1060</ele>
        <time>2019-04-27T10:40:25Z</time>
      </trkpt>
      <trkpt lat="43.79014" lon="7.12494">
        <ele>1060</ele>
        <time>2019-04-27T10:40:31Z</time>
      </trkpt>
      <trkpt lat="43.79014" lon="7.12493">
        <ele>1060</ele>
        <time>2019-04-27T10:40:37Z</time>
      </trkpt>
      <trkpt lat="43.79014" lon="7.12493">
        <ele>1060</ele>
        <time>2019-04-27T10:40:43Z</time>
      </trkpt>
      <trkpt lat="43.79015" lon="7.12493">
        <ele>1060</ele>
        <time>2019-04-27T10:40:49Z</time>
      </trkpt>
      <trkpt lat="43.79015" lon="7.12492">
        <ele>1060</ele>
        <time>2019-04-27T10:40:55Z</time>
      </trkpt>
      <trkpt lat="43.79014" lon="7.12492">
        <ele>1060</ele>
        <time>2019-04-27T10:41:01Z</time>
      </trkpt>
      <trkpt lat="43.79014" lon="7.12492">
        <ele>1060</ele>
        <time>2019-04-27T10:41:07Z</time>
      </trkpt>
      <trkpt lat="43.79014" lon="7.12492">
        <ele>1060</ele>
        <time>2019-04-27T10:41:13Z</time>
      </trkpt>
      <trkpt lat="43.79014" lon="7.12491">
        <ele>1060</ele>
        <time>2019-04-27T10:41:19Z</time>
      </trkpt>
      <trkpt lat="43.79015" lon="7.12491">
        <ele>1060</ele>
        <time>2019-04-27T10:41:25Z</time>
      </trkpt>
      <trkpt lat="43.79015" lon="7.12491">
        <ele>1060</ele>
        <time>2019-04-27T10:41:31Z</time>
      </trkpt>
      <trkpt lat="43.79015" lon="7.12491">
        <ele>1060</ele>
        <time>2019-04-27T10:41:37Z</time>
      </trkpt>
      <trkpt lat="43.79015" lon="7.12491">
        <ele>1060</ele>
        <time>2019-04-27T10:41:43Z</time>
      </trkpt>
      <trkpt lat="43.79015" lon="7.12491">
        <ele>1060</ele>
        <time>2019-04-27T10:41:49Z</time>
      </trkpt>
      <trkpt lat="43.79015" lon="7.12491">
        <ele>1060</ele>
        <time>2019-04-27T10:41:55Z</time>
      </trkpt>
      <trkpt lat="43.79015" lon="7.12491">
        <ele>1060</ele>
        <time>2019-04-27T10:42:01Z</time>
      </trkpt>
      <trkpt lat="43.79015" lon="7.12491">
        <ele>1060</ele>
        <time>2019-04-27T10:42:07Z</time>
      </trkpt>
      <trkpt lat="43.79015" lon="7.12491">
        <ele>1060</ele>
        <time>2019-04-27T10:42:13Z</time>
      </trkpt>
      <trkpt lat="43.79015" lon="7.12491">
        <ele>1060</ele>
        <time>2019-04-27T10:42:19Z</time>
      </trkpt>
      <trkpt lat="43.79015" lon="7.12491">
        <ele>1060</ele>
        <time>2019-04-27T10:42:25Z</time>
      </trkpt>
      <trkpt lat="43.79015" lon="7.12491">
        <ele>1060</ele>
        <time>2019-04-27T10:42:31Z</time>
      </trkpt>
      <trkpt lat="43.79015" lon="7.12491">
        <ele>1060</ele>
        <time>2019-04-27T10:42:37Z</time>
      </trkpt>
      <trkpt lat="43.79015" lon="7.12491">
        <ele>1060</ele>
        <time>2019-04-27T10:42:43Z</time>
      </trkpt>
      <trkpt lat="43.79016" lon="7.1249">
        <ele>1060</ele>
        <time>2019-04-27T10:42:49Z</time>
      </trkpt>
      <trkpt lat="43.79016" lon="7.1249">
        <ele>1060</ele>
        <time>2019-04-27T10:42:55Z</time>
      </trkpt>
      <trkpt lat="43.79015" lon="7.1249">
        <ele>1060</ele>
        <time>2019-04-27T10:43:01Z</time>
      </trkpt>
      <trkpt lat="43.79016" lon="7.1249">
        <ele>1060</ele>
        <time>2019-04-27T10:43:07Z</time>
      </trkpt>
      <trkpt lat="43.79015" lon="7.1249">
        <ele>1060</ele>
        <time>2019-04-27T10:43:13Z</time>
      </trkpt>
      <trkpt lat="43.79015" lon="7.1249">
        <ele>1060</ele>
        <time>2019-04-27T10:43:19Z</time>
      </trkpt>
      <trkpt lat="43.79015" lon="7.12491">
        <ele>1060</ele>
        <time>2019-04-27T10:43:25Z</time>
      </trkpt>
      <trkpt lat="43.79015" lon="7.12491">
        <ele>1060</ele>
        <time>2019-04-27T10:43:31Z</time>
      </trkpt>
      <trkpt lat="43.79015" lon="7.12491">
        <ele>1060</ele>
        <time>2019-04-27T10:43:37Z</time>
      </trkpt>
      <trkpt lat="43.79015" lon="7.12491">
        <ele>1060</ele>
        <time>2019-04-27T10:43:43Z</time>
      </trkpt>
      <trkpt lat="43.79015" lon="7.12491">
        <ele>1060</ele>
        <time>2019-04-27T10:43:49Z</time>
      </trkpt>
      <trkpt lat="43.79015" lon="7.12491">
        <ele>1060</ele>
        <time>2019-04-27T10:43:55Z</time>
      </trkpt>
      <trkpt lat="43.79015" lon="7.12491">
        <ele>1060</ele>
        <time>2019-04-27T10:44:01Z</time>
      </trkpt>
      <trkpt lat="43.79015" lon="7.12491">
        <ele>1060</ele>
        <time>2019-04-27T10:44:07Z</time>
      </trkpt>
      <trkpt lat="43.79015" lon="7.12491">
        <ele>1060</ele>
        <time>2019-04-27T10:44:13Z</time>
      </trkpt>
      <trkpt lat="43.79015" lon="7.1249">
        <ele>1060</ele>
        <time>2019-04-27T10:44:19Z</time>
      </trkpt>
      <trkpt lat="43.79015" lon="7.1249">
        <ele>1060</ele>
        <time>2019-04-27T10:44:25Z</time>
      </trkpt>
      <trkpt lat="43.79015" lon="7.1249">
        <ele>1060</ele>
        <time>2019-04-27T10:44:31Z</time>
      </trkpt>
      <trkpt lat="43.79015" lon="7.1249">
        <ele>1060</ele>
        <time>2019-04-27T10:44:37Z</time>
      </trkpt>
      <trkpt lat="43.79015" lon="7.1249">
        <ele>1060</ele>
        <time>2019-04-27T10:44:43Z</time>
      </trkpt>
      <trkpt lat="43.79014" lon="7.12491">
        <ele>1060</ele>
        <time>2019-04-27T10:44:49Z</time>
      </trkpt>
      <trkpt lat="43.79014" lon="7.12492">
        <ele>1060</ele>
        <time>2019-04-27T10:44:55Z</time>
      </trkpt>
      <trkpt lat="43.79014" lon="7.12492">
        <ele>1060</ele>
        <time>2019-04-27T10:45:01Z</time>
      </trkpt>
      <trkpt lat="43.79014" lon="7.12492">
        <ele>1060</ele>
        <time>2019-04-27T10:45:07Z</time>
      </trkpt>
      <trkpt lat="43.79013" lon="7.12492">
        <ele>1060</ele>
        <time>2019-04-27T10:45:13Z</time>
      </trkpt>
      <trkpt lat="43.79013" lon="7.12492">
        <ele>1060</ele>
        <time>2019-04-27T10:45:19Z</time>
      </trkpt>
      <trkpt lat="43.79013" lon="7.12492">
        <ele>1060</ele>
        <time>2019-04-27T10:45:25Z</time>
      </trkpt>
      <trkpt lat="43.79013" lon="7.12492">
        <ele>1060</ele>
        <time>2019-04-27T10:45:31Z</time>
      </trkpt>
      <trkpt lat="43.79013" lon="7.12492">
        <ele>1060</ele>
        <time>2019-04-27T10:45:37Z</time>
      </trkpt>
      <trkpt lat="43.79013" lon="7.12492">
        <ele>1060</ele>
        <time>2019-04-27T10:45:43Z</time>
      </trkpt>
      <trkpt lat="43.79013" lon="7.12492">
        <ele>1060</ele>
        <time>2019-04-27T10:45:49Z</time>
      </trkpt>
      <trkpt lat="43.79013" lon="7.12492">
        <ele>1060</ele>
        <time>2019-04-27T10:45:55Z</time>
      </trkpt>
      <trkpt lat="43.79013" lon="7.12492">
        <ele>1060</ele>
        <time>2019-04-27T10:46:01Z</time>
      </trkpt>
      <trkpt lat="43.79013" lon="7.12493">
        <ele>1060</ele>
        <time>2019-04-27T10:46:07Z</time>
      </trkpt>
      <trkpt lat="43.79013" lon="7.12493">
        <ele>1060</ele>
        <time>2019-04-27T10:46:13Z</time>
      </trkpt>
      <trkpt lat="43.79013" lon="7.12492">
        <ele>1060</ele>
        <time>2019-04-27T10:46:19Z</time>
      </trkpt>
      <trkpt lat="43.79013" lon="7.12492">
        <ele>1060</ele>
        <time>2019-04-27T10:46:25Z</time>
      </trkpt>
      <trkpt lat="43.79013" lon="7.12492">
        <ele>1060</ele>
        <time>2019-04-27T10:46:31Z</time>
      </trkpt>
      <trkpt lat="43.79013" lon="7.12492">
        <ele>1060</ele>
        <time>2019-04-27T10:46:37Z</time>
      </trkpt>
      <trkpt lat="43.79013" lon="7.12492">
        <ele>1060</ele>
        <time>2019-04-27T10:46:43Z</time>
      </trkpt>
      <trkpt lat="43.79013" lon="7.12492">
        <ele>1060</ele>
        <time>2019-04-27T10:46:49Z</time>
      </trkpt>
      <trkpt lat="43.79013" lon="7.12491">
        <ele>1060</ele>
        <time>2019-04-27T10:46:55Z</time>
      </trkpt>
      <trkpt lat="43.79014" lon="7.12491">
        <ele>1060</ele>
        <time>2019-04-27T10:47:01Z</time>
      </trkpt>
      <trkpt lat="43.79014" lon="7.12491">
        <ele>1060</ele>
        <time>2019-04-27T10:47:07Z</time>
      </trkpt>
      <trkpt lat="43.79014" lon="7.12491">
        <ele>1060</ele>
        <time>2019-04-27T10:47:13Z</time>
      </trkpt>
      <trkpt lat="43.79014" lon="7.12491">
        <ele>1060</ele>
        <time>2019-04-27T10:47:19Z</time>
      </trkpt>
      <trkpt lat="43.79014" lon="7.12491">
        <ele>1060</ele>
        <time>2019-04-27T10:47:25Z</time>
      </trkpt>
      <trkpt lat="43.79014" lon="7.12491">
        <ele>1060</ele>
        <time>2019-04-27T10:47:31Z</time>
      </trkpt>
      <trkpt lat="43.79014" lon="7.12491">
        <ele>1060</ele>
        <time>2019-04-27T10:47:37Z</time>
      </trkpt>
      <trkpt lat="43.79014" lon="7.12491">
        <ele>1060</ele>
        <time>2019-04-27T10:47:43Z</time>
      </trkpt>
      <trkpt lat="43.79014" lon="7.12491">
        <ele>1060</ele>
        <time>2019-04-27T10:47:49Z</time>
      </trkpt>
      <trkpt lat="43.79014" lon="7.12491">
        <ele>1060</ele>
        <time>2019-04-27T10:47:55Z</time>
      </trkpt>
      <trkpt lat="43.79014" lon="7.12491">
        <ele>1060</ele>
        <time>2019-04-27T10:48:01Z</time>
      </trkpt>
      <trkpt lat="43.79014" lon="7.12491">
        <ele>1060</ele>
        <time>2019-04-27T10:48:07Z</time>
      </trkpt>
      <trkpt lat="43.79014" lon="7.12491">
        <ele>1060</ele>
        <time>2019-04-27T10:48:13Z</time>
      </trkpt>
      <trkpt lat="43.79014" lon="7.12491">
        <ele>1060</ele>
        <time>2019-04-27T10:48:19Z</time>
      </trkpt>
      <trkpt lat="43.79014" lon="7.12491">
        <ele>1060</ele>
        <time>2019-04-27T10:48:25Z</time>
      </trkpt>
      <trkpt lat="43.79013" lon="7.12491">
        <ele>1060</ele>
        <time>2019-04-27T10:48:31Z</time>
      </trkpt>
      <trkpt lat="43.79013" lon="7.12491">
        <ele>1060</ele>
        <time>2019-04-27T10:48:37Z</time>
      </trkpt>
      <trkpt lat="43.79013" lon="7.12491">
        <ele>1060</ele>
        <time>2019-04-27T10:48:43Z</time>
      </trkpt>
      <trkpt lat="43.79013" lon="7.12491">
        <ele>1060</ele>
        <time>2019-04-27T10:48:49Z</time>
      </trkpt>
      <trkpt lat="43.79013" lon="7.12491">
        <ele>1060</ele>
        <time>2019-04-27T10:48:55Z</time>
      </trkpt>
      <trkpt lat="43.79013" lon="7.12491">
        <ele>1060</ele>
        <time>2019-04-27T10:49:01Z</time>
      </trkpt>
      <trkpt lat="43.79013" lon="7.12491">
        <ele>1060</ele>
        <time>2019-04-27T10:49:07Z</time>
      </trkpt>
      <trkpt lat="43.79013" lon="7.12491">
        <ele>1060</ele>
        <time>2019-04-27T10:49:13Z</time>
      </trkpt>
      <trkpt lat="43.79013" lon="7.12491">
        <ele>1060</ele>
        <time>2019-04-27T10:49:19Z</time>
      </trkpt>
      <trkpt lat="43.79013" lon="7.12492">
        <ele>1060</ele>
        <time>2019-04-27T10:49:25Z</time>
      </trkpt>
      <trkpt lat="43.79013" lon="7.12492">
        <ele>1060</ele>
        <time>2019-04-27T10:49:31Z</time>
      </trkpt>
      <trkpt lat="43.79013" lon="7.12492">
        <ele>1060</ele>
        <time>2019-04-27T10:49:37Z</time>
      </trkpt>
      <trkpt lat="43.79013" lon="7.12492">
        <ele>1060</ele>
        <time>2019-04-27T10:49:43Z</time>
      </trkpt>
      <trkpt lat="43.79013" lon="7.12492">
        <ele>1060</ele>
        <time>2019-04-27T10:49:49Z</time>
      </trkpt>
      <trkpt lat="43.79013" lon="7.12492">
        <ele>1060</ele>
        <time>2019-04-27T10:49:55Z</time>
      </trkpt>
      <trkpt lat="43.79013" lon="7.12491">
        <ele>1060</ele>
        <time>2019-04-27T10:50:01Z</time>
      </trkpt>
      <trkpt lat="43.79013" lon="7.12492">
        <ele>1060</ele>
        <time>2019-04-27T10:50:07Z</time>
      </trkpt>
      <trkpt lat="43.79013" lon="7.12492">
        <ele>1060</ele>
        <time>2019-04-27T10:50:13Z</time>
      </trkpt>
      <trkpt lat="43.79013" lon="7.12492">
        <ele>1060</ele>
        <time>2019-04-27T10:50:19Z</time>
      </trkpt>
      <trkpt lat="43.79013" lon="7.12492">
        <ele>1060</ele>
        <time>2019-04-27T10:50:25Z</time>
      </trkpt>
      <trkpt lat="43.79013" lon="7.12491">
        <ele>1060</ele>
        <time>2019-04-27T10:50:31Z</time>
      </trkpt>
      <trkpt lat="43.79013" lon="7.12492">
        <ele>1060</ele>
        <time>2019-04-27T10:50:37Z</time>
      </trkpt>
      <trkpt lat="43.79013" lon="7.12492">
        <ele>1060</ele>
        <time>2019-04-27T10:50:43Z</time>
      </trkpt>
      <trkpt lat="43.79013" lon="7.12492">
        <ele>1060</ele>
        <time>2019-04-27T10:50:49Z</time>
      </trkpt>
      <trkpt lat="43.79013" lon="7.12492">
        <ele>1060</ele>
        <time>2019-04-27T10:50:55Z</time>
      </trkpt>
      <trkpt lat="43.79013" lon="7.12492">
        <ele>1060</ele>
        <time>2019-04-27T10:51:01Z</time>
      </trkpt>
      <trkpt lat="43.79013" lon="7.12492">
        <ele>1060</ele>
        <time>2019-04-27T10:51:07Z</time>
      </trkpt>
      <trkpt lat="43.79012" lon="7.12493">
        <ele>1060</ele>
        <time>2019-04-27T10:51:13Z</time>
      </trkpt>
      <trkpt lat="43.79013" lon="7.12493">
        <ele>1060</ele>
        <time>2019-04-27T10:51:19Z</time>
      </trkpt>
      <trkpt lat="43.79013" lon="7.12493">
        <ele>1060</ele>
        <time>2019-04-27T10:51:25Z</time>
      </trkpt>
      <trkpt lat="43.79013" lon="7.12492">
        <ele>1060</ele>
        <time>2019-04-27T10:51:31Z</time>
      </trkpt>
      <trkpt lat="43.79013" lon="7.12492">
        <ele>1060</ele>
        <time>2019-04-27T10:51:37Z</time>
      </trkpt>
      <trkpt lat="43.79012" lon="7.12492">
        <ele>1060</ele>
        <time>2019-04-27T10:51:43Z</time>
      </trkpt>
      <trkpt lat="43.79012" lon="7.12492">
        <ele>1060</ele>
        <time>2019-04-27T10:51:49Z</time>
      </trkpt>
      <trkpt lat="43.79012" lon="7.12492">
        <ele>1060</ele>
        <time>2019-04-27T10:51:55Z</time>
      </trkpt>
      <trkpt lat="43.79013" lon="7.12493">
        <ele>1060</ele>
        <time>2019-04-27T10:52:01Z</time>
      </trkpt>
      <trkpt lat="43.79013" lon="7.12493">
        <ele>1060</ele>
        <time>2019-04-27T10:52:07Z</time>
      </trkpt>
      <trkpt lat="43.79013" lon="7.12493">
        <ele>1060</ele>
        <time>2019-04-27T10:52:13Z</time>
      </trkpt>
      <trkpt lat="43.79013" lon="7.12493">
        <ele>1060</ele>
        <time>2019-04-27T10:52:19Z</time>
      </trkpt>
      <trkpt lat="43.79013" lon="7.12493">
        <ele>1060</ele>
        <time>2019-04-27T10:52:25Z</time>
      </trkpt>
      <trkpt lat="43.79013" lon="7.12493">
        <ele>1060</ele>
        <time>2019-04-27T10:52:31Z</time>
      </trkpt>
      <trkpt lat="43.79013" lon="7.12493">
        <ele>1060</ele>
        <time>2019-04-27T10:52:37Z</time>
      </trkpt>
      <trkpt lat="43.79013" lon="7.12493">
        <ele>1060</ele>
        <time>2019-04-27T10:52:43Z</time>
      </trkpt>
      <trkpt lat="43.79013" lon="7.12493">
        <ele>1060</ele>
        <time>2019-04-27T10:52:49Z</time>
      </trkpt>
      <trkpt lat="43.79013" lon="7.12493">
        <ele>1060</ele>
        <time>2019-04-27T10:52:55Z</time>
      </trkpt>
      <trkpt lat="43.79013" lon="7.12493">
        <ele>1060</ele>
        <time>2019-04-27T10:53:01Z</time>
      </trkpt>
      <trkpt lat="43.79013" lon="7.12493">
        <ele>1060</ele>
        <time>2019-04-27T10:53:07Z</time>
      </trkpt>
      <trkpt lat="43.79013" lon="7.12493">
        <ele>1060</ele>
        <time>2019-04-27T10:53:13Z</time>
      </trkpt>
      <trkpt lat="43.79013" lon="7.12493">
        <ele>1060</ele>
        <time>2019-04-27T10:53:19Z</time>
      </trkpt>
      <trkpt lat="43.79012" lon="7.12493">
        <ele>1060</ele>
        <time>2019-04-27T10:53:25Z</time>
      </trkpt>
      <trkpt lat="43.79012" lon="7.12493">
        <ele>1060</ele>
        <time>2019-04-27T10:53:31Z</time>
      </trkpt>
      <trkpt lat="43.79012" lon="7.12494">
        <ele>1060</ele>
        <time>2019-04-27T10:53:37Z</time>
      </trkpt>
      <trkpt lat="43.79012" lon="7.12493">
        <ele>1060</ele>
        <time>2019-04-27T10:53:43Z</time>
      </trkpt>
      <trkpt lat="43.79012" lon="7.12493">
        <ele>1060</ele>
        <time>2019-04-27T10:53:49Z</time>
      </trkpt>
      <trkpt lat="43.79012" lon="7.12493">
        <ele>1060</ele>
        <time>2019-04-27T10:53:55Z</time>
      </trkpt>
      <trkpt lat="43.79012" lon="7.12493">
        <ele>1060</ele>
        <time>2019-04-27T10:54:01Z</time>
      </trkpt>
      <trkpt lat="43.79013" lon="7.12493">
        <ele>1060</ele>
        <time>2019-04-27T10:54:07Z</time>
      </trkpt>
      <trkpt lat="43.79013" lon="7.12491">
        <ele>1060</ele>
        <time>2019-04-27T10:54:13Z</time>
      </trkpt>
      <trkpt lat="43.79014" lon="7.12489">
        <ele>1060</ele>
        <time>2019-04-27T10:54:19Z</time>
      </trkpt>
      <trkpt lat="43.79014" lon="7.1249">
        <ele>1060</ele>
        <time>2019-04-27T10:54:25Z</time>
      </trkpt>
      <trkpt lat="43.79014" lon="7.1249">
        <ele>1060</ele>
        <time>2019-04-27T10:54:31Z</time>
      </trkpt>
      <trkpt lat="43.79014" lon="7.12491">
        <ele>1060</ele>
        <time>2019-04-27T10:54:37Z</time>
      </trkpt>
      <trkpt lat="43.79014" lon="7.12491">
        <ele>1060</ele>
        <time>2019-04-27T10:54:43Z</time>
      </trkpt>
      <trkpt lat="43.79014" lon="7.12492">
        <ele>1060</ele>
        <time>2019-04-27T10:54:49Z</time>
      </trkpt>
      <trkpt lat="43.79014" lon="7.12492">
        <ele>1060</ele>
        <time>2019-04-27T10:54:55Z</time>
      </trkpt>
      <trkpt lat="43.79014" lon="7.12492">
        <ele>1060</ele>
        <time>2019-04-27T10:55:01Z</time>
      </trkpt>
      <trkpt lat="43.79014" lon="7.12492">
        <ele>1060</ele>
        <time>2019-04-27T10:55:07Z</time>
      </trkpt>
      <trkpt lat="43.79014" lon="7.12492">
        <ele>1060</ele>
        <time>2019-04-27T10:55:13Z</time>
      </trkpt>
      <trkpt lat="43.79014" lon="7.12493">
        <ele>1060</ele>
        <time>2019-04-27T10:55:19Z</time>
      </trkpt>
      <trkpt lat="43.79014" lon="7.12493">
        <ele>1060</ele>
        <time>2019-04-27T10:55:25Z</time>
      </trkpt>
      <trkpt lat="43.79014" lon="7.12493">
        <ele>1060</ele>
        <time>2019-04-27T10:55:31Z</time>
      </trkpt>
      <trkpt lat="43.79014" lon="7.12493">
        <ele>1060</ele>
        <time>2019-04-27T10:55:37Z</time>
      </trkpt>
      <trkpt lat="43.79015" lon="7.12492">
        <ele>1060</ele>
        <time>2019-04-27T10:55:43Z</time>
      </trkpt>
      <trkpt lat="43.79015" lon="7.12492">
        <ele>1060</ele>
        <time>2019-04-27T10:55:49Z</time>
      </trkpt>
      <trkpt lat="43.79015" lon="7.12492">
        <ele>1060</ele>
        <time>2019-04-27T10:55:55Z</time>
      </trkpt>
      <trkpt lat="43.79014" lon="7.12492">
        <ele>1060</ele>
        <time>2019-04-27T10:56:01Z</time>
      </trkpt>
      <trkpt lat="43.79015" lon="7.12492">
        <ele>1060</ele>
        <time>2019-04-27T10:56:07Z</time>
      </trkpt>
      <trkpt lat="43.79015" lon="7.12493">
        <ele>1060</ele>
        <time>2019-04-27T10:56:13Z</time>
      </trkpt>
      <trkpt lat="43.79015" lon="7.12493">
        <ele>1060</ele>
        <time>2019-04-27T10:56:19Z</time>
      </trkpt>
      <trkpt lat="43.79015" lon="7.12493">
        <ele>1060</ele>
        <time>2019-04-27T10:56:25Z</time>
      </trkpt>
      <trkpt lat="43.79015" lon="7.12493">
        <ele>1060</ele>
        <time>2019-04-27T10:56:31Z</time>
      </trkpt>
      <trkpt lat="43.79015" lon="7.12493">
        <ele>1060</ele>
        <time>2019-04-27T10:56:37Z</time>
      </trkpt>
      <trkpt lat="43.79015" lon="7.12493">
        <ele>1060</ele>
        <time>2019-04-27T10:56:43Z</time>
      </trkpt>
      <trkpt lat="43.79015" lon="7.12493">
        <ele>1060</ele>
        <time>2019-04-27T10:56:49Z</time>
      </trkpt>
      <trkpt lat="43.79015" lon="7.12493">
        <ele>1060</ele>
        <time>2019-04-27T10:56:55Z</time>
      </trkpt>
      <trkpt lat="43.79015" lon="7.12493">
        <ele>1060</ele>
        <time>2019-04-27T10:57:01Z</time>
      </trkpt>
      <trkpt lat="43.79016" lon="7.12493">
        <ele>1060</ele>
        <time>2019-04-27T10:57:07Z</time>
      </trkpt>
      <trkpt lat="43.79015" lon="7.12494">
        <ele>1060</ele>
        <time>2019-04-27T10:57:13Z</time>
      </trkpt>
      <trkpt lat="43.79015" lon="7.12494">
        <ele>1060</ele>
        <time>2019-04-27T10:57:19Z</time>
      </trkpt>
      <trkpt lat="43.79015" lon="7.12494">
        <ele>1060</ele>
        <time>2019-04-27T10:57:25Z</time>
      </trkpt>
      <trkpt lat="43.79015" lon="7.12494">
        <ele>1060</ele>
        <time>2019-04-27T10:57:31Z</time>
      </trkpt>
      <trkpt lat="43.79015" lon="7.12494">
        <ele>1060</ele>
        <time>2019-04-27T10:57:37Z</time>
      </trkpt>
      <trkpt lat="43.79015" lon="7.12496">
        <ele>1060</ele>
        <time>2019-04-27T10:57:43Z</time>
      </trkpt>
      <trkpt lat="43.79015" lon="7.12496">
        <ele>1060</ele>
        <time>2019-04-27T10:57:49Z</time>
      </trkpt>
      <trkpt lat="43.79015" lon="7.12497">
        <ele>1060</ele>
        <time>2019-04-27T10:57:55Z</time>
      </trkpt>
      <trkpt lat="43.79015" lon="7.12497">
        <ele>1060</ele>
        <time>2019-04-27T10:58:01Z</time>
      </trkpt>
      <trkpt lat="43.79014" lon="7.12496">
        <ele>1060</ele>
        <time>2019-04-27T10:58:07Z</time>
      </trkpt>
      <trkpt lat="43.79014" lon="7.12497">
        <ele>1060</ele>
        <time>2019-04-27T10:58:13Z</time>
      </trkpt>
      <trkpt lat="43.79014" lon="7.12496">
        <ele>1060</ele>
        <time>2019-04-27T10:58:19Z</time>
      </trkpt>
      <trkpt lat="43.79014" lon="7.12496">
        <ele>1060</ele>
        <time>2019-04-27T10:58:25Z</time>
      </trkpt>
      <trkpt lat="43.79014" lon="7.12495">
        <ele>1060</ele>
        <time>2019-04-27T10:58:31Z</time>
      </trkpt>
      <trkpt lat="43.79014" lon="7.12495">
        <ele>1060</ele>
        <time>2019-04-27T10:58:37Z</time>
      </trkpt>
      <trkpt lat="43.79013" lon="7.12494">
        <ele>1060</ele>
        <time>2019-04-27T10:58:43Z</time>
      </trkpt>
      <trkpt lat="43.79013" lon="7.12494">
        <ele>1060</ele>
        <time>2019-04-27T10:58:49Z</time>
      </trkpt>
      <trkpt lat="43.79013" lon="7.12494">
        <ele>1060</ele>
        <time>2019-04-27T10:58:55Z</time>
      </trkpt>
      <trkpt lat="43.79012" lon="7.12494">
        <ele>1060</ele>
        <time>2019-04-27T10:59:01Z</time>
      </trkpt>
      <trkpt lat="43.79012" lon="7.12494">
        <ele>1060</ele>
        <time>2019-04-27T10:59:07Z</time>
      </trkpt>
      <trkpt lat="43.79012" lon="7.12495">
        <ele>1060</ele>
        <time>2019-04-27T10:59:13Z</time>
      </trkpt>
      <trkpt lat="43.79012" lon="7.12495">
        <ele>1060</ele>
        <time>2019-04-27T10:59:19Z</time>
      </trkpt>
      <trkpt lat="43.79013" lon="7.12495">
        <ele>1060</ele>
        <time>2019-04-27T10:59:25Z</time>
      </trkpt>
      <trkpt lat="43.79013" lon="7.12495">
        <ele>1060</ele>
        <time>2019-04-27T10:59:31Z</time>
      </trkpt>
      <trkpt lat="43.79013" lon="7.12496">
        <ele>1060</ele>
        <time>2019-04-27T10:59:37Z</time>
      </trkpt>
      <trkpt lat="43.79013" lon="7.12496">
        <ele>1060</ele>
        <time>2019-04-27T10:59:43Z</time>
      </trkpt>
      <trkpt lat="43.79013" lon="7.12496">
        <ele>1060</ele>
        <time>2019-04-27T10:59:49Z</time>
      </trkpt>
      <trkpt lat="43.79012" lon="7.12497">
        <ele>1060</ele>
        <time>2019-04-27T10:59:55Z</time>
      </trkpt>
      <trkpt lat="43.79012" lon="7.12497">
        <ele>1059</ele>
        <time>2019-04-27T11:00:01Z</time>
      </trkpt>
      <trkpt lat="43.79012" lon="7.12497">
        <ele>1059</ele>
        <time>2019-04-27T11:00:07Z</time>
      </trkpt>
      <trkpt lat="43.79012" lon="7.12497">
        <ele>1059</ele>
        <time>2019-04-27T11:00:13Z</time>
      </trkpt>
      <trkpt lat="43.79012" lon="7.12497">
        <ele>1059</ele>
        <time>2019-04-27T11:00:19Z</time>
      </trkpt>
      <trkpt lat="43.79011" lon="7.12497">
        <ele>1059</ele>
        <time>2019-04-27T11:00:25Z</time>
      </trkpt>
      <trkpt lat="43.79011" lon="7.12497">
        <ele>1059</ele>
        <time>2019-04-27T11:00:31Z</time>
      </trkpt>
      <trkpt lat="43.79011" lon="7.12497">
        <ele>1059</ele>
        <time>2019-04-27T11:00:37Z</time>
      </trkpt>
      <trkpt lat="43.79011" lon="7.12497">
        <ele>1059</ele>
        <time>2019-04-27T11:00:43Z</time>
      </trkpt>
      <trkpt lat="43.79011" lon="7.12497">
        <ele>1059</ele>
        <time>2019-04-27T11:00:49Z</time>
      </trkpt>
      <trkpt lat="43.79011" lon="7.12497">
        <ele>1059</ele>
        <time>2019-04-27T11:00:55Z</time>
      </trkpt>
      <trkpt lat="43.79011" lon="7.12497">
        <ele>1059</ele>
        <time>2019-04-27T11:01:01Z</time>
      </trkpt>
      <trkpt lat="43.79011" lon="7.12497">
        <ele>1059</ele>
        <time>2019-04-27T11:01:07Z</time>
      </trkpt>
      <trkpt lat="43.79012" lon="7.12497">
        <ele>1059</ele>
        <time>2019-04-27T11:01:13Z</time>
      </trkpt>
      <trkpt lat="43.79014" lon="7.12499">
        <ele>1059</ele>
        <time>2019-04-27T11:01:19Z</time>
      </trkpt>
      <trkpt lat="43.79014" lon="7.12499">
        <ele>1059</ele>
        <time>2019-04-27T11:01:25Z</time>
      </trkpt>
      <trkpt lat="43.79013" lon="7.12499">
        <ele>1059</ele>
        <time>2019-04-27T11:01:31Z</time>
      </trkpt>
      <trkpt lat="43.79012" lon="7.12497">
        <ele>1059</ele>
        <time>2019-04-27T11:01:37Z</time>
      </trkpt>
      <trkpt lat="43.79014" lon="7.12498">
        <ele>1059</ele>
        <time>2019-04-27T11:01:43Z</time>
      </trkpt>
      <trkpt lat="43.79012" lon="7.12496">
        <ele>1060</ele>
        <time>2019-04-27T11:01:49Z</time>
      </trkpt>
      <trkpt lat="43.79012" lon="7.12495">
        <ele>1060</ele>
        <time>2019-04-27T11:01:55Z</time>
      </trkpt>
      <trkpt lat="43.79012" lon="7.12495">
        <ele>1060</ele>
        <time>2019-04-27T11:02:01Z</time>
      </trkpt>
      <trkpt lat="43.79012" lon="7.12495">
        <ele>1059</ele>
        <time>2019-04-27T11:02:07Z</time>
      </trkpt>
      <trkpt lat="43.79013" lon="7.12495">
        <ele>1060</ele>
        <time>2019-04-27T11:02:13Z</time>
      </trkpt>
      <trkpt lat="43.79014" lon="7.12494">
        <ele>1060</ele>
        <time>2019-04-27T11:02:19Z</time>
      </trkpt>
      <trkpt lat="43.79014" lon="7.12495">
        <ele>1060</ele>
        <time>2019-04-27T11:02:25Z</time>
      </trkpt>
      <trkpt lat="43.79014" lon="7.12495">
        <ele>1060</ele>
        <time>2019-04-27T11:02:31Z</time>
      </trkpt>
      <trkpt lat="43.79014" lon="7.12495">
        <ele>1060</ele>
        <time>2019-04-27T11:02:37Z</time>
      </trkpt>
      <trkpt lat="43.79014" lon="7.12495">
        <ele>1060</ele>
        <time>2019-04-27T11:02:43Z</time>
      </trkpt>
      <trkpt lat="43.79014" lon="7.12495">
        <ele>1060</ele>
        <time>2019-04-27T11:02:49Z</time>
      </trkpt>
      <trkpt lat="43.79014" lon="7.12495">
        <ele>1060</ele>
        <time>2019-04-27T11:02:55Z</time>
      </trkpt>
      <trkpt lat="43.79014" lon="7.12495">
        <ele>1060</ele>
        <time>2019-04-27T11:03:01Z</time>
      </trkpt>
      <trkpt lat="43.79014" lon="7.12495">
        <ele>1060</ele>
        <time>2019-04-27T11:03:07Z</time>
      </trkpt>
      <trkpt lat="43.79014" lon="7.12495">
        <ele>1060</ele>
        <time>2019-04-27T11:03:13Z</time>
      </trkpt>
      <trkpt lat="43.79014" lon="7.12495">
        <ele>1060</ele>
        <time>2019-04-27T11:03:19Z</time>
      </trkpt>
      <trkpt lat="43.79014" lon="7.12496">
        <ele>1060</ele>
        <time>2019-04-27T11:03:25Z</time>
      </trkpt>
      <trkpt lat="43.79014" lon="7.12496">
        <ele>1060</ele>
        <time>2019-04-27T11:03:31Z</time>
      </trkpt>
      <trkpt lat="43.79014" lon="7.12496">
        <ele>1060</ele>
        <time>2019-04-27T11:03:37Z</time>
      </trkpt>
      <trkpt lat="43.79015" lon="7.12496">
        <ele>1060</ele>
        <time>2019-04-27T11:03:43Z</time>
      </trkpt>
      <trkpt lat="43.79014" lon="7.12496">
        <ele>1060</ele>
        <time>2019-04-27T11:03:49Z</time>
      </trkpt>
      <trkpt lat="43.79014" lon="7.12496">
        <ele>1060</ele>
        <time>2019-04-27T11:03:55Z</time>
      </trkpt>
      <trkpt lat="43.79014" lon="7.12496">
        <ele>1060</ele>
        <time>2019-04-27T11:04:01Z</time>
      </trkpt>
      <trkpt lat="43.79014" lon="7.12495">
        <ele>1060</ele>
        <time>2019-04-27T11:04:07Z</time>
      </trkpt>
      <trkpt lat="43.79014" lon="7.12496">
        <ele>1060</ele>
        <time>2019-04-27T11:04:13Z</time>
      </trkpt>
      <trkpt lat="43.79014" lon="7.12496">
        <ele>1060</ele>
        <time>2019-04-27T11:04:19Z</time>
      </trkpt>
      <trkpt lat="43.79014" lon="7.12496">
        <ele>1060</ele>
        <time>2019-04-27T11:04:25Z</time>
      </trkpt>
      <trkpt lat="43.79013" lon="7.12496">
        <ele>1060</ele>
        <time>2019-04-27T11:04:31Z</time>
      </trkpt>
      <trkpt lat="43.79014" lon="7.12496">
        <ele>1060</ele>
        <time>2019-04-27T11:04:37Z</time>
      </trkpt>
      <trkpt lat="43.79014" lon="7.12496">
        <ele>1060</ele>
        <time>2019-04-27T11:04:43Z</time>
      </trkpt>
      <trkpt lat="43.79014" lon="7.12496">
        <ele>1060</ele>
        <time>2019-04-27T11:04:49Z</time>
      </trkpt>
      <trkpt lat="43.79014" lon="7.12498">
        <ele>1060</ele>
        <time>2019-04-27T11:04:55Z</time>
      </trkpt>
      <trkpt lat="43.79014" lon="7.12497">
        <ele>1060</ele>
        <time>2019-04-27T11:05:01Z</time>
      </trkpt>
      <trkpt lat="43.79014" lon="7.12497">
        <ele>1060</ele>
        <time>2019-04-27T11:05:07Z</time>
      </trkpt>
      <trkpt lat="43.79013" lon="7.12497">
        <ele>1060</ele>
        <time>2019-04-27T11:05:13Z</time>
      </trkpt>
      <trkpt lat="43.79012" lon="7.12497">
        <ele>1060</ele>
        <time>2019-04-27T11:05:19Z</time>
      </trkpt>
      <trkpt lat="43.79012" lon="7.12497">
        <ele>1060</ele>
        <time>2019-04-27T11:05:25Z</time>
      </trkpt>
      <trkpt lat="43.79012" lon="7.12497">
        <ele>1059</ele>
        <time>2019-04-27T11:05:31Z</time>
      </trkpt>
      <trkpt lat="43.79011" lon="7.12497">
        <ele>1059</ele>
        <time>2019-04-27T11:05:37Z</time>
      </trkpt>
      <trkpt lat="43.79011" lon="7.12498">
        <ele>1059</ele>
        <time>2019-04-27T11:05:43Z</time>
      </trkpt>
      <trkpt lat="43.79011" lon="7.12498">
        <ele>1059</ele>
        <time>2019-04-27T11:05:49Z</time>
      </trkpt>
      <trkpt lat="43.79011" lon="7.12498">
        <ele>1059</ele>
        <time>2019-04-27T11:05:55Z</time>
      </trkpt>
      <trkpt lat="43.79011" lon="7.12499">
        <ele>1059</ele>
        <time>2019-04-27T11:06:01Z</time>
      </trkpt>
      <trkpt lat="43.7901" lon="7.12499">
        <ele>1059</ele>
        <time>2019-04-27T11:06:07Z</time>
      </trkpt>
      <trkpt lat="43.7901" lon="7.12499">
        <ele>1059</ele>
        <time>2019-04-27T11:06:13Z</time>
      </trkpt>
      <trkpt lat="43.7901" lon="7.12499">
        <ele>1059</ele>
        <time>2019-04-27T11:06:19Z</time>
      </trkpt>
      <trkpt lat="43.7901" lon="7.12499">
        <ele>1059</ele>
        <time>2019-04-27T11:06:25Z</time>
      </trkpt>
      <trkpt lat="43.7901" lon="7.12499">
        <ele>1059</ele>
        <time>2019-04-27T11:06:31Z</time>
      </trkpt>
      <trkpt lat="43.7901" lon="7.12497">
        <ele>1059</ele>
        <time>2019-04-27T11:06:37Z</time>
      </trkpt>
      <trkpt lat="43.7901" lon="7.12497">
        <ele>1059</ele>
        <time>2019-04-27T11:06:43Z</time>
      </trkpt>
      <trkpt lat="43.7901" lon="7.12498">
        <ele>1059</ele>
        <time>2019-04-27T11:06:49Z</time>
      </trkpt>
      <trkpt lat="43.79011" lon="7.12499">
        <ele>1059</ele>
        <time>2019-04-27T11:06:55Z</time>
      </trkpt>
      <trkpt lat="43.79011" lon="7.12499">
        <ele>1059</ele>
        <time>2019-04-27T11:07:01Z</time>
      </trkpt>
      <trkpt lat="43.79011" lon="7.12498">
        <ele>1059</ele>
        <time>2019-04-27T11:07:07Z</time>
      </trkpt>
      <trkpt lat="43.79011" lon="7.12498">
        <ele>1059</ele>
        <time>2019-04-27T11:07:13Z</time>
      </trkpt>
      <trkpt lat="43.79011" lon="7.12498">
        <ele>1059</ele>
        <time>2019-04-27T11:07:19Z</time>
      </trkpt>
      <trkpt lat="43.79011" lon="7.12497">
        <ele>1059</ele>
        <time>2019-04-27T11:07:25Z</time>
      </trkpt>
      <trkpt lat="43.79011" lon="7.12497">
        <ele>1059</ele>
        <time>2019-04-27T11:07:31Z</time>
      </trkpt>
      <trkpt lat="43.79011" lon="7.12497">
        <ele>1059</ele>
        <time>2019-04-27T11:07:37Z</time>
      </trkpt>
      <trkpt lat="43.79011" lon="7.12497">
        <ele>1059</ele>
        <time>2019-04-27T11:07:43Z</time>
      </trkpt>
      <trkpt lat="43.79012" lon="7.12497">
        <ele>1059</ele>
        <time>2019-04-27T11:07:49Z</time>
      </trkpt>
      <trkpt lat="43.79011" lon="7.12497">
        <ele>1059</ele>
        <time>2019-04-27T11:07:55Z</time>
      </trkpt>
      <trkpt lat="43.79011" lon="7.12497">
        <ele>1059</ele>
        <time>2019-04-27T11:08:01Z</time>
      </trkpt>
      <trkpt lat="43.79011" lon="7.12497">
        <ele>1059</ele>
        <time>2019-04-27T11:08:07Z</time>
      </trkpt>
      <trkpt lat="43.79011" lon="7.12497">
        <ele>1059</ele>
        <time>2019-04-27T11:08:13Z</time>
      </trkpt>
      <trkpt lat="43.7901" lon="7.12497">
        <ele>1059</ele>
        <time>2019-04-27T11:08:19Z</time>
      </trkpt>
      <trkpt lat="43.7901" lon="7.12497">
        <ele>1059</ele>
        <time>2019-04-27T11:08:25Z</time>
      </trkpt>
      <trkpt lat="43.7901" lon="7.12497">
        <ele>1059</ele>
        <time>2019-04-27T11:08:31Z</time>
      </trkpt>
      <trkpt lat="43.7901" lon="7.12496">
        <ele>1059</ele>
        <time>2019-04-27T11:08:37Z</time>
      </trkpt>
      <trkpt lat="43.79009" lon="7.12496">
        <ele>1059</ele>
        <time>2019-04-27T11:08:43Z</time>
      </trkpt>
      <trkpt lat="43.79009" lon="7.12496">
        <ele>1059</ele>
        <time>2019-04-27T11:08:49Z</time>
      </trkpt>
      <trkpt lat="43.79009" lon="7.12496">
        <ele>1059</ele>
        <time>2019-04-27T11:08:55Z</time>
      </trkpt>
      <trkpt lat="43.79009" lon="7.12496">
        <ele>1059</ele>
        <time>2019-04-27T11:09:01Z</time>
      </trkpt>
      <trkpt lat="43.79012" lon="7.12495">
        <ele>1060</ele>
        <time>2019-04-27T11:09:07Z</time>
      </trkpt>
      <trkpt lat="43.79013" lon="7.12494">
        <ele>1060</ele>
        <time>2019-04-27T11:09:13Z</time>
      </trkpt>
      <trkpt lat="43.79013" lon="7.12494">
        <ele>1060</ele>
        <time>2019-04-27T11:09:19Z</time>
      </trkpt>
      <trkpt lat="43.79013" lon="7.12494">
        <ele>1060</ele>
        <time>2019-04-27T11:09:25Z</time>
      </trkpt>
      <trkpt lat="43.79013" lon="7.12494">
        <ele>1060</ele>
        <time>2019-04-27T11:09:31Z</time>
      </trkpt>
      <trkpt lat="43.79013" lon="7.12494">
        <ele>1060</ele>
        <time>2019-04-27T11:09:37Z</time>
      </trkpt>
      <trkpt lat="43.79013" lon="7.12494">
        <ele>1060</ele>
        <time>2019-04-27T11:09:43Z</time>
      </trkpt>
      <trkpt lat="43.79013" lon="7.12494">
        <ele>1060</ele>
        <time>2019-04-27T11:09:49Z</time>
      </trkpt>
      <trkpt lat="43.79013" lon="7.12494">
        <ele>1060</ele>
        <time>2019-04-27T11:09:55Z</time>
      </trkpt>
      <trkpt lat="43.79013" lon="7.12495">
        <ele>1060</ele>
        <time>2019-04-27T11:10:01Z</time>
      </trkpt>
      <trkpt lat="43.79012" lon="7.12495">
        <ele>1060</ele>
        <time>2019-04-27T11:10:07Z</time>
      </trkpt>
      <trkpt lat="43.79012" lon="7.12496">
        <ele>1060</ele>
        <time>2019-04-27T11:10:13Z</time>
      </trkpt>
      <trkpt lat="43.79012" lon="7.12496">
        <ele>1060</ele>
        <time>2019-04-27T11:10:19Z</time>
      </trkpt>
      <trkpt lat="43.79012" lon="7.12497">
        <ele>1060</ele>
        <time>2019-04-27T11:10:25Z</time>
      </trkpt>
      <trkpt lat="43.79012" lon="7.12497">
        <ele>1060</ele>
        <time>2019-04-27T11:10:31Z</time>
      </trkpt>
      <trkpt lat="43.79012" lon="7.12497">
        <ele>1060</ele>
        <time>2019-04-27T11:10:37Z</time>
      </trkpt>
      <trkpt lat="43.79012" lon="7.12497">
        <ele>1060</ele>
        <time>2019-04-27T11:10:43Z</time>
      </trkpt>
      <trkpt lat="43.79012" lon="7.12497">
        <ele>1060</ele>
        <time>2019-04-27T11:10:49Z</time>
      </trkpt>
      <trkpt lat="43.79012" lon="7.12497">
        <ele>1060</ele>
        <time>2019-04-27T11:10:55Z</time>
      </trkpt>
      <trkpt lat="43.79012" lon="7.12497">
        <ele>1059</ele>
        <time>2019-04-27T11:11:01Z</time>
      </trkpt>
      <trkpt lat="43.79012" lon="7.12497">
        <ele>1059</ele>
        <time>2019-04-27T11:11:07Z</time>
      </trkpt>
      <trkpt lat="43.79012" lon="7.12497">
        <ele>1059</ele>
        <time>2019-04-27T11:11:13Z</time>
      </trkpt>
      <trkpt lat="43.79012" lon="7.12496">
        <ele>1060</ele>
        <time>2019-04-27T11:11:19Z</time>
      </trkpt>
      <trkpt lat="43.79012" lon="7.12496">
        <ele>1060</ele>
        <time>2019-04-27T11:11:25Z</time>
      </trkpt>
      <trkpt lat="43.79012" lon="7.12496">
        <ele>1060</ele>
        <time>2019-04-27T11:11:31Z</time>
      </trkpt>
      <trkpt lat="43.79012" lon="7.12496">
        <ele>1060</ele>
        <time>2019-04-27T11:11:37Z</time>
      </trkpt>
      <trkpt lat="43.79012" lon="7.12496">
        <ele>1060</ele>
        <time>2019-04-27T11:11:43Z</time>
      </trkpt>
      <trkpt lat="43.79012" lon="7.12495">
        <ele>1060</ele>
        <time>2019-04-27T11:11:49Z</time>
      </trkpt>
      <trkpt lat="43.79012" lon="7.12495">
        <ele>1060</ele>
        <time>2019-04-27T11:11:55Z</time>
      </trkpt>
      <trkpt lat="43.79012" lon="7.12495">
        <ele>1060</ele>
        <time>2019-04-27T11:12:01Z</time>
      </trkpt>
      <trkpt lat="43.79012" lon="7.12495">
        <ele>1060</ele>
        <time>2019-04-27T11:12:07Z</time>
      </trkpt>
      <trkpt lat="43.79012" lon="7.12495">
        <ele>1060</ele>
        <time>2019-04-27T11:12:13Z</time>
      </trkpt>
      <trkpt lat="43.79013" lon="7.12495">
        <ele>1060</ele>
        <time>2019-04-27T11:12:19Z</time>
      </trkpt>
      <trkpt lat="43.79012" lon="7.12495">
        <ele>1060</ele>
        <time>2019-04-27T11:12:25Z</time>
      </trkpt>
      <trkpt lat="43.79013" lon="7.12495">
        <ele>1060</ele>
        <time>2019-04-27T11:12:31Z</time>
      </trkpt>
      <trkpt lat="43.79013" lon="7.12495">
        <ele>1060</ele>
        <time>2019-04-27T11:12:37Z</time>
      </trkpt>
      <trkpt lat="43.79013" lon="7.12495">
        <ele>1060</ele>
        <time>2019-04-27T11:12:43Z</time>
      </trkpt>
      <trkpt lat="43.79013" lon="7.12494">
        <ele>1060</ele>
        <time>2019-04-27T11:12:49Z</time>
      </trkpt>
      <trkpt lat="43.79013" lon="7.12494">
        <ele>1060</ele>
        <time>2019-04-27T11:12:55Z</time>
      </trkpt>
      <trkpt lat="43.79012" lon="7.12494">
        <ele>1060</ele>
        <time>2019-04-27T11:13:01Z</time>
      </trkpt>
      <trkpt lat="43.79012" lon="7.12494">
        <ele>1060</ele>
        <time>2019-04-27T11:13:07Z</time>
      </trkpt>
      <trkpt lat="43.79012" lon="7.12494">
        <ele>1060</ele>
        <time>2019-04-27T11:13:13Z</time>
      </trkpt>
      <trkpt lat="43.79012" lon="7.12494">
        <ele>1060</ele>
        <time>2019-04-27T11:13:19Z</time>
      </trkpt>
      <trkpt lat="43.79012" lon="7.12494">
        <ele>1060</ele>
        <time>2019-04-27T11:13:25Z</time>
      </trkpt>
      <trkpt lat="43.79012" lon="7.12493">
        <ele>1060</ele>
        <time>2019-04-27T11:13:31Z</time>
      </trkpt>
      <trkpt lat="43.79013" lon="7.12493">
        <ele>1060</ele>
        <time>2019-04-27T11:13:37Z</time>
      </trkpt>
      <trkpt lat="43.79013" lon="7.12493">
        <ele>1060</ele>
        <time>2019-04-27T11:13:43Z</time>
      </trkpt>
      <trkpt lat="43.79015" lon="7.12492">
        <ele>1060</ele>
        <time>2019-04-27T11:13:49Z</time>
      </trkpt>
      <trkpt lat="43.79015" lon="7.12492">
        <ele>1060</ele>
        <time>2019-04-27T11:13:55Z</time>
      </trkpt>
      <trkpt lat="43.79016" lon="7.12492">
        <ele>1060</ele>
        <time>2019-04-27T11:14:01Z</time>
      </trkpt>
      <trkpt lat="43.79016" lon="7.12492">
        <ele>1060</ele>
        <time>2019-04-27T11:14:07Z</time>
      </trkpt>
      <trkpt lat="43.79017" lon="7.12492">
        <ele>1060</ele>
        <time>2019-04-27T11:14:13Z</time>
      </trkpt>
      <trkpt lat="43.7902" lon="7.12493">
        <ele>1059</ele>
        <time>2019-04-27T11:14:19Z</time>
      </trkpt>
      <trkpt lat="43.79022" lon="7.12492">
        <ele>1059</ele>
        <time>2019-04-27T11:14:25Z</time>
      </trkpt>
      <trkpt lat="43.79022" lon="7.12492">
        <ele>1059</ele>
        <time>2019-04-27T11:14:31Z</time>
      </trkpt>
      <trkpt lat="43.79023" lon="7.12493">
        <ele>1059</ele>
        <time>2019-04-27T11:14:37Z</time>
      </trkpt>
      <trkpt lat="43.79023" lon="7.12493">
        <ele>1059</ele>
        <time>2019-04-27T11:14:43Z</time>
      </trkpt>
      <trkpt lat="43.79022" lon="7.12494">
        <ele>1059</ele>
        <time>2019-04-27T11:14:49Z</time>
      </trkpt>
      <trkpt lat="43.79023" lon="7.12494">
        <ele>1059</ele>
        <time>2019-04-27T11:14:55Z</time>
      </trkpt>
      <trkpt lat="43.79023" lon="7.12495">
        <ele>1059</ele>
        <time>2019-04-27T11:15:01Z</time>
      </trkpt>
      <trkpt lat="43.79023" lon="7.12495">
        <ele>1059</ele>
        <time>2019-04-27T11:15:07Z</time>
      </trkpt>
      <trkpt lat="43.79023" lon="7.12495">
        <ele>1059</ele>
        <time>2019-04-27T11:15:13Z</time>
      </trkpt>
      <trkpt lat="43.79024" lon="7.12496">
        <ele>1059</ele>
        <time>2019-04-27T11:15:19Z</time>
      </trkpt>
      <trkpt lat="43.79024" lon="7.12496">
        <ele>1059</ele>
        <time>2019-04-27T11:15:25Z</time>
      </trkpt>
      <trkpt lat="43.79024" lon="7.12495">
        <ele>1059</ele>
        <time>2019-04-27T11:15:31Z</time>
      </trkpt>
      <trkpt lat="43.79026" lon="7.1249">
        <ele>1059</ele>
        <time>2019-04-27T11:15:37Z</time>
      </trkpt>
      <trkpt lat="43.79029" lon="7.12486">
        <ele>1060</ele>
        <time>2019-04-27T11:15:43Z</time>
      </trkpt>
      <trkpt lat="43.79034" lon="7.12488">
        <ele>1060</ele>
        <time>2019-04-27T11:15:49Z</time>
      </trkpt>
      <trkpt lat="43.79039" lon="7.12487">
        <ele>1059</ele>
        <time>2019-04-27T11:15:55Z</time>
      </trkpt>
      <trkpt lat="43.79041" lon="7.12486">
        <ele>1059</ele>
        <time>2019-04-27T11:16:01Z</time>
      </trkpt>
      <trkpt lat="43.79043" lon="7.12487">
        <ele>1059</ele>
        <time>2019-04-27T11:16:07Z</time>
      </trkpt>
      <trkpt lat="43.79044" lon="7.12487">
        <ele>1059</ele>
        <time>2019-04-27T11:16:13Z</time>
      </trkpt>
      <trkpt lat="43.79046" lon="7.12487">
        <ele>1059</ele>
        <time>2019-04-27T11:16:19Z</time>
      </trkpt>
      <trkpt lat="43.79049" lon="7.12487">
        <ele>1059</ele>
        <time>2019-04-27T11:16:25Z</time>
      </trkpt>
      <trkpt lat="43.7905" lon="7.12487">
        <ele>1059</ele>
        <time>2019-04-27T11:16:31Z</time>
      </trkpt>
      <trkpt lat="43.79051" lon="7.12488">
        <ele>1059</ele>
        <time>2019-04-27T11:16:37Z</time>
      </trkpt>
      <trkpt lat="43.79051" lon="7.12489">
        <ele>1058</ele>
        <time>2019-04-27T11:16:43Z</time>
      </trkpt>
      <trkpt lat="43.79052" lon="7.12494">
        <ele>1058</ele>
        <time>2019-04-27T11:16:49Z</time>
      </trkpt>
      <trkpt lat="43.79054" lon="7.12496">
        <ele>1058</ele>
        <time>2019-04-27T11:16:55Z</time>
      </trkpt>
      <trkpt lat="43.79058" lon="7.12497">
        <ele>1058</ele>
        <time>2019-04-27T11:17:01Z</time>
      </trkpt>
      <trkpt lat="43.7906" lon="7.12502">
        <ele>1057</ele>
        <time>2019-04-27T11:17:07Z</time>
      </trkpt>
      <trkpt lat="43.79059" lon="7.12508">
        <ele>1057</ele>
        <time>2019-04-27T11:17:13Z</time>
      </trkpt>
      <trkpt lat="43.79058" lon="7.12515">
        <ele>1056</ele>
        <time>2019-04-27T11:17:19Z</time>
      </trkpt>
      <trkpt lat="43.79058" lon="7.12516">
        <ele>1056</ele>
        <time>2019-04-27T11:17:25Z</time>
      </trkpt>
      <trkpt lat="43.79058" lon="7.12517">
        <ele>1056</ele>
        <time>2019-04-27T11:17:31Z</time>
      </trkpt>
      <trkpt lat="43.79058" lon="7.1252">
        <ele>1056</ele>
        <time>2019-04-27T11:17:37Z</time>
      </trkpt>
      <trkpt lat="43.79057" lon="7.12525">
        <ele>1056</ele>
        <time>2019-04-27T11:17:43Z</time>
      </trkpt>
      <trkpt lat="43.79061" lon="7.12528">
        <ele>1056</ele>
        <time>2019-04-27T11:17:49Z</time>
      </trkpt>
      <trkpt lat="43.79063" lon="7.12529">
        <ele>1055</ele>
        <time>2019-04-27T11:17:55Z</time>
      </trkpt>
      <trkpt lat="43.79065" lon="7.12531">
        <ele>1055</ele>
        <time>2019-04-27T11:18:01Z</time>
      </trkpt>
      <trkpt lat="43.79068" lon="7.12532">
        <ele>1055</ele>
        <time>2019-04-27T11:18:07Z</time>
      </trkpt>
      <trkpt lat="43.79072" lon="7.12526">
        <ele>1055</ele>
        <time>2019-04-27T11:18:13Z</time>
      </trkpt>
      <trkpt lat="43.79074" lon="7.12526">
        <ele>1054</ele>
        <time>2019-04-27T11:18:19Z</time>
      </trkpt>
      <trkpt lat="43.79078" lon="7.12525">
        <ele>1054</ele>
        <time>2019-04-27T11:18:25Z</time>
      </trkpt>
      <trkpt lat="43.79082" lon="7.1252">
        <ele>1054</ele>
        <time>2019-04-27T11:18:31Z</time>
      </trkpt>
      <trkpt lat="43.79083" lon="7.12519">
        <ele>1054</ele>
        <time>2019-04-27T11:18:37Z</time>
      </trkpt>
      <trkpt lat="43.79085" lon="7.12519">
        <ele>1054</ele>
        <time>2019-04-27T11:18:43Z</time>
      </trkpt>
      <trkpt lat="43.79089" lon="7.12522">
        <ele>1053</ele>
        <time>2019-04-27T11:18:49Z</time>
      </trkpt>
      <trkpt lat="43.79094" lon="7.12528">
        <ele>1051</ele>
        <time>2019-04-27T11:18:55Z</time>
      </trkpt>
      <trkpt lat="43.791" lon="7.12531">
        <ele>1050</ele>
        <time>2019-04-27T11:19:01Z</time>
      </trkpt>
      <trkpt lat="43.79106" lon="7.12533">
        <ele>1048</ele>
        <time>2019-04-27T11:19:07Z</time>
      </trkpt>
      <trkpt lat="43.7911" lon="7.12535">
        <ele>1048</ele>
        <time>2019-04-27T11:19:13Z</time>
      </trkpt>
      <trkpt lat="43.79113" lon="7.12537">
        <ele>1047</ele>
        <time>2019-04-27T11:19:19Z</time>
      </trkpt>
      <trkpt lat="43.79116" lon="7.1254">
        <ele>1047</ele>
        <time>2019-04-27T11:19:25Z</time>
      </trkpt>
      <trkpt lat="43.7912" lon="7.12543">
        <ele>1045</ele>
        <time>2019-04-27T11:19:31Z</time>
      </trkpt>
      <trkpt lat="43.79122" lon="7.12546">
        <ele>1045</ele>
        <time>2019-04-27T11:19:37Z</time>
      </trkpt>
      <trkpt lat="43.79124" lon="7.12546">
        <ele>1044</ele>
        <time>2019-04-27T11:19:43Z</time>
      </trkpt>
      <trkpt lat="43.79126" lon="7.12548">
        <ele>1044</ele>
        <time>2019-04-27T11:19:49Z</time>
      </trkpt>
      <trkpt lat="43.79126" lon="7.12548">
        <ele>1044</ele>
        <time>2019-04-27T11:19:55Z</time>
      </trkpt>
      <trkpt lat="43.79126" lon="7.12551">
        <ele>1043</ele>
        <time>2019-04-27T11:20:01Z</time>
      </trkpt>
      <trkpt lat="43.7913" lon="7.12557">
        <ele>1043</ele>
        <time>2019-04-27T11:20:07Z</time>
      </trkpt>
      <trkpt lat="43.79136" lon="7.12558">
        <ele>1042</ele>
        <time>2019-04-27T11:20:13Z</time>
      </trkpt>
      <trkpt lat="43.79141" lon="7.12558">
        <ele>1042</ele>
        <time>2019-04-27T11:20:19Z</time>
      </trkpt>
      <trkpt lat="43.79145" lon="7.12556">
        <ele>1042</ele>
        <time>2019-04-27T11:20:25Z</time>
      </trkpt>
      <trkpt lat="43.7915" lon="7.12555">
        <ele>1041</ele>
        <time>2019-04-27T11:20:31Z</time>
      </trkpt>
      <trkpt lat="43.79154" lon="7.12555">
        <ele>1041</ele>
        <time>2019-04-27T11:20:37Z</time>
      </trkpt>
      <trkpt lat="43.79159" lon="7.12556">
        <ele>1041</ele>
        <time>2019-04-27T11:20:43Z</time>
      </trkpt>
      <trkpt lat="43.79162" lon="7.12554">
        <ele>1040</ele>
        <time>2019-04-27T11:20:49Z</time>
      </trkpt>
      <trkpt lat="43.79167" lon="7.12552">
        <ele>1040</ele>
        <time>2019-04-27T11:20:55Z</time>
      </trkpt>
      <trkpt lat="43.79173" lon="7.12553">
        <ele>1040</ele>
        <time>2019-04-27T11:21:01Z</time>
      </trkpt>
      <trkpt lat="43.79177" lon="7.12551">
        <ele>1040</ele>
        <time>2019-04-27T11:21:07Z</time>
      </trkpt>
      <trkpt lat="43.79181" lon="7.1255">
        <ele>1039</ele>
        <time>2019-04-27T11:21:13Z</time>
      </trkpt>
      <trkpt lat="43.79186" lon="7.12551">
        <ele>1038</ele>
        <time>2019-04-27T11:21:19Z</time>
      </trkpt>
      <trkpt lat="43.79191" lon="7.12545">
        <ele>1039</ele>
        <time>2019-04-27T11:21:25Z</time>
      </trkpt>
      <trkpt lat="43.79193" lon="7.12543">
        <ele>1038</ele>
        <time>2019-04-27T11:21:31Z</time>
      </trkpt>
      <trkpt lat="43.79197" lon="7.12546">
        <ele>1038</ele>
        <time>2019-04-27T11:21:37Z</time>
      </trkpt>
      <trkpt lat="43.79201" lon="7.12546">
        <ele>1037</ele>
        <time>2019-04-27T11:21:43Z</time>
      </trkpt>
      <trkpt lat="43.79204" lon="7.12547">
        <ele>1036</ele>
        <time>2019-04-27T11:21:49Z</time>
      </trkpt>
      <trkpt lat="43.79205" lon="7.12546">
        <ele>1036</ele>
        <time>2019-04-27T11:21:55Z</time>
      </trkpt>
      <trkpt lat="43.79207" lon="7.12544">
        <ele>1036</ele>
        <time>2019-04-27T11:22:01Z</time>
      </trkpt>
      <trkpt lat="43.7921" lon="7.12544">
        <ele>1036</ele>
        <time>2019-04-27T11:22:07Z</time>
      </trkpt>
      <trkpt lat="43.79212" lon="7.12543">
        <ele>1035</ele>
        <time>2019-04-27T11:22:13Z</time>
      </trkpt>
      <trkpt lat="43.79214" lon="7.12542">
        <ele>1035</ele>
        <time>2019-04-27T11:22:19Z</time>
      </trkpt>
      <trkpt lat="43.79217" lon="7.12542">
        <ele>1033</ele>
        <time>2019-04-27T11:22:25Z</time>
      </trkpt>
      <trkpt lat="43.79221" lon="7.12544">
        <ele>1033</ele>
        <time>2019-04-27T11:22:31Z</time>
      </trkpt>
      <trkpt lat="43.79223" lon="7.12546">
        <ele>1032</ele>
        <time>2019-04-27T11:22:37Z</time>
      </trkpt>
      <trkpt lat="43.79226" lon="7.12549">
        <ele>1032</ele>
        <time>2019-04-27T11:22:43Z</time>
      </trkpt>
      <trkpt lat="43.79228" lon="7.12553">
        <ele>1032</ele>
        <time>2019-04-27T11:22:49Z</time>
      </trkpt>
      <trkpt lat="43.79232" lon="7.12554">
        <ele>1031</ele>
        <time>2019-04-27T11:22:55Z</time>
      </trkpt>
      <trkpt lat="43.79234" lon="7.12556">
        <ele>1031</ele>
        <time>2019-04-27T11:23:01Z</time>
      </trkpt>
      <trkpt lat="43.79237" lon="7.12562">
        <ele>1029</ele>
        <time>2019-04-27T11:23:07Z</time>
      </trkpt>
      <trkpt lat="43.79241" lon="7.12563">
        <ele>1029</ele>
        <time>2019-04-27T11:23:13Z</time>
      </trkpt>
      <trkpt lat="43.79242" lon="7.12565">
        <ele>1028</ele>
        <time>2019-04-27T11:23:19Z</time>
      </trkpt>
      <trkpt lat="43.79243" lon="7.12565">
        <ele>1028</ele>
        <time>2019-04-27T11:23:25Z</time>
      </trkpt>
      <trkpt lat="43.79248" lon="7.12568">
        <ele>1027</ele>
        <time>2019-04-27T11:23:31Z</time>
      </trkpt>
      <trkpt lat="43.79253" lon="7.12569">
        <ele>1027</ele>
        <time>2019-04-27T11:23:37Z</time>
      </trkpt>
      <trkpt lat="43.79257" lon="7.12572">
        <ele>1026</ele>
        <time>2019-04-27T11:23:43Z</time>
      </trkpt>
      <trkpt lat="43.7926" lon="7.12574">
        <ele>1025</ele>
        <time>2019-04-27T11:23:49Z</time>
      </trkpt>
      <trkpt lat="43.79261" lon="7.12577">
        <ele>1025</ele>
        <time>2019-04-27T11:23:55Z</time>
      </trkpt>
      <trkpt lat="43.79265" lon="7.12579">
        <ele>1025</ele>
        <time>2019-04-27T11:24:01Z</time>
      </trkpt>
      <trkpt lat="43.79267" lon="7.12579">
        <ele>1024</ele>
        <time>2019-04-27T11:24:07Z</time>
      </trkpt>
      <trkpt lat="43.79267" lon="7.1258">
        <ele>1024</ele>
        <time>2019-04-27T11:24:13Z</time>
      </trkpt>
      <trkpt lat="43.79267" lon="7.1258">
        <ele>1024</ele>
        <time>2019-04-27T11:24:19Z</time>
      </trkpt>
      <trkpt lat="43.79268" lon="7.12579">
        <ele>1024</ele>
        <time>2019-04-27T11:24:25Z</time>
      </trkpt>
      <trkpt lat="43.79268" lon="7.12581">
        <ele>1024</ele>
        <time>2019-04-27T11:24:31Z</time>
      </trkpt>
      <trkpt lat="43.79267" lon="7.12582">
        <ele>1024</ele>
        <time>2019-04-27T11:24:37Z</time>
      </trkpt>
      <trkpt lat="43.79267" lon="7.12584">
        <ele>1024</ele>
        <time>2019-04-27T11:24:43Z</time>
      </trkpt>
      <trkpt lat="43.79267" lon="7.12585">
        <ele>1024</ele>
        <time>2019-04-27T11:24:49Z</time>
      </trkpt>
      <trkpt lat="43.79267" lon="7.12584">
        <ele>1024</ele>
        <time>2019-04-27T11:24:55Z</time>
      </trkpt>
      <trkpt lat="43.79267" lon="7.12584">
        <ele>1024</ele>
        <time>2019-04-27T11:25:01Z</time>
      </trkpt>
      <trkpt lat="43.79267" lon="7.12586">
        <ele>1024</ele>
        <time>2019-04-27T11:25:07Z</time>
      </trkpt>
      <trkpt lat="43.79265" lon="7.12591">
        <ele>1025</ele>
        <time>2019-04-27T11:25:13Z</time>
      </trkpt>
      <trkpt lat="43.79265" lon="7.12596">
        <ele>1024</ele>
        <time>2019-04-27T11:25:19Z</time>
      </trkpt>
      <trkpt lat="43.79265" lon="7.12598">
        <ele>1024</ele>
        <time>2019-04-27T11:25:25Z</time>
      </trkpt>
      <trkpt lat="43.79263" lon="7.12605">
        <ele>1024</ele>
        <time>2019-04-27T11:25:31Z</time>
      </trkpt>
      <trkpt lat="43.79261" lon="7.12612">
        <ele>1024</ele>
        <time>2019-04-27T11:25:37Z</time>
      </trkpt>
      <trkpt lat="43.79261" lon="7.12617">
        <ele>1024</ele>
        <time>2019-04-27T11:25:43Z</time>
      </trkpt>
      <trkpt lat="43.79261" lon="7.12621">
        <ele>1024</ele>
        <time>2019-04-27T11:25:49Z</time>
      </trkpt>
      <trkpt lat="43.7926" lon="7.12625">
        <ele>1024</ele>
        <time>2019-04-27T11:25:55Z</time>
      </trkpt>
      <trkpt lat="43.79259" lon="7.12628">
        <ele>1024</ele>
        <time>2019-04-27T11:26:01Z</time>
      </trkpt>
      <trkpt lat="43.79259" lon="7.12625">
        <ele>1025</ele>
        <time>2019-04-27T11:26:07Z</time>
      </trkpt>
      <trkpt lat="43.79258" lon="7.12622">
        <ele>1025</ele>
        <time>2019-04-27T11:26:13Z</time>
      </trkpt>
      <trkpt lat="43.79259" lon="7.12621">
        <ele>1025</ele>
        <time>2019-04-27T11:26:19Z</time>
      </trkpt>
      <trkpt lat="43.79259" lon="7.12621">
        <ele>1025</ele>
        <time>2019-04-27T11:26:25Z</time>
      </trkpt>
      <trkpt lat="43.79259" lon="7.1262">
        <ele>1025</ele>
        <time>2019-04-27T11:26:31Z</time>
      </trkpt>
      <trkpt lat="43.79259" lon="7.12621">
        <ele>1025</ele>
        <time>2019-04-27T11:26:37Z</time>
      </trkpt>
      <trkpt lat="43.79259" lon="7.12621">
        <ele>1025</ele>
        <time>2019-04-27T11:26:43Z</time>
      </trkpt>
      <trkpt lat="43.79259" lon="7.1262">
        <ele>1025</ele>
        <time>2019-04-27T11:26:49Z</time>
      </trkpt>
      <trkpt lat="43.79259" lon="7.12621">
        <ele>1025</ele>
        <time>2019-04-27T11:26:55Z</time>
      </trkpt>
      <trkpt lat="43.79258" lon="7.12624">
        <ele>1025</ele>
        <time>2019-04-27T11:27:01Z</time>
      </trkpt>
      <trkpt lat="43.79257" lon="7.12635">
        <ele>1024</ele>
        <time>2019-04-27T11:27:07Z</time>
      </trkpt>
      <trkpt lat="43.79255" lon="7.12647">
        <ele>1023</ele>
        <time>2019-04-27T11:27:13Z</time>
      </trkpt>
      <trkpt lat="43.79252" lon="7.12657">
        <ele>1023</ele>
        <time>2019-04-27T11:27:19Z</time>
      </trkpt>
      <trkpt lat="43.79251" lon="7.12666">
        <ele>1022</ele>
        <time>2019-04-27T11:27:25Z</time>
      </trkpt>
      <trkpt lat="43.79249" lon="7.12674">
        <ele>1021</ele>
        <time>2019-04-27T11:27:31Z</time>
      </trkpt>
      <trkpt lat="43.79248" lon="7.12682">
        <ele>1020</ele>
        <time>2019-04-27T11:27:37Z</time>
      </trkpt>
      <trkpt lat="43.79246" lon="7.12691">
        <ele>1020</ele>
        <time>2019-04-27T11:27:43Z</time>
      </trkpt>
      <trkpt lat="43.79247" lon="7.12701">
        <ele>1019</ele>
        <time>2019-04-27T11:27:49Z</time>
      </trkpt>
      <trkpt lat="43.79248" lon="7.12708">
        <ele>1018</ele>
        <time>2019-04-27T11:27:55Z</time>
      </trkpt>
      <trkpt lat="43.79252" lon="7.12715">
        <ele>1017</ele>
        <time>2019-04-27T11:28:01Z</time>
      </trkpt>
      <trkpt lat="43.79258" lon="7.12722">
        <ele>1016</ele>
        <time>2019-04-27T11:28:07Z</time>
      </trkpt>
      <trkpt lat="43.79262" lon="7.12729">
        <ele>1016</ele>
        <time>2019-04-27T11:28:13Z</time>
      </trkpt>
      <trkpt lat="43.79266" lon="7.12734">
        <ele>1015</ele>
        <time>2019-04-27T11:28:19Z</time>
      </trkpt>
      <trkpt lat="43.7927" lon="7.1274">
        <ele>1014</ele>
        <time>2019-04-27T11:28:25Z</time>
      </trkpt>
      <trkpt lat="43.79274" lon="7.12747">
        <ele>1013</ele>
        <time>2019-04-27T11:28:31Z</time>
      </trkpt>
      <trkpt lat="43.79276" lon="7.12749">
        <ele>1013</ele>
        <time>2019-04-27T11:28:37Z</time>
      </trkpt>
      <trkpt lat="43.79277" lon="7.1275">
        <ele>1013</ele>
        <time>2019-04-27T11:28:43Z</time>
      </trkpt>
      <trkpt lat="43.79282" lon="7.12752">
        <ele>1013</ele>
        <time>2019-04-27T11:28:49Z</time>
      </trkpt>
      <trkpt lat="43.79288" lon="7.12753">
        <ele>1013</ele>
        <time>2019-04-27T11:28:55Z</time>
      </trkpt>
      <trkpt lat="43.79292" lon="7.12754">
        <ele>1013</ele>
        <time>2019-04-27T11:29:01Z</time>
      </trkpt>
      <trkpt lat="43.79294" lon="7.12757">
        <ele>1013</ele>
        <time>2019-04-27T11:29:07Z</time>
      </trkpt>
      <trkpt lat="43.79295" lon="7.12758">
        <ele>1013</ele>
        <time>2019-04-27T11:29:13Z</time>
      </trkpt>
      <trkpt lat="43.79293" lon="7.12764">
        <ele>1012</ele>
        <time>2019-04-27T11:29:19Z</time>
      </trkpt>
      <trkpt lat="43.79293" lon="7.12771">
        <ele>1012</ele>
        <time>2019-04-27T11:29:25Z</time>
      </trkpt>
      <trkpt lat="43.79292" lon="7.12778">
        <ele>1011</ele>
        <time>2019-04-27T11:29:31Z</time>
      </trkpt>
      <trkpt lat="43.79292" lon="7.12787">
        <ele>1010</ele>
        <time>2019-04-27T11:29:37Z</time>
      </trkpt>
      <trkpt lat="43.79291" lon="7.12794">
        <ele>1010</ele>
        <time>2019-04-27T11:29:43Z</time>
      </trkpt>
      <trkpt lat="43.79291" lon="7.12802">
        <ele>1009</ele>
        <time>2019-04-27T11:29:49Z</time>
      </trkpt>
      <trkpt lat="43.7929" lon="7.12811">
        <ele>1007</ele>
        <time>2019-04-27T11:29:55Z</time>
      </trkpt>
      <trkpt lat="43.7929" lon="7.12817">
        <ele>1006</ele>
        <time>2019-04-27T11:30:01Z</time>
      </trkpt>
      <trkpt lat="43.7929" lon="7.12825">
        <ele>1005</ele>
        <time>2019-04-27T11:30:07Z</time>
      </trkpt>
      <trkpt lat="43.79289" lon="7.12831">
        <ele>1005</ele>
        <time>2019-04-27T11:30:13Z</time>
      </trkpt>
      <trkpt lat="43.79288" lon="7.12838">
        <ele>1004</ele>
        <time>2019-04-27T11:30:19Z</time>
      </trkpt>
      <trkpt lat="43.79285" lon="7.12846">
        <ele>1004</ele>
        <time>2019-04-27T11:30:25Z</time>
      </trkpt>
      <trkpt lat="43.79283" lon="7.12853">
        <ele>1002</ele>
        <time>2019-04-27T11:30:31Z</time>
      </trkpt>
      <trkpt lat="43.79282" lon="7.1286">
        <ele>1001</ele>
        <time>2019-04-27T11:30:37Z</time>
      </trkpt>
      <trkpt lat="43.79281" lon="7.12868">
        <ele>1000</ele>
        <time>2019-04-27T11:30:43Z</time>
      </trkpt>
      <trkpt lat="43.7928" lon="7.12876">
        <ele>999</ele>
        <time>2019-04-27T11:30:49Z</time>
      </trkpt>
      <trkpt lat="43.79279" lon="7.12884">
        <ele>998</ele>
        <time>2019-04-27T11:30:55Z</time>
      </trkpt>
      <trkpt lat="43.7928" lon="7.12893">
        <ele>997</ele>
        <time>2019-04-27T11:31:01Z</time>
      </trkpt>
      <trkpt lat="43.79276" lon="7.12896">
        <ele>996</ele>
        <time>2019-04-27T11:31:07Z</time>
      </trkpt>
      <trkpt lat="43.79272" lon="7.12898">
        <ele>994</ele>
        <time>2019-04-27T11:31:13Z</time>
      </trkpt>
      <trkpt lat="43.79268" lon="7.12896">
        <ele>994</ele>
        <time>2019-04-27T11:31:19Z</time>
      </trkpt>
      <trkpt lat="43.79263" lon="7.12892">
        <ele>994</ele>
        <time>2019-04-27T11:31:25Z</time>
      </trkpt>
      <trkpt lat="43.7926" lon="7.12889">
        <ele>994</ele>
        <time>2019-04-27T11:31:31Z</time>
      </trkpt>
      <trkpt lat="43.79255" lon="7.1289">
        <ele>993</ele>
        <time>2019-04-27T11:31:37Z</time>
      </trkpt>
      <trkpt lat="43.79251" lon="7.1289">
        <ele>991</ele>
        <time>2019-04-27T11:31:43Z</time>
      </trkpt>
      <trkpt lat="43.79245" lon="7.12891">
        <ele>990</ele>
        <time>2019-04-27T11:31:49Z</time>
      </trkpt>
      <trkpt lat="43.7924" lon="7.12892">
        <ele>989</ele>
        <time>2019-04-27T11:31:55Z</time>
      </trkpt>
      <trkpt lat="43.79235" lon="7.12894">
        <ele>986</ele>
        <time>2019-04-27T11:32:01Z</time>
      </trkpt>
      <trkpt lat="43.79232" lon="7.12897">
        <ele>986</ele>
        <time>2019-04-27T11:32:07Z</time>
      </trkpt>
      <trkpt lat="43.79233" lon="7.12904">
        <ele>985</ele>
        <time>2019-04-27T11:32:13Z</time>
      </trkpt>
      <trkpt lat="43.79239" lon="7.12908">
        <ele>986</ele>
        <time>2019-04-27T11:32:19Z</time>
      </trkpt>
      <trkpt lat="43.79243" lon="7.12911">
        <ele>986</ele>
        <time>2019-04-27T11:32:25Z</time>
      </trkpt>
      <trkpt lat="43.79249" lon="7.12914">
        <ele>988</ele>
        <time>2019-04-27T11:32:31Z</time>
      </trkpt>
      <trkpt lat="43.7925" lon="7.12921">
        <ele>986</ele>
        <time>2019-04-27T11:32:37Z</time>
      </trkpt>
      <trkpt lat="43.79251" lon="7.12928">
        <ele>985</ele>
        <time>2019-04-27T11:32:43Z</time>
      </trkpt>
      <trkpt lat="43.79249" lon="7.12933">
        <ele>985</ele>
        <time>2019-04-27T11:32:49Z</time>
      </trkpt>
      <trkpt lat="43.79245" lon="7.12935">
        <ele>984</ele>
        <time>2019-04-27T11:32:55Z</time>
      </trkpt>
      <trkpt lat="43.79242" lon="7.12937">
        <ele>982</ele>
        <time>2019-04-27T11:33:01Z</time>
      </trkpt>
      <trkpt lat="43.79237" lon="7.12941">
        <ele>981</ele>
        <time>2019-04-27T11:33:07Z</time>
      </trkpt>
      <trkpt lat="43.79234" lon="7.12944">
        <ele>980</ele>
        <time>2019-04-27T11:33:13Z</time>
      </trkpt>
      <trkpt lat="43.79232" lon="7.12948">
        <ele>978</ele>
        <time>2019-04-27T11:33:19Z</time>
      </trkpt>
      <trkpt lat="43.7923" lon="7.12954">
        <ele>977</ele>
        <time>2019-04-27T11:33:25Z</time>
      </trkpt>
      <trkpt lat="43.79229" lon="7.12961">
        <ele>977</ele>
        <time>2019-04-27T11:33:31Z</time>
      </trkpt>
      <trkpt lat="43.79229" lon="7.12969">
        <ele>976</ele>
        <time>2019-04-27T11:33:37Z</time>
      </trkpt>
      <trkpt lat="43.7923" lon="7.12977">
        <ele>975</ele>
        <time>2019-04-27T11:33:43Z</time>
      </trkpt>
      <trkpt lat="43.79233" lon="7.12983">
        <ele>974</ele>
        <time>2019-04-27T11:33:49Z</time>
      </trkpt>
      <trkpt lat="43.79235" lon="7.12991">
        <ele>974</ele>
        <time>2019-04-27T11:33:55Z</time>
      </trkpt>
      <trkpt lat="43.79237" lon="7.12997">
        <ele>973</ele>
        <time>2019-04-27T11:34:01Z</time>
      </trkpt>
      <trkpt lat="43.79237" lon="7.13003">
        <ele>973</ele>
        <time>2019-04-27T11:34:07Z</time>
      </trkpt>
      <trkpt lat="43.79238" lon="7.13009">
        <ele>972</ele>
        <time>2019-04-27T11:34:13Z</time>
      </trkpt>
      <trkpt lat="43.7924" lon="7.13015">
        <ele>971</ele>
        <time>2019-04-27T11:34:19Z</time>
      </trkpt>
      <trkpt lat="43.7924" lon="7.1302">
        <ele>971</ele>
        <time>2019-04-27T11:34:25Z</time>
      </trkpt>
      <trkpt lat="43.7924" lon="7.13028">
        <ele>970</ele>
        <time>2019-04-27T11:34:31Z</time>
      </trkpt>
      <trkpt lat="43.79238" lon="7.13037">
        <ele>970</ele>
        <time>2019-04-27T11:34:37Z</time>
      </trkpt>
      <trkpt lat="43.79237" lon="7.13044">
        <ele>969</ele>
        <time>2019-04-27T11:34:43Z</time>
      </trkpt>
      <trkpt lat="43.79234" lon="7.13048">
        <ele>968</ele>
        <time>2019-04-27T11:34:49Z</time>
      </trkpt>
      <trkpt lat="43.79229" lon="7.13051">
        <ele>968</ele>
        <time>2019-04-27T11:34:55Z</time>
      </trkpt>
      <trkpt lat="43.79224" lon="7.13055">
        <ele>967</ele>
        <time>2019-04-27T11:35:01Z</time>
      </trkpt>
      <trkpt lat="43.79219" lon="7.13057">
        <ele>965</ele>
        <time>2019-04-27T11:35:07Z</time>
      </trkpt>
      <trkpt lat="43.79212" lon="7.13059">
        <ele>964</ele>
        <time>2019-04-27T11:35:13Z</time>
      </trkpt>
      <trkpt lat="43.79206" lon="7.13061">
        <ele>963</ele>
        <time>2019-04-27T11:35:19Z</time>
      </trkpt>
      <trkpt lat="43.79201" lon="7.13063">
        <ele>962</ele>
        <time>2019-04-27T11:35:25Z</time>
      </trkpt>
      <trkpt lat="43.79197" lon="7.13062">
        <ele>961</ele>
        <time>2019-04-27T11:35:31Z</time>
      </trkpt>
      <trkpt lat="43.79192" lon="7.1306">
        <ele>961</ele>
        <time>2019-04-27T11:35:37Z</time>
      </trkpt>
      <trkpt lat="43.79188" lon="7.13063">
        <ele>959</ele>
        <time>2019-04-27T11:35:43Z</time>
      </trkpt>
      <trkpt lat="43.79184" lon="7.13068">
        <ele>958</ele>
        <time>2019-04-27T11:35:49Z</time>
      </trkpt>
      <trkpt lat="43.79181" lon="7.13073">
        <ele>958</ele>
        <time>2019-04-27T11:35:55Z</time>
      </trkpt>
      <trkpt lat="43.79178" lon="7.13079">
        <ele>957</ele>
        <time>2019-04-27T11:36:01Z</time>
      </trkpt>
      <trkpt lat="43.79174" lon="7.1308">
        <ele>957</ele>
        <time>2019-04-27T11:36:07Z</time>
      </trkpt>
      <trkpt lat="43.79167" lon="7.1308">
        <ele>956</ele>
        <time>2019-04-27T11:36:13Z</time>
      </trkpt>
      <trkpt lat="43.79162" lon="7.13078">
        <ele>955</ele>
        <time>2019-04-27T11:36:19Z</time>
      </trkpt>
      <trkpt lat="43.79154" lon="7.13081">
        <ele>954</ele>
        <time>2019-04-27T11:36:25Z</time>
      </trkpt>
      <trkpt lat="43.79149" lon="7.13084">
        <ele>952</ele>
        <time>2019-04-27T11:36:31Z</time>
      </trkpt>
      <trkpt lat="43.79144" lon="7.13089">
        <ele>951</ele>
        <time>2019-04-27T11:36:37Z</time>
      </trkpt>
      <trkpt lat="43.79139" lon="7.13093">
        <ele>950</ele>
        <time>2019-04-27T11:36:43Z</time>
      </trkpt>
      <trkpt lat="43.79135" lon="7.13097">
        <ele>948</ele>
        <time>2019-04-27T11:36:49Z</time>
      </trkpt>
      <trkpt lat="43.79131" lon="7.13105">
        <ele>948</ele>
        <time>2019-04-27T11:36:55Z</time>
      </trkpt>
      <trkpt lat="43.79128" lon="7.13113">
        <ele>947</ele>
        <time>2019-04-27T11:37:01Z</time>
      </trkpt>
      <trkpt lat="43.79125" lon="7.13119">
        <ele>946</ele>
        <time>2019-04-27T11:37:07Z</time>
      </trkpt>
      <trkpt lat="43.79123" lon="7.1312">
        <ele>945</ele>
        <time>2019-04-27T11:37:13Z</time>
      </trkpt>
      <trkpt lat="43.79123" lon="7.1312">
        <ele>946</ele>
        <time>2019-04-27T11:37:19Z</time>
      </trkpt>
      <trkpt lat="43.79124" lon="7.13121">
        <ele>946</ele>
        <time>2019-04-27T11:37:25Z</time>
      </trkpt>
      <trkpt lat="43.79123" lon="7.13123">
        <ele>945</ele>
        <time>2019-04-27T11:37:31Z</time>
      </trkpt>
      <trkpt lat="43.79119" lon="7.1313">
        <ele>945</ele>
        <time>2019-04-27T11:37:37Z</time>
      </trkpt>
      <trkpt lat="43.79116" lon="7.13138">
        <ele>944</ele>
        <time>2019-04-27T11:37:43Z</time>
      </trkpt>
      <trkpt lat="43.79117" lon="7.13142">
        <ele>944</ele>
        <time>2019-04-27T11:37:49Z</time>
      </trkpt>
      <trkpt lat="43.79117" lon="7.13146">
        <ele>944</ele>
        <time>2019-04-27T11:37:55Z</time>
      </trkpt>
      <trkpt lat="43.79115" lon="7.13154">
        <ele>944</ele>
        <time>2019-04-27T11:38:01Z</time>
      </trkpt>
      <trkpt lat="43.79113" lon="7.13162">
        <ele>944</ele>
        <time>2019-04-27T11:38:07Z</time>
      </trkpt>
      <trkpt lat="43.7911" lon="7.13168">
        <ele>943</ele>
        <time>2019-04-27T11:38:13Z</time>
      </trkpt>
      <trkpt lat="43.79109" lon="7.13177">
        <ele>943</ele>
        <time>2019-04-27T11:38:19Z</time>
      </trkpt>
      <trkpt lat="43.79107" lon="7.13185">
        <ele>943</ele>
        <time>2019-04-27T11:38:25Z</time>
      </trkpt>
      <trkpt lat="43.79105" lon="7.13192">
        <ele>943</ele>
        <time>2019-04-27T11:38:31Z</time>
      </trkpt>
      <trkpt lat="43.79102" lon="7.132">
        <ele>942</ele>
        <time>2019-04-27T11:38:37Z</time>
      </trkpt>
      <trkpt lat="43.79098" lon="7.13207">
        <ele>942</ele>
        <time>2019-04-27T11:38:43Z</time>
      </trkpt>
      <trkpt lat="43.79095" lon="7.13215">
        <ele>942</ele>
        <time>2019-04-27T11:38:49Z</time>
      </trkpt>
      <trkpt lat="43.79094" lon="7.13223">
        <ele>942</ele>
        <time>2019-04-27T11:38:55Z</time>
      </trkpt>
      <trkpt lat="43.79093" lon="7.1323">
        <ele>943</ele>
        <time>2019-04-27T11:39:01Z</time>
      </trkpt>
      <trkpt lat="43.7909" lon="7.13237">
        <ele>942</ele>
        <time>2019-04-27T11:39:07Z</time>
      </trkpt>
      <trkpt lat="43.79088" lon="7.13244">
        <ele>942</ele>
        <time>2019-04-27T11:39:13Z</time>
      </trkpt>
      <trkpt lat="43.79085" lon="7.1325">
        <ele>942</ele>
        <time>2019-04-27T11:39:19Z</time>
      </trkpt>
      <trkpt lat="43.79081" lon="7.13258">
        <ele>943</ele>
        <time>2019-04-27T11:39:25Z</time>
      </trkpt>
      <trkpt lat="43.79079" lon="7.13266">
        <ele>943</ele>
        <time>2019-04-27T11:39:31Z</time>
      </trkpt>
      <trkpt lat="43.79078" lon="7.13275">
        <ele>943</ele>
        <time>2019-04-27T11:39:37Z</time>
      </trkpt>
      <trkpt lat="43.79077" lon="7.13283">
        <ele>944</ele>
        <time>2019-04-27T11:39:43Z</time>
      </trkpt>
      <trkpt lat="43.79074" lon="7.13291">
        <ele>944</ele>
        <time>2019-04-27T11:39:49Z</time>
      </trkpt>
      <trkpt lat="43.79068" lon="7.13299">
        <ele>944</ele>
        <time>2019-04-27T11:39:55Z</time>
      </trkpt>
      <trkpt lat="43.79065" lon="7.13306">
        <ele>944</ele>
        <time>2019-04-27T11:40:01Z</time>
      </trkpt>
      <trkpt lat="43.79064" lon="7.13311">
        <ele>944</ele>
        <time>2019-04-27T11:40:07Z</time>
      </trkpt>
      <trkpt lat="43.79065" lon="7.13313">
        <ele>944</ele>
        <time>2019-04-27T11:40:13Z</time>
      </trkpt>
      <trkpt lat="43.79065" lon="7.13317">
        <ele>945</ele>
        <time>2019-04-27T11:40:19Z</time>
      </trkpt>
      <trkpt lat="43.79065" lon="7.13323">
        <ele>945</ele>
        <time>2019-04-27T11:40:25Z</time>
      </trkpt>
      <trkpt lat="43.79063" lon="7.13327">
        <ele>945</ele>
        <time>2019-04-27T11:40:31Z</time>
      </trkpt>
      <trkpt lat="43.79061" lon="7.13333">
        <ele>946</ele>
        <time>2019-04-27T11:40:37Z</time>
      </trkpt>
      <trkpt lat="43.79059" lon="7.13338">
        <ele>946</ele>
        <time>2019-04-27T11:40:43Z</time>
      </trkpt>
      <trkpt lat="43.79057" lon="7.13344">
        <ele>946</ele>
        <time>2019-04-27T11:40:49Z</time>
      </trkpt>
      <trkpt lat="43.79054" lon="7.13352">
        <ele>947</ele>
        <time>2019-04-27T11:40:55Z</time>
      </trkpt>
      <trkpt lat="43.7905" lon="7.13357">
        <ele>947</ele>
        <time>2019-04-27T11:41:01Z</time>
      </trkpt>
      <trkpt lat="43.79048" lon="7.13365">
        <ele>948</ele>
        <time>2019-04-27T11:41:07Z</time>
      </trkpt>
      <trkpt lat="43.79049" lon="7.13366">
        <ele>948</ele>
        <time>2019-04-27T11:41:13Z</time>
      </trkpt>
      <trkpt lat="43.79049" lon="7.13367">
        <ele>948</ele>
        <time>2019-04-27T11:41:19Z</time>
      </trkpt>
      <trkpt lat="43.79049" lon="7.13367">
        <ele>948</ele>
        <time>2019-04-27T11:41:25Z</time>
      </trkpt>
      <trkpt lat="43.79049" lon="7.13367">
        <ele>948</ele>
        <time>2019-04-27T11:41:31Z</time>
      </trkpt>
      <trkpt lat="43.79049" lon="7.13367">
        <ele>948</ele>
        <time>2019-04-27T11:41:37Z</time>
      </trkpt>
      <trkpt lat="43.79049" lon="7.13367">
        <ele>948</ele>
        <time>2019-04-27T11:41:43Z</time>
      </trkpt>
      <trkpt lat="43.79049" lon="7.13367">
        <ele>948</ele>
        <time>2019-04-27T11:41:49Z</time>
      </trkpt>
      <trkpt lat="43.79049" lon="7.13368">
        <ele>948</ele>
        <time>2019-04-27T11:41:55Z</time>
      </trkpt>
      <trkpt lat="43.79049" lon="7.13368">
        <ele>948</ele>
        <time>2019-04-27T11:42:01Z</time>
      </trkpt>
      <trkpt lat="43.79049" lon="7.13368">
        <ele>948</ele>
        <time>2019-04-27T11:42:07Z</time>
      </trkpt>
      <trkpt lat="43.79049" lon="7.13369">
        <ele>948</ele>
        <time>2019-04-27T11:42:13Z</time>
      </trkpt>
      <trkpt lat="43.79048" lon="7.13369">
        <ele>948</ele>
        <time>2019-04-27T11:42:19Z</time>
      </trkpt>
      <trkpt lat="43.79048" lon="7.13369">
        <ele>948</ele>
        <time>2019-04-27T11:42:25Z</time>
      </trkpt>
      <trkpt lat="43.79048" lon="7.13369">
        <ele>948</ele>
        <time>2019-04-27T11:42:31Z</time>
      </trkpt>
      <trkpt lat="43.79049" lon="7.13368">
        <ele>948</ele>
        <time>2019-04-27T11:42:37Z</time>
      </trkpt>
      <trkpt lat="43.79049" lon="7.13371">
        <ele>948</ele>
        <time>2019-04-27T11:42:43Z</time>
      </trkpt>
      <trkpt lat="43.79048" lon="7.13375">
        <ele>948</ele>
        <time>2019-04-27T11:42:49Z</time>
      </trkpt>
      <trkpt lat="43.79047" lon="7.13384">
        <ele>949</ele>
        <time>2019-04-27T11:42:55Z</time>
      </trkpt>
      <trkpt lat="43.79046" lon="7.13393">
        <ele>949</ele>
        <time>2019-04-27T11:43:01Z</time>
      </trkpt>
      <trkpt lat="43.79044" lon="7.134">
        <ele>950</ele>
        <time>2019-04-27T11:43:07Z</time>
      </trkpt>
      <trkpt lat="43.79042" lon="7.13408">
        <ele>950</ele>
        <time>2019-04-27T11:43:13Z</time>
      </trkpt>
      <trkpt lat="43.7904" lon="7.13416">
        <ele>950</ele>
        <time>2019-04-27T11:43:19Z</time>
      </trkpt>
      <trkpt lat="43.79037" lon="7.13421">
        <ele>950</ele>
        <time>2019-04-27T11:43:25Z</time>
      </trkpt>
      <trkpt lat="43.79034" lon="7.13428">
        <ele>950</ele>
        <time>2019-04-27T11:43:31Z</time>
      </trkpt>
      <trkpt lat="43.79032" lon="7.13434">
        <ele>950</ele>
        <time>2019-04-27T11:43:37Z</time>
      </trkpt>
      <trkpt lat="43.7903" lon="7.13441">
        <ele>950</ele>
        <time>2019-04-27T11:43:43Z</time>
      </trkpt>
      <trkpt lat="43.79028" lon="7.13449">
        <ele>951</ele>
        <time>2019-04-27T11:43:49Z</time>
      </trkpt>
      <trkpt lat="43.79024" lon="7.13454">
        <ele>951</ele>
        <time>2019-04-27T11:43:55Z</time>
      </trkpt>
      <trkpt lat="43.79021" lon="7.13461">
        <ele>951</ele>
        <time>2019-04-27T11:44:01Z</time>
      </trkpt>
      <trkpt lat="43.79019" lon="7.13469">
        <ele>951</ele>
        <time>2019-04-27T11:44:07Z</time>
      </trkpt>
      <trkpt lat="43.79017" lon="7.13475">
        <ele>951</ele>
        <time>2019-04-27T11:44:13Z</time>
      </trkpt>
      <trkpt lat="43.79015" lon="7.13482">
        <ele>951</ele>
        <time>2019-04-27T11:44:19Z</time>
      </trkpt>
      <trkpt lat="43.79014" lon="7.13491">
        <ele>952</ele>
        <time>2019-04-27T11:44:25Z</time>
      </trkpt>
      <trkpt lat="43.79012" lon="7.13498">
        <ele>952</ele>
        <time>2019-04-27T11:44:31Z</time>
      </trkpt>
      <trkpt lat="43.79009" lon="7.13506">
        <ele>952</ele>
        <time>2019-04-27T11:44:37Z</time>
      </trkpt>
      <trkpt lat="43.79007" lon="7.13514">
        <ele>952</ele>
        <time>2019-04-27T11:44:43Z</time>
      </trkpt>
      <trkpt lat="43.79006" lon="7.13522">
        <ele>952</ele>
        <time>2019-04-27T11:44:49Z</time>
      </trkpt>
      <trkpt lat="43.79004" lon="7.13531">
        <ele>952</ele>
        <time>2019-04-27T11:44:55Z</time>
      </trkpt>
      <trkpt lat="43.79001" lon="7.1354">
        <ele>952</ele>
        <time>2019-04-27T11:45:01Z</time>
      </trkpt>
      <trkpt lat="43.78999" lon="7.13549">
        <ele>952</ele>
        <time>2019-04-27T11:45:07Z</time>
      </trkpt>
      <trkpt lat="43.78997" lon="7.13555">
        <ele>952</ele>
        <time>2019-04-27T11:45:13Z</time>
      </trkpt>
      <trkpt lat="43.78993" lon="7.13562">
        <ele>952</ele>
        <time>2019-04-27T11:45:19Z</time>
      </trkpt>
      <trkpt lat="43.78991" lon="7.13569">
        <ele>952</ele>
        <time>2019-04-27T11:45:25Z</time>
      </trkpt>
      <trkpt lat="43.78989" lon="7.13575">
        <ele>952</ele>
        <time>2019-04-27T11:45:31Z</time>
      </trkpt>
      <trkpt lat="43.78985" lon="7.13579">
        <ele>952</ele>
        <time>2019-04-27T11:45:37Z</time>
      </trkpt>
      <trkpt lat="43.78984" lon="7.13585">
        <ele>951</ele>
        <time>2019-04-27T11:45:43Z</time>
      </trkpt>
      <trkpt lat="43.78983" lon="7.13592">
        <ele>951</ele>
        <time>2019-04-27T11:45:49Z</time>
      </trkpt>
      <trkpt lat="43.78981" lon="7.136">
        <ele>951</ele>
        <time>2019-04-27T11:45:55Z</time>
      </trkpt>
      <trkpt lat="43.7898" lon="7.13607">
        <ele>951</ele>
        <time>2019-04-27T11:46:01Z</time>
      </trkpt>
      <trkpt lat="43.78979" lon="7.13613">
        <ele>951</ele>
        <time>2019-04-27T11:46:07Z</time>
      </trkpt>
      <trkpt lat="43.78978" lon="7.13619">
        <ele>951</ele>
        <time>2019-04-27T11:46:13Z</time>
      </trkpt>
      <trkpt lat="43.78977" lon="7.13624">
        <ele>950</ele>
        <time>2019-04-27T11:46:19Z</time>
      </trkpt>
      <trkpt lat="43.78974" lon="7.13631">
        <ele>950</ele>
        <time>2019-04-27T11:46:25Z</time>
      </trkpt>
      <trkpt lat="43.78972" lon="7.13638">
        <ele>950</ele>
        <time>2019-04-27T11:46:31Z</time>
      </trkpt>
      <trkpt lat="43.78968" lon="7.13645">
        <ele>950</ele>
        <time>2019-04-27T11:46:37Z</time>
      </trkpt>
      <trkpt lat="43.78965" lon="7.13653">
        <ele>950</ele>
        <time>2019-04-27T11:46:43Z</time>
      </trkpt>
      <trkpt lat="43.78962" lon="7.1366">
        <ele>950</ele>
        <time>2019-04-27T11:46:49Z</time>
      </trkpt>
      <trkpt lat="43.7896" lon="7.13667">
        <ele>950</ele>
        <time>2019-04-27T11:46:55Z</time>
      </trkpt>
      <trkpt lat="43.78958" lon="7.13676">
        <ele>949</ele>
        <time>2019-04-27T11:47:01Z</time>
      </trkpt>
      <trkpt lat="43.78956" lon="7.13685">
        <ele>949</ele>
        <time>2019-04-27T11:47:07Z</time>
      </trkpt>
      <trkpt lat="43.78953" lon="7.13694">
        <ele>949</ele>
        <time>2019-04-27T11:47:13Z</time>
      </trkpt>
      <trkpt lat="43.78951" lon="7.13703">
        <ele>949</ele>
        <time>2019-04-27T11:47:19Z</time>
      </trkpt>
      <trkpt lat="43.78948" lon="7.13713">
        <ele>949</ele>
        <time>2019-04-27T11:47:25Z</time>
      </trkpt>
      <trkpt lat="43.78946" lon="7.13722">
        <ele>949</ele>
        <time>2019-04-27T11:47:31Z</time>
      </trkpt>
      <trkpt lat="43.78944" lon="7.13727">
        <ele>949</ele>
        <time>2019-04-27T11:47:37Z</time>
      </trkpt>
      <trkpt lat="43.78942" lon="7.13737">
        <ele>949</ele>
        <time>2019-04-27T11:47:43Z</time>
      </trkpt>
      <trkpt lat="43.7894" lon="7.13747">
        <ele>948</ele>
        <time>2019-04-27T11:47:49Z</time>
      </trkpt>
      <trkpt lat="43.78937" lon="7.13756">
        <ele>948</ele>
        <time>2019-04-27T11:47:55Z</time>
      </trkpt>
      <trkpt lat="43.78935" lon="7.13764">
        <ele>948</ele>
        <time>2019-04-27T11:48:01Z</time>
      </trkpt>
      <trkpt lat="43.78932" lon="7.13773">
        <ele>948</ele>
        <time>2019-04-27T11:48:07Z</time>
      </trkpt>
      <trkpt lat="43.7893" lon="7.13782">
        <ele>947</ele>
        <time>2019-04-27T11:48:13Z</time>
      </trkpt>
      <trkpt lat="43.78927" lon="7.13789">
        <ele>947</ele>
        <time>2019-04-27T11:48:19Z</time>
      </trkpt>
      <trkpt lat="43.78924" lon="7.13798">
        <ele>947</ele>
        <time>2019-04-27T11:48:25Z</time>
      </trkpt>
      <trkpt lat="43.78921" lon="7.13804">
        <ele>947</ele>
        <time>2019-04-27T11:48:31Z</time>
      </trkpt>
      <trkpt lat="43.78919" lon="7.13812">
        <ele>946</ele>
        <time>2019-04-27T11:48:37Z</time>
      </trkpt>
      <trkpt lat="43.78916" lon="7.1382">
        <ele>946</ele>
        <time>2019-04-27T11:48:43Z</time>
      </trkpt>
      <trkpt lat="43.78915" lon="7.13829">
        <ele>945</ele>
        <time>2019-04-27T11:48:49Z</time>
      </trkpt>
      <trkpt lat="43.78913" lon="7.13838">
        <ele>945</ele>
        <time>2019-04-27T11:48:55Z</time>
      </trkpt>
      <trkpt lat="43.7891" lon="7.13848">
        <ele>944</ele>
        <time>2019-04-27T11:49:01Z</time>
      </trkpt>
      <trkpt lat="43.78908" lon="7.13855">
        <ele>944</ele>
        <time>2019-04-27T11:49:07Z</time>
      </trkpt>
      <trkpt lat="43.78906" lon="7.13861">
        <ele>944</ele>
        <time>2019-04-27T11:49:13Z</time>
      </trkpt>
      <trkpt lat="43.78906" lon="7.13863">
        <ele>943</ele>
        <time>2019-04-27T11:49:19Z</time>
      </trkpt>
      <trkpt lat="43.78905" lon="7.13869">
        <ele>943</ele>
        <time>2019-04-27T11:49:25Z</time>
      </trkpt>
      <trkpt lat="43.78903" lon="7.13877">
        <ele>943</ele>
        <time>2019-04-27T11:49:32Z</time>
      </trkpt>
      <trkpt lat="43.789" lon="7.13884">
        <ele>942</ele>
        <time>2019-04-27T11:49:37Z</time>
      </trkpt>
      <trkpt lat="43.78898" lon="7.13891">
        <ele>941</ele>
        <time>2019-04-27T11:49:44Z</time>
      </trkpt>
      <trkpt lat="43.78896" lon="7.13898">
        <ele>940</ele>
        <time>2019-04-27T11:49:49Z</time>
      </trkpt>
      <trkpt lat="43.78893" lon="7.13905">
        <ele>940</ele>
        <time>2019-04-27T11:49:55Z</time>
      </trkpt>
      <trkpt lat="43.7889" lon="7.13913">
        <ele>939</ele>
        <time>2019-04-27T11:50:01Z</time>
      </trkpt>
      <trkpt lat="43.78888" lon="7.13922">
        <ele>938</ele>
        <time>2019-04-27T11:50:07Z</time>
      </trkpt>
      <trkpt lat="43.78886" lon="7.13928">
        <ele>937</ele>
        <time>2019-04-27T11:50:13Z</time>
      </trkpt>
      <trkpt lat="43.78884" lon="7.13936">
        <ele>936</ele>
        <time>2019-04-27T11:50:20Z</time>
      </trkpt>
      <trkpt lat="43.78882" lon="7.13943">
        <ele>935</ele>
        <time>2019-04-27T11:50:25Z</time>
      </trkpt>
      <trkpt lat="43.7888" lon="7.13949">
        <ele>933</ele>
        <time>2019-04-27T11:50:31Z</time>
      </trkpt>
      <trkpt lat="43.78879" lon="7.13956">
        <ele>933</ele>
        <time>2019-04-27T11:50:37Z</time>
      </trkpt>
      <trkpt lat="43.78878" lon="7.13963">
        <ele>932</ele>
        <time>2019-04-27T11:50:43Z</time>
      </trkpt>
      <trkpt lat="43.78875" lon="7.13969">
        <ele>930</ele>
        <time>2019-04-27T11:50:49Z</time>
      </trkpt>
      <trkpt lat="43.78873" lon="7.13975">
        <ele>929</ele>
        <time>2019-04-27T11:50:55Z</time>
      </trkpt>
      <trkpt lat="43.7887" lon="7.13982">
        <ele>929</ele>
        <time>2019-04-27T11:51:02Z</time>
      </trkpt>
      <trkpt lat="43.78868" lon="7.13987">
        <ele>928</ele>
        <time>2019-04-27T11:51:07Z</time>
      </trkpt>
      <trkpt lat="43.78867" lon="7.13989">
        <ele>928</ele>
        <time>2019-04-27T11:51:13Z</time>
      </trkpt>
      <trkpt lat="43.78867" lon="7.13988">
        <ele>928</ele>
        <time>2019-04-27T11:51:19Z</time>
      </trkpt>
      <trkpt lat="43.78867" lon="7.13988">
        <ele>928</ele>
        <time>2019-04-27T11:51:25Z</time>
      </trkpt>
      <trkpt lat="43.78867" lon="7.13987">
        <ele>928</ele>
        <time>2019-04-27T11:51:31Z</time>
      </trkpt>
      <trkpt lat="43.78866" lon="7.13986">
        <ele>928</ele>
        <time>2019-04-27T11:51:37Z</time>
      </trkpt>
      <trkpt lat="43.78866" lon="7.13986">
        <ele>928</ele>
        <time>2019-04-27T11:51:43Z</time>
      </trkpt>
      <trkpt lat="43.78867" lon="7.13986">
        <ele>928</ele>
        <time>2019-04-27T11:51:49Z</time>
      </trkpt>
      <trkpt lat="43.78868" lon="7.13988">
        <ele>928</ele>
        <time>2019-04-27T11:51:55Z</time>
      </trkpt>
      <trkpt lat="43.78868" lon="7.13988">
        <ele>928</ele>
        <time>2019-04-27T11:52:01Z</time>
      </trkpt>
      <trkpt lat="43.78868" lon="7.1399">
        <ele>928</ele>
        <time>2019-04-27T11:52:07Z</time>
      </trkpt>
      <trkpt lat="43.78865" lon="7.13998">
        <ele>927</ele>
        <time>2019-04-27T11:52:14Z</time>
      </trkpt>
      <trkpt lat="43.78862" lon="7.14006">
        <ele>926</ele>
        <time>2019-04-27T11:52:19Z</time>
      </trkpt>
      <trkpt lat="43.78859" lon="7.14014">
        <ele>925</ele>
        <time>2019-04-27T11:52:25Z</time>
      </trkpt>
      <trkpt lat="43.78857" lon="7.14021">
        <ele>924</ele>
        <time>2019-04-27T11:52:31Z</time>
      </trkpt>
      <trkpt lat="43.78857" lon="7.14028">
        <ele>923</ele>
        <time>2019-04-27T11:52:37Z</time>
      </trkpt>
      <trkpt lat="43.78854" lon="7.14036">
        <ele>922</ele>
        <time>2019-04-27T11:52:43Z</time>
      </trkpt>
      <trkpt lat="43.78852" lon="7.14045">
        <ele>921</ele>
        <time>2019-04-27T11:52:49Z</time>
      </trkpt>
      <trkpt lat="43.7885" lon="7.1405">
        <ele>921</ele>
        <time>2019-04-27T11:52:55Z</time>
      </trkpt>
      <trkpt lat="43.78849" lon="7.14053">
        <ele>920</ele>
        <time>2019-04-27T11:53:01Z</time>
      </trkpt>
      <trkpt lat="43.78848" lon="7.14059">
        <ele>920</ele>
        <time>2019-04-27T11:53:08Z</time>
      </trkpt>
      <trkpt lat="43.78846" lon="7.14064">
        <ele>919</ele>
        <time>2019-04-27T11:53:13Z</time>
      </trkpt>
      <trkpt lat="43.78843" lon="7.14069">
        <ele>918</ele>
        <time>2019-04-27T11:53:19Z</time>
      </trkpt>
      <trkpt lat="43.78842" lon="7.14073">
        <ele>918</ele>
        <time>2019-04-27T11:53:25Z</time>
      </trkpt>
      <trkpt lat="43.78841" lon="7.14082">
        <ele>917</ele>
        <time>2019-04-27T11:53:31Z</time>
      </trkpt>
      <trkpt lat="43.7884" lon="7.1409">
        <ele>916</ele>
        <time>2019-04-27T11:53:37Z</time>
      </trkpt>
      <trkpt lat="43.78838" lon="7.14097">
        <ele>915</ele>
        <time>2019-04-27T11:53:43Z</time>
      </trkpt>
      <trkpt lat="43.78836" lon="7.14104">
        <ele>914</ele>
        <time>2019-04-27T11:53:49Z</time>
      </trkpt>
      <trkpt lat="43.78835" lon="7.14111">
        <ele>914</ele>
        <time>2019-04-27T11:53:55Z</time>
      </trkpt>
      <trkpt lat="43.78833" lon="7.14117">
        <ele>913</ele>
        <time>2019-04-27T11:54:01Z</time>
      </trkpt>
      <trkpt lat="43.7883" lon="7.14125">
        <ele>912</ele>
        <time>2019-04-27T11:54:07Z</time>
      </trkpt>
      <trkpt lat="43.78828" lon="7.14132">
        <ele>911</ele>
        <time>2019-04-27T11:54:13Z</time>
      </trkpt>
      <trkpt lat="43.78826" lon="7.1414">
        <ele>911</ele>
        <time>2019-04-27T11:54:19Z</time>
      </trkpt>
      <trkpt lat="43.78824" lon="7.14148">
        <ele>910</ele>
        <time>2019-04-27T11:54:25Z</time>
      </trkpt>
      <trkpt lat="43.78822" lon="7.14156">
        <ele>909</ele>
        <time>2019-04-27T11:54:31Z</time>
      </trkpt>
      <trkpt lat="43.78821" lon="7.14166">
        <ele>908</ele>
        <time>2019-04-27T11:54:37Z</time>
      </trkpt>
      <trkpt lat="43.78819" lon="7.14173">
        <ele>907</ele>
        <time>2019-04-27T11:54:43Z</time>
      </trkpt>
      <trkpt lat="43.78816" lon="7.14182">
        <ele>907</ele>
        <time>2019-04-27T11:54:49Z</time>
      </trkpt>
      <trkpt lat="43.78814" lon="7.1419">
        <ele>906</ele>
        <time>2019-04-27T11:54:55Z</time>
      </trkpt>
      <trkpt lat="43.78812" lon="7.14198">
        <ele>905</ele>
        <time>2019-04-27T11:55:01Z</time>
      </trkpt>
      <trkpt lat="43.78809" lon="7.14207">
        <ele>904</ele>
        <time>2019-04-27T11:55:07Z</time>
      </trkpt>
      <trkpt lat="43.78807" lon="7.14216">
        <ele>904</ele>
        <time>2019-04-27T11:55:13Z</time>
      </trkpt>
      <trkpt lat="43.78803" lon="7.14226">
        <ele>903</ele>
        <time>2019-04-27T11:55:19Z</time>
      </trkpt>
      <trkpt lat="43.78802" lon="7.14234">
        <ele>902</ele>
        <time>2019-04-27T11:55:25Z</time>
      </trkpt>
      <trkpt lat="43.788" lon="7.14242">
        <ele>901</ele>
        <time>2019-04-27T11:55:31Z</time>
      </trkpt>
      <trkpt lat="43.78798" lon="7.14249">
        <ele>900</ele>
        <time>2019-04-27T11:55:37Z</time>
      </trkpt>
      <trkpt lat="43.78796" lon="7.14256">
        <ele>900</ele>
        <time>2019-04-27T11:55:43Z</time>
      </trkpt>
      <trkpt lat="43.78792" lon="7.14262">
        <ele>899</ele>
        <time>2019-04-27T11:55:49Z</time>
      </trkpt>
      <trkpt lat="43.78791" lon="7.14269">
        <ele>898</ele>
        <time>2019-04-27T11:55:55Z</time>
      </trkpt>
      <trkpt lat="43.7879" lon="7.14276">
        <ele>897</ele>
        <time>2019-04-27T11:56:01Z</time>
      </trkpt>
      <trkpt lat="43.78788" lon="7.14283">
        <ele>897</ele>
        <time>2019-04-27T11:56:07Z</time>
      </trkpt>
      <trkpt lat="43.78786" lon="7.14288">
        <ele>896</ele>
        <time>2019-04-27T11:56:13Z</time>
      </trkpt>
      <trkpt lat="43.78783" lon="7.14295">
        <ele>895</ele>
        <time>2019-04-27T11:56:19Z</time>
      </trkpt>
      <trkpt lat="43.7878" lon="7.14303">
        <ele>893</ele>
        <time>2019-04-27T11:56:25Z</time>
      </trkpt>
      <trkpt lat="43.78777" lon="7.14311">
        <ele>892</ele>
        <time>2019-04-27T11:56:31Z</time>
      </trkpt>
      <trkpt lat="43.78775" lon="7.14317">
        <ele>892</ele>
        <time>2019-04-27T11:56:38Z</time>
      </trkpt>
      <trkpt lat="43.78771" lon="7.14326">
        <ele>891</ele>
        <time>2019-04-27T11:56:43Z</time>
      </trkpt>
      <trkpt lat="43.7877" lon="7.14333">
        <ele>889</ele>
        <time>2019-04-27T11:56:49Z</time>
      </trkpt>
      <trkpt lat="43.7877" lon="7.14339">
        <ele>888</ele>
        <time>2019-04-27T11:56:55Z</time>
      </trkpt>
      <trkpt lat="43.78771" lon="7.14348">
        <ele>887</ele>
        <time>2019-04-27T11:57:01Z</time>
      </trkpt>
      <trkpt lat="43.78768" lon="7.14355">
        <ele>885</ele>
        <time>2019-04-27T11:57:07Z</time>
      </trkpt>
      <trkpt lat="43.78766" lon="7.14362">
        <ele>884</ele>
        <time>2019-04-27T11:57:13Z</time>
      </trkpt>
      <trkpt lat="43.78765" lon="7.14367">
        <ele>884</ele>
        <time>2019-04-27T11:57:20Z</time>
      </trkpt>
      <trkpt lat="43.78764" lon="7.1437">
        <ele>882</ele>
        <time>2019-04-27T11:57:25Z</time>
      </trkpt>
      <trkpt lat="43.78763" lon="7.14375">
        <ele>882</ele>
        <time>2019-04-27T11:57:31Z</time>
      </trkpt>
      <trkpt lat="43.78761" lon="7.1438">
        <ele>880</ele>
        <time>2019-04-27T11:57:37Z</time>
      </trkpt>
      <trkpt lat="43.78759" lon="7.14384">
        <ele>880</ele>
        <time>2019-04-27T11:57:43Z</time>
      </trkpt>
      <trkpt lat="43.78759" lon="7.1439">
        <ele>879</ele>
        <time>2019-04-27T11:57:49Z</time>
      </trkpt>
      <trkpt lat="43.78759" lon="7.14393">
        <ele>879</ele>
        <time>2019-04-27T11:57:55Z</time>
      </trkpt>
      <trkpt lat="43.78759" lon="7.14393">
        <ele>879</ele>
        <time>2019-04-27T11:58:01Z</time>
      </trkpt>
      <trkpt lat="43.78759" lon="7.14394">
        <ele>879</ele>
        <time>2019-04-27T11:58:07Z</time>
      </trkpt>
      <trkpt lat="43.78758" lon="7.14393">
        <ele>879</ele>
        <time>2019-04-27T11:58:13Z</time>
      </trkpt>
      <trkpt lat="43.78757" lon="7.14395">
        <ele>877</ele>
        <time>2019-04-27T11:58:19Z</time>
      </trkpt>
      <trkpt lat="43.78757" lon="7.14395">
        <ele>877</ele>
        <time>2019-04-27T11:58:25Z</time>
      </trkpt>
      <trkpt lat="43.78757" lon="7.14395">
        <ele>877</ele>
        <time>2019-04-27T11:58:31Z</time>
      </trkpt>
      <trkpt lat="43.78759" lon="7.14392">
        <ele>879</ele>
        <time>2019-04-27T11:58:37Z</time>
      </trkpt>
      <trkpt lat="43.78759" lon="7.14389">
        <ele>879</ele>
        <time>2019-04-27T11:58:43Z</time>
      </trkpt>
      <trkpt lat="43.78757" lon="7.14386">
        <ele>878</ele>
        <time>2019-04-27T11:58:49Z</time>
      </trkpt>
      <trkpt lat="43.78758" lon="7.14385">
        <ele>880</ele>
        <time>2019-04-27T11:58:56Z</time>
      </trkpt>
      <trkpt lat="43.78758" lon="7.14385">
        <ele>880</ele>
        <time>2019-04-27T11:59:01Z</time>
      </trkpt>
      <trkpt lat="43.78759" lon="7.14385">
        <ele>880</ele>
        <time>2019-04-27T11:59:07Z</time>
      </trkpt>
      <trkpt lat="43.78759" lon="7.14385">
        <ele>880</ele>
        <time>2019-04-27T11:59:14Z</time>
      </trkpt>
      <trkpt lat="43.78759" lon="7.14384">
        <ele>880</ele>
        <time>2019-04-27T11:59:19Z</time>
      </trkpt>
      <trkpt lat="43.78759" lon="7.14384">
        <ele>880</ele>
        <time>2019-04-27T11:59:25Z</time>
      </trkpt>
      <trkpt lat="43.78759" lon="7.14384">
        <ele>880</ele>
        <time>2019-04-27T11:59:31Z</time>
      </trkpt>
      <trkpt lat="43.78759" lon="7.14384">
        <ele>880</ele>
        <time>2019-04-27T11:59:37Z</time>
      </trkpt>
      <trkpt lat="43.78759" lon="7.14384">
        <ele>880</ele>
        <time>2019-04-27T11:59:43Z</time>
      </trkpt>
      <trkpt lat="43.7876" lon="7.14382">
        <ele>880</ele>
        <time>2019-04-27T11:59:49Z</time>
      </trkpt>
      <trkpt lat="43.78762" lon="7.14377">
        <ele>882</ele>
        <time>2019-04-27T11:59:55Z</time>
      </trkpt>
      <trkpt lat="43.78765" lon="7.1437">
        <ele>882</ele>
        <time>2019-04-27T12:00:01Z</time>
      </trkpt>
      <trkpt lat="43.78767" lon="7.14362">
        <ele>884</ele>
        <time>2019-04-27T12:00:07Z</time>
      </trkpt>
      <trkpt lat="43.78769" lon="7.14354">
        <ele>885</ele>
        <time>2019-04-27T12:00:13Z</time>
      </trkpt>
      <trkpt lat="43.78772" lon="7.14345">
        <ele>887</ele>
        <time>2019-04-27T12:00:19Z</time>
      </trkpt>
      <trkpt lat="43.78767" lon="7.14336">
        <ele>888</ele>
        <time>2019-04-27T12:00:25Z</time>
      </trkpt>
      <trkpt lat="43.78763" lon="7.14334">
        <ele>889</ele>
        <time>2019-04-27T12:00:31Z</time>
      </trkpt>
      <trkpt lat="43.78756" lon="7.14334">
        <ele>887</ele>
        <time>2019-04-27T12:00:37Z</time>
      </trkpt>
      <trkpt lat="43.7875" lon="7.14334">
        <ele>888</ele>
        <time>2019-04-27T12:00:43Z</time>
      </trkpt>
      <trkpt lat="43.78742" lon="7.14333">
        <ele>888</ele>
        <time>2019-04-27T12:00:49Z</time>
      </trkpt>
      <trkpt lat="43.78736" lon="7.14331">
        <ele>888</ele>
        <time>2019-04-27T12:00:55Z</time>
      </trkpt>
      <trkpt lat="43.78731" lon="7.14328">
        <ele>887</ele>
        <time>2019-04-27T12:01:01Z</time>
      </trkpt>
      <trkpt lat="43.78725" lon="7.14324">
        <ele>888</ele>
        <time>2019-04-27T12:01:07Z</time>
      </trkpt>
      <trkpt lat="43.7872" lon="7.14318">
        <ele>887</ele>
        <time>2019-04-27T12:01:13Z</time>
      </trkpt>
      <trkpt lat="43.78714" lon="7.14316">
        <ele>889</ele>
        <time>2019-04-27T12:01:19Z</time>
      </trkpt>
      <trkpt lat="43.7871" lon="7.14317">
        <ele>888</ele>
        <time>2019-04-27T12:01:25Z</time>
      </trkpt>
      <trkpt lat="43.78704" lon="7.14316">
        <ele>888</ele>
        <time>2019-04-27T12:01:31Z</time>
      </trkpt>
      <trkpt lat="43.78698" lon="7.14315">
        <ele>887</ele>
        <time>2019-04-27T12:01:37Z</time>
      </trkpt>
      <trkpt lat="43.78693" lon="7.14313">
        <ele>887</ele>
        <time>2019-04-27T12:01:43Z</time>
      </trkpt>
      <trkpt lat="43.78689" lon="7.14311">
        <ele>886</ele>
        <time>2019-04-27T12:01:50Z</time>
      </trkpt>
      <trkpt lat="43.78683" lon="7.14309">
        <ele>885</ele>
        <time>2019-04-27T12:01:55Z</time>
      </trkpt>
      <trkpt lat="43.78679" lon="7.14308">
        <ele>887</ele>
        <time>2019-04-27T12:02:02Z</time>
      </trkpt>
      <trkpt lat="43.78673" lon="7.1431">
        <ele>885</ele>
        <time>2019-04-27T12:02:07Z</time>
      </trkpt>
      <trkpt lat="43.78666" lon="7.14316">
        <ele>884</ele>
        <time>2019-04-27T12:02:13Z</time>
      </trkpt>
      <trkpt lat="43.78661" lon="7.14322">
        <ele>882</ele>
        <time>2019-04-27T12:02:19Z</time>
      </trkpt>
      <trkpt lat="43.78658" lon="7.14329">
        <ele>880</ele>
        <time>2019-04-27T12:02:26Z</time>
      </trkpt>
      <trkpt lat="43.78654" lon="7.14335">
        <ele>879</ele>
        <time>2019-04-27T12:02:31Z</time>
      </trkpt>
      <trkpt lat="43.7865" lon="7.1434">
        <ele>878</ele>
        <time>2019-04-27T12:02:38Z</time>
      </trkpt>
      <trkpt lat="43.78645" lon="7.14344">
        <ele>875</ele>
        <time>2019-04-27T12:02:43Z</time>
      </trkpt>
      <trkpt lat="43.78642" lon="7.14345">
        <ele>875</ele>
        <time>2019-04-27T12:02:50Z</time>
      </trkpt>
      <trkpt lat="43.78636" lon="7.14348">
        <ele>874</ele>
        <time>2019-04-27T12:02:55Z</time>
      </trkpt>
      <trkpt lat="43.78631" lon="7.14349">
        <ele>873</ele>
        <time>2019-04-27T12:03:01Z</time>
      </trkpt>
      <trkpt lat="43.78627" lon="7.14348">
        <ele>873</ele>
        <time>2019-04-27T12:03:07Z</time>
      </trkpt>
      <trkpt lat="43.78622" lon="7.14345">
        <ele>873</ele>
        <time>2019-04-27T12:03:13Z</time>
      </trkpt>
      <trkpt lat="43.78617" lon="7.14342">
        <ele>874</ele>
        <time>2019-04-27T12:03:19Z</time>
      </trkpt>
      <trkpt lat="43.78612" lon="7.14338">
        <ele>873</ele>
        <time>2019-04-27T12:03:25Z</time>
      </trkpt>
      <trkpt lat="43.78607" lon="7.14333">
        <ele>874</ele>
        <time>2019-04-27T12:03:31Z</time>
      </trkpt>
      <trkpt lat="43.786" lon="7.14327">
        <ele>873</ele>
        <time>2019-04-27T12:03:37Z</time>
      </trkpt>
      <trkpt lat="43.78595" lon="7.14323">
        <ele>874</ele>
        <time>2019-04-27T12:03:43Z</time>
      </trkpt>
      <trkpt lat="43.78589" lon="7.14318">
        <ele>873</ele>
        <time>2019-04-27T12:03:50Z</time>
      </trkpt>
      <trkpt lat="43.78584" lon="7.14314">
        <ele>874</ele>
        <time>2019-04-27T12:03:55Z</time>
      </trkpt>
      <trkpt lat="43.78578" lon="7.1431">
        <ele>873</ele>
        <time>2019-04-27T12:04:01Z</time>
      </trkpt>
      <trkpt lat="43.78572" lon="7.14309">
        <ele>872</ele>
        <time>2019-04-27T12:04:07Z</time>
      </trkpt>
      <trkpt lat="43.78567" lon="7.14307">
        <ele>875</ele>
        <time>2019-04-27T12:04:14Z</time>
      </trkpt>
      <trkpt lat="43.78562" lon="7.14302">
        <ele>874</ele>
        <time>2019-04-27T12:04:19Z</time>
      </trkpt>
      <trkpt lat="43.78556" lon="7.14297">
        <ele>875</ele>
        <time>2019-04-27T12:04:25Z</time>
      </trkpt>
      <trkpt lat="43.78549" lon="7.14292">
        <ele>874</ele>
        <time>2019-04-27T12:04:31Z</time>
      </trkpt>
      <trkpt lat="43.78543" lon="7.14289">
        <ele>875</ele>
        <time>2019-04-27T12:04:37Z</time>
      </trkpt>
      <trkpt lat="43.78537" lon="7.14288">
        <ele>874</ele>
        <time>2019-04-27T12:04:43Z</time>
      </trkpt>
      <trkpt lat="43.78532" lon="7.14288">
        <ele>872</ele>
        <time>2019-04-27T12:04:49Z</time>
      </trkpt>
      <trkpt lat="43.78527" lon="7.14287">
        <ele>871</ele>
        <time>2019-04-27T12:04:55Z</time>
      </trkpt>
      <trkpt lat="43.78523" lon="7.14286">
        <ele>871</ele>
        <time>2019-04-27T12:05:01Z</time>
      </trkpt>
      <trkpt lat="43.78518" lon="7.14285">
        <ele>869</ele>
        <time>2019-04-27T12:05:07Z</time>
      </trkpt>
      <trkpt lat="43.78515" lon="7.14286">
        <ele>867</ele>
        <time>2019-04-27T12:05:13Z</time>
      </trkpt>
      <trkpt lat="43.78511" lon="7.14283">
        <ele>867</ele>
        <time>2019-04-27T12:05:19Z</time>
      </trkpt>
      <trkpt lat="43.78506" lon="7.14277">
        <ele>867</ele>
        <time>2019-04-27T12:05:25Z</time>
      </trkpt>
      <trkpt lat="43.78502" lon="7.14273">
        <ele>867</ele>
        <time>2019-04-27T12:05:31Z</time>
      </trkpt>
      <trkpt lat="43.78497" lon="7.14272">
        <ele>865</ele>
        <time>2019-04-27T12:05:37Z</time>
      </trkpt>
      <trkpt lat="43.78493" lon="7.14269">
        <ele>865</ele>
        <time>2019-04-27T12:05:43Z</time>
      </trkpt>
      <trkpt lat="43.78489" lon="7.14267">
        <ele>863</ele>
        <time>2019-04-27T12:05:49Z</time>
      </trkpt>
      <trkpt lat="43.78486" lon="7.14265">
        <ele>865</ele>
        <time>2019-04-27T12:05:55Z</time>
      </trkpt>
      <trkpt lat="43.78483" lon="7.14262">
        <ele>863</ele>
        <time>2019-04-27T12:06:01Z</time>
      </trkpt>
      <trkpt lat="43.7848" lon="7.14263">
        <ele>863</ele>
        <time>2019-04-27T12:06:07Z</time>
      </trkpt>
      <trkpt lat="43.78476" lon="7.14262">
        <ele>861</ele>
        <time>2019-04-27T12:06:13Z</time>
      </trkpt>
      <trkpt lat="43.78469" lon="7.1426">
        <ele>859</ele>
        <time>2019-04-27T12:06:20Z</time>
      </trkpt>
      <trkpt lat="43.78465" lon="7.1426">
        <ele>857</ele>
        <time>2019-04-27T12:06:26Z</time>
      </trkpt>
      <trkpt lat="43.78461" lon="7.1426">
        <ele>857</ele>
        <time>2019-04-27T12:06:31Z</time>
      </trkpt>
      <trkpt lat="43.78455" lon="7.1426">
        <ele>855</ele>
        <time>2019-04-27T12:06:37Z</time>
      </trkpt>
      <trkpt lat="43.78448" lon="7.14258">
        <ele>852</ele>
        <time>2019-04-27T12:06:43Z</time>
      </trkpt>
      <trkpt lat="43.78441" lon="7.14255">
        <ele>853</ele>
        <time>2019-04-27T12:06:49Z</time>
      </trkpt>
      <trkpt lat="43.78434" lon="7.14252">
        <ele>852</ele>
        <time>2019-04-27T12:06:55Z</time>
      </trkpt>
      <trkpt lat="43.78427" lon="7.1425">
        <ele>851</ele>
        <time>2019-04-27T12:07:01Z</time>
      </trkpt>
      <trkpt lat="43.78421" lon="7.14246">
        <ele>852</ele>
        <time>2019-04-27T12:07:07Z</time>
      </trkpt>
      <trkpt lat="43.78417" lon="7.14242">
        <ele>851</ele>
        <time>2019-04-27T12:07:13Z</time>
      </trkpt>
      <trkpt lat="43.78413" lon="7.1424">
        <ele>853</ele>
        <time>2019-04-27T12:07:19Z</time>
      </trkpt>
      <trkpt lat="43.7841" lon="7.14238">
        <ele>852</ele>
        <time>2019-04-27T12:07:25Z</time>
      </trkpt>
      <trkpt lat="43.78404" lon="7.14238">
        <ele>850</ele>
        <time>2019-04-27T12:07:31Z</time>
      </trkpt>
      <trkpt lat="43.78397" lon="7.14237">
        <ele>849</ele>
        <time>2019-04-27T12:07:37Z</time>
      </trkpt>
      <trkpt lat="43.78391" lon="7.14236">
        <ele>848</ele>
        <time>2019-04-27T12:07:43Z</time>
      </trkpt>
      <trkpt lat="43.78386" lon="7.14233">
        <ele>848</ele>
        <time>2019-04-27T12:07:49Z</time>
      </trkpt>
      <trkpt lat="43.78381" lon="7.14231">
        <ele>850</ele>
        <time>2019-04-27T12:07:55Z</time>
      </trkpt>
      <trkpt lat="43.78379" lon="7.1423">
        <ele>849</ele>
        <time>2019-04-27T12:08:01Z</time>
      </trkpt>
      <trkpt lat="43.78377" lon="7.14231">
        <ele>849</ele>
        <time>2019-04-27T12:08:07Z</time>
      </trkpt>
      <trkpt lat="43.78375" lon="7.1423">
        <ele>849</ele>
        <time>2019-04-27T12:08:13Z</time>
      </trkpt>
      <trkpt lat="43.78374" lon="7.14229">
        <ele>849</ele>
        <time>2019-04-27T12:08:19Z</time>
      </trkpt>
      <trkpt lat="43.78374" lon="7.14229">
        <ele>848</ele>
        <time>2019-04-27T12:08:25Z</time>
      </trkpt>
      <trkpt lat="43.78374" lon="7.14228">
        <ele>849</ele>
        <time>2019-04-27T12:08:31Z</time>
      </trkpt>
      <trkpt lat="43.78376" lon="7.14225">
        <ele>849</ele>
        <time>2019-04-27T12:08:37Z</time>
      </trkpt>
      <trkpt lat="43.78376" lon="7.14225">
        <ele>849</ele>
        <time>2019-04-27T12:08:43Z</time>
      </trkpt>
      <trkpt lat="43.78376" lon="7.14225">
        <ele>849</ele>
        <time>2019-04-27T12:08:49Z</time>
      </trkpt>
      <trkpt lat="43.78373" lon="7.14229">
        <ele>848</ele>
        <time>2019-04-27T12:08:55Z</time>
      </trkpt>
      <trkpt lat="43.78372" lon="7.1423">
        <ele>848</ele>
        <time>2019-04-27T12:09:01Z</time>
      </trkpt>
      <trkpt lat="43.78372" lon="7.1423">
        <ele>848</ele>
        <time>2019-04-27T12:09:07Z</time>
      </trkpt>
      <trkpt lat="43.78372" lon="7.1423">
        <ele>848</ele>
        <time>2019-04-27T12:09:13Z</time>
      </trkpt>
      <trkpt lat="43.78372" lon="7.14231">
        <ele>848</ele>
        <time>2019-04-27T12:09:19Z</time>
      </trkpt>
      <trkpt lat="43.78372" lon="7.14231">
        <ele>848</ele>
        <time>2019-04-27T12:09:25Z</time>
      </trkpt>
      <trkpt lat="43.78372" lon="7.1423">
        <ele>848</ele>
        <time>2019-04-27T12:09:31Z</time>
      </trkpt>
      <trkpt lat="43.78371" lon="7.1423">
        <ele>848</ele>
        <time>2019-04-27T12:09:37Z</time>
      </trkpt>
      <trkpt lat="43.7837" lon="7.14228">
        <ele>848</ele>
        <time>2019-04-27T12:09:43Z</time>
      </trkpt>
      <trkpt lat="43.7837" lon="7.14228">
        <ele>848</ele>
        <time>2019-04-27T12:09:49Z</time>
      </trkpt>
      <trkpt lat="43.7837" lon="7.14228">
        <ele>848</ele>
        <time>2019-04-27T12:09:55Z</time>
      </trkpt>
      <trkpt lat="43.7837" lon="7.14229">
        <ele>848</ele>
        <time>2019-04-27T12:10:01Z</time>
      </trkpt>
      <trkpt lat="43.7837" lon="7.14229">
        <ele>848</ele>
        <time>2019-04-27T12:10:07Z</time>
      </trkpt>
      <trkpt lat="43.7837" lon="7.14229">
        <ele>848</ele>
        <time>2019-04-27T12:10:13Z</time>
      </trkpt>
      <trkpt lat="43.7837" lon="7.14229">
        <ele>848</ele>
        <time>2019-04-27T12:10:19Z</time>
      </trkpt>
      <trkpt lat="43.78371" lon="7.1423">
        <ele>848</ele>
        <time>2019-04-27T12:10:25Z</time>
      </trkpt>
      <trkpt lat="43.78371" lon="7.14231">
        <ele>848</ele>
        <time>2019-04-27T12:10:31Z</time>
      </trkpt>
      <trkpt lat="43.78371" lon="7.14232">
        <ele>846</ele>
        <time>2019-04-27T12:10:37Z</time>
      </trkpt>
      <trkpt lat="43.78369" lon="7.14234">
        <ele>846</ele>
        <time>2019-04-27T12:10:43Z</time>
      </trkpt>
      <trkpt lat="43.78367" lon="7.14238">
        <ele>846</ele>
        <time>2019-04-27T12:10:49Z</time>
      </trkpt>
      <trkpt lat="43.78365" lon="7.14242">
        <ele>843</ele>
        <time>2019-04-27T12:10:55Z</time>
      </trkpt>
      <trkpt lat="43.78363" lon="7.14245">
        <ele>843</ele>
        <time>2019-04-27T12:11:01Z</time>
      </trkpt>
      <trkpt lat="43.78361" lon="7.14246">
        <ele>843</ele>
        <time>2019-04-27T12:11:07Z</time>
      </trkpt>
      <trkpt lat="43.7836" lon="7.14251">
        <ele>841</ele>
        <time>2019-04-27T12:11:13Z</time>
      </trkpt>
      <trkpt lat="43.78359" lon="7.14257">
        <ele>841</ele>
        <time>2019-04-27T12:11:19Z</time>
      </trkpt>
      <trkpt lat="43.7836" lon="7.14262">
        <ele>839</ele>
        <time>2019-04-27T12:11:25Z</time>
      </trkpt>
      <trkpt lat="43.78361" lon="7.14261">
        <ele>839</ele>
        <time>2019-04-27T12:11:32Z</time>
      </trkpt>
      <trkpt lat="43.78361" lon="7.14262">
        <ele>839</ele>
        <time>2019-04-27T12:11:37Z</time>
      </trkpt>
      <trkpt lat="43.78361" lon="7.14263">
        <ele>839</ele>
        <time>2019-04-27T12:11:44Z</time>
      </trkpt>
      <trkpt lat="43.7836" lon="7.14265">
        <ele>839</ele>
        <time>2019-04-27T12:11:49Z</time>
      </trkpt>
      <trkpt lat="43.7836" lon="7.1427">
        <ele>838</ele>
        <time>2019-04-27T12:11:55Z</time>
      </trkpt>
      <trkpt lat="43.78359" lon="7.14278">
        <ele>836</ele>
        <time>2019-04-27T12:12:01Z</time>
      </trkpt>
      <trkpt lat="43.78359" lon="7.14281">
        <ele>836</ele>
        <time>2019-04-27T12:12:07Z</time>
      </trkpt>
      <trkpt lat="43.78358" lon="7.14282">
        <ele>836</ele>
        <time>2019-04-27T12:12:13Z</time>
      </trkpt>
      <trkpt lat="43.78357" lon="7.14284">
        <ele>835</ele>
        <time>2019-04-27T12:12:19Z</time>
      </trkpt>
      <trkpt lat="43.78355" lon="7.14288">
        <ele>834</ele>
        <time>2019-04-27T12:12:25Z</time>
      </trkpt>
      <trkpt lat="43.78354" lon="7.14295">
        <ele>833</ele>
        <time>2019-04-27T12:12:31Z</time>
      </trkpt>
      <trkpt lat="43.78352" lon="7.143">
        <ele>833</ele>
        <time>2019-04-27T12:12:37Z</time>
      </trkpt>
      <trkpt lat="43.7835" lon="7.14308">
        <ele>832</ele>
        <time>2019-04-27T12:12:43Z</time>
      </trkpt>
      <trkpt lat="43.78349" lon="7.1431">
        <ele>831</ele>
        <time>2019-04-27T12:12:49Z</time>
      </trkpt>
      <trkpt lat="43.78351" lon="7.14315">
        <ele>831</ele>
        <time>2019-04-27T12:12:55Z</time>
      </trkpt>
      <trkpt lat="43.78353" lon="7.14325">
        <ele>830</ele>
        <time>2019-04-27T12:13:02Z</time>
      </trkpt>
      <trkpt lat="43.78355" lon="7.14331">
        <ele>829</ele>
        <time>2019-04-27T12:13:07Z</time>
      </trkpt>
      <trkpt lat="43.78358" lon="7.14339">
        <ele>828</ele>
        <time>2019-04-27T12:13:13Z</time>
      </trkpt>
      <trkpt lat="43.7836" lon="7.14343">
        <ele>828</ele>
        <time>2019-04-27T12:13:19Z</time>
      </trkpt>
      <trkpt lat="43.78359" lon="7.14346">
        <ele>828</ele>
        <time>2019-04-27T12:13:25Z</time>
      </trkpt>
      <trkpt lat="43.78361" lon="7.14352">
        <ele>827</ele>
        <time>2019-04-27T12:13:31Z</time>
      </trkpt>
      <trkpt lat="43.78361" lon="7.14361">
        <ele>826</ele>
        <time>2019-04-27T12:13:37Z</time>
      </trkpt>
      <trkpt lat="43.78361" lon="7.14368">
        <ele>826</ele>
        <time>2019-04-27T12:13:43Z</time>
      </trkpt>
      <trkpt lat="43.7836" lon="7.14374">
        <ele>825</ele>
        <time>2019-04-27T12:13:49Z</time>
      </trkpt>
      <trkpt lat="43.78358" lon="7.1438">
        <ele>824</ele>
        <time>2019-04-27T12:13:55Z</time>
      </trkpt>
      <trkpt lat="43.78361" lon="7.14385">
        <ele>824</ele>
        <time>2019-04-27T12:14:01Z</time>
      </trkpt>
      <trkpt lat="43.78364" lon="7.14387">
        <ele>823</ele>
        <time>2019-04-27T12:14:07Z</time>
      </trkpt>
      <trkpt lat="43.78366" lon="7.14386">
        <ele>823</ele>
        <time>2019-04-27T12:14:13Z</time>
      </trkpt>
      <trkpt lat="43.78366" lon="7.14387">
        <ele>823</ele>
        <time>2019-04-27T12:14:19Z</time>
      </trkpt>
      <trkpt lat="43.78366" lon="7.14387">
        <ele>823</ele>
        <time>2019-04-27T12:14:25Z</time>
      </trkpt>
      <trkpt lat="43.78366" lon="7.14387">
        <ele>823</ele>
        <time>2019-04-27T12:14:31Z</time>
      </trkpt>
      <trkpt lat="43.78365" lon="7.14387">
        <ele>823</ele>
        <time>2019-04-27T12:14:37Z</time>
      </trkpt>
      <trkpt lat="43.78365" lon="7.14386">
        <ele>824</ele>
        <time>2019-04-27T12:14:43Z</time>
      </trkpt>
      <trkpt lat="43.78364" lon="7.14386">
        <ele>823</ele>
        <time>2019-04-27T12:14:49Z</time>
      </trkpt>
      <trkpt lat="43.78366" lon="7.14386">
        <ele>824</ele>
        <time>2019-04-27T12:14:55Z</time>
      </trkpt>
      <trkpt lat="43.78367" lon="7.14384">
        <ele>824</ele>
        <time>2019-04-27T12:15:01Z</time>
      </trkpt>
      <trkpt lat="43.78365" lon="7.14386">
        <ele>824</ele>
        <time>2019-04-27T12:15:07Z</time>
      </trkpt>
      <trkpt lat="43.78366" lon="7.1439">
        <ele>823</ele>
        <time>2019-04-27T12:15:13Z</time>
      </trkpt>
      <trkpt lat="43.78368" lon="7.14394">
        <ele>822</ele>
        <time>2019-04-27T12:15:19Z</time>
      </trkpt>
      <trkpt lat="43.78369" lon="7.14394">
        <ele>822</ele>
        <time>2019-04-27T12:15:25Z</time>
      </trkpt>
      <trkpt lat="43.78369" lon="7.14393">
        <ele>822</ele>
        <time>2019-04-27T12:15:31Z</time>
      </trkpt>
      <trkpt lat="43.78369" lon="7.14393">
        <ele>822</ele>
        <time>2019-04-27T12:15:37Z</time>
      </trkpt>
      <trkpt lat="43.78369" lon="7.14394">
        <ele>822</ele>
        <time>2019-04-27T12:15:43Z</time>
      </trkpt>
      <trkpt lat="43.78369" lon="7.14394">
        <ele>822</ele>
        <time>2019-04-27T12:15:49Z</time>
      </trkpt>
      <trkpt lat="43.78368" lon="7.14394">
        <ele>822</ele>
        <time>2019-04-27T12:15:55Z</time>
      </trkpt>
      <trkpt lat="43.78368" lon="7.14394">
        <ele>822</ele>
        <time>2019-04-27T12:16:01Z</time>
      </trkpt>
      <trkpt lat="43.78368" lon="7.14394">
        <ele>822</ele>
        <time>2019-04-27T12:16:07Z</time>
      </trkpt>
      <trkpt lat="43.78368" lon="7.14393">
        <ele>822</ele>
        <time>2019-04-27T12:16:13Z</time>
      </trkpt>
      <trkpt lat="43.78368" lon="7.14393">
        <ele>822</ele>
        <time>2019-04-27T12:16:19Z</time>
      </trkpt>
      <trkpt lat="43.78368" lon="7.14393">
        <ele>822</ele>
        <time>2019-04-27T12:16:25Z</time>
      </trkpt>
      <trkpt lat="43.78367" lon="7.14394">
        <ele>822</ele>
        <time>2019-04-27T12:16:31Z</time>
      </trkpt>
      <trkpt lat="43.7837" lon="7.14398">
        <ele>821</ele>
        <time>2019-04-27T12:16:37Z</time>
      </trkpt>
      <trkpt lat="43.78378" lon="7.14399">
        <ele>821</ele>
        <time>2019-04-27T12:16:43Z</time>
      </trkpt>
      <trkpt lat="43.78385" lon="7.14398">
        <ele>820</ele>
        <time>2019-04-27T12:16:49Z</time>
      </trkpt>
      <trkpt lat="43.78391" lon="7.14392">
        <ele>820</ele>
        <time>2019-04-27T12:16:55Z</time>
      </trkpt>
      <trkpt lat="43.78396" lon="7.14389">
        <ele>820</ele>
        <time>2019-04-27T12:17:02Z</time>
      </trkpt>
      <trkpt lat="43.78401" lon="7.14384">
        <ele>821</ele>
        <time>2019-04-27T12:17:07Z</time>
      </trkpt>
      <trkpt lat="43.78402" lon="7.14383">
        <ele>821</ele>
        <time>2019-04-27T12:17:13Z</time>
      </trkpt>
      <trkpt lat="43.78402" lon="7.14382">
        <ele>821</ele>
        <time>2019-04-27T12:17:19Z</time>
      </trkpt>
      <trkpt lat="43.78401" lon="7.14382">
        <ele>821</ele>
        <time>2019-04-27T12:17:25Z</time>
      </trkpt>
      <trkpt lat="43.784" lon="7.14383">
        <ele>821</ele>
        <time>2019-04-27T12:17:31Z</time>
      </trkpt>
      <trkpt lat="43.784" lon="7.14383">
        <ele>821</ele>
        <time>2019-04-27T12:17:37Z</time>
      </trkpt>
      <trkpt lat="43.784" lon="7.14383">
        <ele>821</ele>
        <time>2019-04-27T12:17:43Z</time>
      </trkpt>
      <trkpt lat="43.784" lon="7.14383">
        <ele>821</ele>
        <time>2019-04-27T12:17:49Z</time>
      </trkpt>
      <trkpt lat="43.784" lon="7.14382">
        <ele>821</ele>
        <time>2019-04-27T12:17:55Z</time>
      </trkpt>
      <trkpt lat="43.784" lon="7.1438">
        <ele>821</ele>
        <time>2019-04-27T12:18:01Z</time>
      </trkpt>
      <trkpt lat="43.784" lon="7.14379">
        <ele>821</ele>
        <time>2019-04-27T12:18:07Z</time>
      </trkpt>
      <trkpt lat="43.784" lon="7.14378">
        <ele>821</ele>
        <time>2019-04-27T12:18:13Z</time>
      </trkpt>
      <trkpt lat="43.784" lon="7.14378">
        <ele>821</ele>
        <time>2019-04-27T12:18:19Z</time>
      </trkpt>
      <trkpt lat="43.78396" lon="7.14383">
        <ele>821</ele>
        <time>2019-04-27T12:18:25Z</time>
      </trkpt>
      <trkpt lat="43.78391" lon="7.14388">
        <ele>820</ele>
        <time>2019-04-27T12:18:31Z</time>
      </trkpt>
      <trkpt lat="43.78387" lon="7.14392">
        <ele>820</ele>
        <time>2019-04-27T12:18:37Z</time>
      </trkpt>
      <trkpt lat="43.78383" lon="7.14394">
        <ele>821</ele>
        <time>2019-04-27T12:18:43Z</time>
      </trkpt>
      <trkpt lat="43.78377" lon="7.14397">
        <ele>821</ele>
        <time>2019-04-27T12:18:49Z</time>
      </trkpt>
      <trkpt lat="43.78372" lon="7.14396">
        <ele>821</ele>
        <time>2019-04-27T12:18:55Z</time>
      </trkpt>
      <trkpt lat="43.78371" lon="7.14395">
        <ele>822</ele>
        <time>2019-04-27T12:19:01Z</time>
      </trkpt>
      <trkpt lat="43.78372" lon="7.1439">
        <ele>822</ele>
        <time>2019-04-27T12:19:07Z</time>
      </trkpt>
      <trkpt lat="43.78372" lon="7.1439">
        <ele>822</ele>
        <time>2019-04-27T12:19:13Z</time>
      </trkpt>
      <trkpt lat="43.78373" lon="7.1439">
        <ele>822</ele>
        <time>2019-04-27T12:19:19Z</time>
      </trkpt>
      <trkpt lat="43.78373" lon="7.14391">
        <ele>822</ele>
        <time>2019-04-27T12:19:25Z</time>
      </trkpt>
      <trkpt lat="43.78372" lon="7.1439">
        <ele>822</ele>
        <time>2019-04-27T12:19:31Z</time>
      </trkpt>
      <trkpt lat="43.78371" lon="7.1439">
        <ele>822</ele>
        <time>2019-04-27T12:19:37Z</time>
      </trkpt>
      <trkpt lat="43.78371" lon="7.14391">
        <ele>822</ele>
        <time>2019-04-27T12:19:43Z</time>
      </trkpt>
      <trkpt lat="43.78371" lon="7.14394">
        <ele>822</ele>
        <time>2019-04-27T12:19:49Z</time>
      </trkpt>
      <trkpt lat="43.7837" lon="7.14396">
        <ele>821</ele>
        <time>2019-04-27T12:19:55Z</time>
      </trkpt>
      <trkpt lat="43.7837" lon="7.14397">
        <ele>821</ele>
        <time>2019-04-27T12:20:02Z</time>
      </trkpt>
      <trkpt lat="43.7837" lon="7.14399">
        <ele>821</ele>
        <time>2019-04-27T12:20:07Z</time>
      </trkpt>
      <trkpt lat="43.78369" lon="7.14399">
        <ele>821</ele>
        <time>2019-04-27T12:20:13Z</time>
      </trkpt>
      <trkpt lat="43.78369" lon="7.14399">
        <ele>821</ele>
        <time>2019-04-27T12:20:19Z</time>
      </trkpt>
      <trkpt lat="43.78369" lon="7.14399">
        <ele>821</ele>
        <time>2019-04-27T12:20:25Z</time>
      </trkpt>
      <trkpt lat="43.78369" lon="7.14399">
        <ele>821</ele>
        <time>2019-04-27T12:20:31Z</time>
      </trkpt>
      <trkpt lat="43.78369" lon="7.14398">
        <ele>821</ele>
        <time>2019-04-27T12:20:37Z</time>
      </trkpt>
      <trkpt lat="43.78369" lon="7.14397">
        <ele>821</ele>
        <time>2019-04-27T12:20:43Z</time>
      </trkpt>
      <trkpt lat="43.78369" lon="7.14397">
        <ele>821</ele>
        <time>2019-04-27T12:20:49Z</time>
      </trkpt>
      <trkpt lat="43.78368" lon="7.14397">
        <ele>821</ele>
        <time>2019-04-27T12:20:55Z</time>
      </trkpt>
      <trkpt lat="43.78368" lon="7.14397">
        <ele>821</ele>
        <time>2019-04-27T12:21:01Z</time>
      </trkpt>
      <trkpt lat="43.78368" lon="7.14397">
        <ele>821</ele>
        <time>2019-04-27T12:21:07Z</time>
      </trkpt>
      <trkpt lat="43.78368" lon="7.14397">
        <ele>821</ele>
        <time>2019-04-27T12:21:13Z</time>
      </trkpt>
      <trkpt lat="43.78368" lon="7.14397">
        <ele>821</ele>
        <time>2019-04-27T12:21:19Z</time>
      </trkpt>
      <trkpt lat="43.78368" lon="7.14398">
        <ele>821</ele>
        <time>2019-04-27T12:21:25Z</time>
      </trkpt>
      <trkpt lat="43.78368" lon="7.14398">
        <ele>821</ele>
        <time>2019-04-27T12:21:31Z</time>
      </trkpt>
      <trkpt lat="43.78368" lon="7.14399">
        <ele>821</ele>
        <time>2019-04-27T12:21:37Z</time>
      </trkpt>
      <trkpt lat="43.78369" lon="7.144">
        <ele>821</ele>
        <time>2019-04-27T12:21:43Z</time>
      </trkpt>
      <trkpt lat="43.78369" lon="7.14401">
        <ele>821</ele>
        <time>2019-04-27T12:21:49Z</time>
      </trkpt>
      <trkpt lat="43.78369" lon="7.14401">
        <ele>821</ele>
        <time>2019-04-27T12:21:55Z</time>
      </trkpt>
      <trkpt lat="43.7837" lon="7.14403">
        <ele>821</ele>
        <time>2019-04-27T12:22:01Z</time>
      </trkpt>
      <trkpt lat="43.7837" lon="7.14403">
        <ele>821</ele>
        <time>2019-04-27T12:22:08Z</time>
      </trkpt>
      <trkpt lat="43.7837" lon="7.14402">
        <ele>821</ele>
        <time>2019-04-27T12:22:14Z</time>
      </trkpt>
      <trkpt lat="43.7837" lon="7.14401">
        <ele>821</ele>
        <time>2019-04-27T12:22:20Z</time>
      </trkpt>
      <trkpt lat="43.7837" lon="7.14401">
        <ele>821</ele>
        <time>2019-04-27T12:22:26Z</time>
      </trkpt>
      <trkpt lat="43.78371" lon="7.14401">
        <ele>821</ele>
        <time>2019-04-27T12:22:32Z</time>
      </trkpt>
      <trkpt lat="43.78371" lon="7.14401">
        <ele>821</ele>
        <time>2019-04-27T12:22:38Z</time>
      </trkpt>
      <trkpt lat="43.78371" lon="7.14401">
        <ele>821</ele>
        <time>2019-04-27T12:22:44Z</time>
      </trkpt>
      <trkpt lat="43.78371" lon="7.144">
        <ele>821</ele>
        <time>2019-04-27T12:22:50Z</time>
      </trkpt>
      <trkpt lat="43.78371" lon="7.144">
        <ele>821</ele>
        <time>2019-04-27T12:22:56Z</time>
      </trkpt>
      <trkpt lat="43.78371" lon="7.144">
        <ele>821</ele>
        <time>2019-04-27T12:23:02Z</time>
      </trkpt>
      <trkpt lat="43.78372" lon="7.144">
        <ele>821</ele>
        <time>2019-04-27T12:23:08Z</time>
      </trkpt>
      <trkpt lat="43.78372" lon="7.144">
        <ele>821</ele>
        <time>2019-04-27T12:23:14Z</time>
      </trkpt>
      <trkpt lat="43.78372" lon="7.14399">
        <ele>821</ele>
        <time>2019-04-27T12:23:20Z</time>
      </trkpt>
      <trkpt lat="43.78373" lon="7.14399">
        <ele>821</ele>
        <time>2019-04-27T12:23:26Z</time>
      </trkpt>
      <trkpt lat="43.78372" lon="7.14399">
        <ele>821</ele>
        <time>2019-04-27T12:23:32Z</time>
      </trkpt>
      <trkpt lat="43.78372" lon="7.14399">
        <ele>821</ele>
        <time>2019-04-27T12:23:38Z</time>
      </trkpt>
      <trkpt lat="43.78372" lon="7.14399">
        <ele>821</ele>
        <time>2019-04-27T12:23:44Z</time>
      </trkpt>
      <trkpt lat="43.78372" lon="7.144">
        <ele>821</ele>
        <time>2019-04-27T12:23:50Z</time>
      </trkpt>
      <trkpt lat="43.78372" lon="7.144">
        <ele>821</ele>
        <time>2019-04-27T12:23:56Z</time>
      </trkpt>
      <trkpt lat="43.78372" lon="7.14399">
        <ele>821</ele>
        <time>2019-04-27T12:24:02Z</time>
      </trkpt>
      <trkpt lat="43.78372" lon="7.14398">
        <ele>821</ele>
        <time>2019-04-27T12:24:08Z</time>
      </trkpt>
      <trkpt lat="43.78371" lon="7.14398">
        <ele>821</ele>
        <time>2019-04-27T12:24:14Z</time>
      </trkpt>
      <trkpt lat="43.78372" lon="7.14398">
        <ele>821</ele>
        <time>2019-04-27T12:24:20Z</time>
      </trkpt>
      <trkpt lat="43.78372" lon="7.14398">
        <ele>821</ele>
        <time>2019-04-27T12:24:26Z</time>
      </trkpt>
      <trkpt lat="43.78372" lon="7.14398">
        <ele>821</ele>
        <time>2019-04-27T12:24:32Z</time>
      </trkpt>
      <trkpt lat="43.78372" lon="7.14398">
        <ele>821</ele>
        <time>2019-04-27T12:24:38Z</time>
      </trkpt>
      <trkpt lat="43.78372" lon="7.14397">
        <ele>821</ele>
        <time>2019-04-27T12:24:44Z</time>
      </trkpt>
      <trkpt lat="43.78372" lon="7.14397">
        <ele>821</ele>
        <time>2019-04-27T12:24:50Z</time>
      </trkpt>
      <trkpt lat="43.78372" lon="7.14397">
        <ele>821</ele>
        <time>2019-04-27T12:24:56Z</time>
      </trkpt>
      <trkpt lat="43.78372" lon="7.14397">
        <ele>821</ele>
        <time>2019-04-27T12:25:02Z</time>
      </trkpt>
      <trkpt lat="43.78372" lon="7.14397">
        <ele>821</ele>
        <time>2019-04-27T12:25:08Z</time>
      </trkpt>
      <trkpt lat="43.78372" lon="7.14397">
        <ele>821</ele>
        <time>2019-04-27T12:25:14Z</time>
      </trkpt>
      <trkpt lat="43.78372" lon="7.14397">
        <ele>821</ele>
        <time>2019-04-27T12:25:20Z</time>
      </trkpt>
      <trkpt lat="43.78372" lon="7.14397">
        <ele>821</ele>
        <time>2019-04-27T12:25:26Z</time>
      </trkpt>
      <trkpt lat="43.78372" lon="7.14397">
        <ele>821</ele>
        <time>2019-04-27T12:25:32Z</time>
      </trkpt>
      <trkpt lat="43.78371" lon="7.14397">
        <ele>821</ele>
        <time>2019-04-27T12:25:38Z</time>
      </trkpt>
      <trkpt lat="43.78371" lon="7.14397">
        <ele>821</ele>
        <time>2019-04-27T12:25:44Z</time>
      </trkpt>
      <trkpt lat="43.78371" lon="7.14397">
        <ele>821</ele>
        <time>2019-04-27T12:25:50Z</time>
      </trkpt>
      <trkpt lat="43.78371" lon="7.14397">
        <ele>821</ele>
        <time>2019-04-27T12:25:56Z</time>
      </trkpt>
      <trkpt lat="43.78371" lon="7.14398">
        <ele>821</ele>
        <time>2019-04-27T12:26:02Z</time>
      </trkpt>
      <trkpt lat="43.78372" lon="7.14397">
        <ele>821</ele>
        <time>2019-04-27T12:26:08Z</time>
      </trkpt>
      <trkpt lat="43.78372" lon="7.14399">
        <ele>821</ele>
        <time>2019-04-27T12:26:14Z</time>
      </trkpt>
      <trkpt lat="43.78372" lon="7.144">
        <ele>821</ele>
        <time>2019-04-27T12:26:20Z</time>
      </trkpt>
      <trkpt lat="43.78372" lon="7.144">
        <ele>821</ele>
        <time>2019-04-27T12:26:26Z</time>
      </trkpt>
      <trkpt lat="43.78372" lon="7.144">
        <ele>821</ele>
        <time>2019-04-27T12:26:32Z</time>
      </trkpt>
      <trkpt lat="43.7837" lon="7.14399">
        <ele>821</ele>
        <time>2019-04-27T12:26:38Z</time>
      </trkpt>
      <trkpt lat="43.78369" lon="7.14398">
        <ele>821</ele>
        <time>2019-04-27T12:26:44Z</time>
      </trkpt>
      <trkpt lat="43.78369" lon="7.14398">
        <ele>821</ele>
        <time>2019-04-27T12:26:50Z</time>
      </trkpt>
      <trkpt lat="43.78367" lon="7.14399">
        <ele>821</ele>
        <time>2019-04-27T12:26:56Z</time>
      </trkpt>
      <trkpt lat="43.78367" lon="7.144">
        <ele>822</ele>
        <time>2019-04-27T12:27:02Z</time>
      </trkpt>
      <trkpt lat="43.78367" lon="7.14401">
        <ele>822</ele>
        <time>2019-04-27T12:27:08Z</time>
      </trkpt>
      <trkpt lat="43.78367" lon="7.14401">
        <ele>822</ele>
        <time>2019-04-27T12:27:14Z</time>
      </trkpt>
      <trkpt lat="43.78367" lon="7.14401">
        <ele>821</ele>
        <time>2019-04-27T12:27:20Z</time>
      </trkpt>
      <trkpt lat="43.78369" lon="7.14402">
        <ele>821</ele>
        <time>2019-04-27T12:27:26Z</time>
      </trkpt>
      <trkpt lat="43.78369" lon="7.14402">
        <ele>821</ele>
        <time>2019-04-27T12:27:32Z</time>
      </trkpt>
      <trkpt lat="43.78369" lon="7.14402">
        <ele>821</ele>
        <time>2019-04-27T12:27:38Z</time>
      </trkpt>
      <trkpt lat="43.78369" lon="7.14402">
        <ele>821</ele>
        <time>2019-04-27T12:27:44Z</time>
      </trkpt>
      <trkpt lat="43.7837" lon="7.14402">
        <ele>821</ele>
        <time>2019-04-27T12:27:50Z</time>
      </trkpt>
      <trkpt lat="43.7837" lon="7.14402">
        <ele>821</ele>
        <time>2019-04-27T12:27:56Z</time>
      </trkpt>
      <trkpt lat="43.7837" lon="7.14402">
        <ele>821</ele>
        <time>2019-04-27T12:28:02Z</time>
      </trkpt>
      <trkpt lat="43.7837" lon="7.14402">
        <ele>821</ele>
        <time>2019-04-27T12:28:08Z</time>
      </trkpt>
      <trkpt lat="43.7837" lon="7.14402">
        <ele>821</ele>
        <time>2019-04-27T12:28:14Z</time>
      </trkpt>
      <trkpt lat="43.7837" lon="7.14401">
        <ele>821</ele>
        <time>2019-04-27T12:28:20Z</time>
      </trkpt>
      <trkpt lat="43.7837" lon="7.14401">
        <ele>821</ele>
        <time>2019-04-27T12:28:26Z</time>
      </trkpt>
      <trkpt lat="43.78371" lon="7.144">
        <ele>821</ele>
        <time>2019-04-27T12:28:32Z</time>
      </trkpt>
      <trkpt lat="43.78372" lon="7.14399">
        <ele>821</ele>
        <time>2019-04-27T12:28:38Z</time>
      </trkpt>
      <trkpt lat="43.78373" lon="7.14396">
        <ele>821</ele>
        <time>2019-04-27T12:28:44Z</time>
      </trkpt>
      <trkpt lat="43.78374" lon="7.14396">
        <ele>821</ele>
        <time>2019-04-27T12:28:50Z</time>
      </trkpt>
      <trkpt lat="43.78374" lon="7.14395">
        <ele>821</ele>
        <time>2019-04-27T12:28:56Z</time>
      </trkpt>
      <trkpt lat="43.78374" lon="7.14395">
        <ele>821</ele>
        <time>2019-04-27T12:29:02Z</time>
      </trkpt>
      <trkpt lat="43.78374" lon="7.14395">
        <ele>821</ele>
        <time>2019-04-27T12:29:08Z</time>
      </trkpt>
      <trkpt lat="43.78374" lon="7.14395">
        <ele>821</ele>
        <time>2019-04-27T12:29:14Z</time>
      </trkpt>
      <trkpt lat="43.78374" lon="7.14395">
        <ele>821</ele>
        <time>2019-04-27T12:29:20Z</time>
      </trkpt>
      <trkpt lat="43.78374" lon="7.14395">
        <ele>821</ele>
        <time>2019-04-27T12:29:26Z</time>
      </trkpt>
      <trkpt lat="43.78374" lon="7.14395">
        <ele>821</ele>
        <time>2019-04-27T12:29:32Z</time>
      </trkpt>
      <trkpt lat="43.78374" lon="7.14395">
        <ele>821</ele>
        <time>2019-04-27T12:29:38Z</time>
      </trkpt>
      <trkpt lat="43.78374" lon="7.14395">
        <ele>821</ele>
        <time>2019-04-27T12:29:44Z</time>
      </trkpt>
      <trkpt lat="43.78375" lon="7.14394">
        <ele>821</ele>
        <time>2019-04-27T12:29:50Z</time>
      </trkpt>
      <trkpt lat="43.78375" lon="7.14392">
        <ele>821</ele>
        <time>2019-04-27T12:29:56Z</time>
      </trkpt>
      <trkpt lat="43.78376" lon="7.14392">
        <ele>821</ele>
        <time>2019-04-27T12:30:02Z</time>
      </trkpt>
      <trkpt lat="43.78376" lon="7.14391">
        <ele>821</ele>
        <time>2019-04-27T12:30:08Z</time>
      </trkpt>
      <trkpt lat="43.78375" lon="7.1439">
        <ele>821</ele>
        <time>2019-04-27T12:30:14Z</time>
      </trkpt>
      <trkpt lat="43.78375" lon="7.14389">
        <ele>821</ele>
        <time>2019-04-27T12:30:20Z</time>
      </trkpt>
      <trkpt lat="43.78376" lon="7.1439">
        <ele>821</ele>
        <time>2019-04-27T12:30:26Z</time>
      </trkpt>
      <trkpt lat="43.78376" lon="7.1439">
        <ele>821</ele>
        <time>2019-04-27T12:30:32Z</time>
      </trkpt>
      <trkpt lat="43.78376" lon="7.1439">
        <ele>821</ele>
        <time>2019-04-27T12:30:38Z</time>
      </trkpt>
      <trkpt lat="43.78376" lon="7.1439">
        <ele>821</ele>
        <time>2019-04-27T12:30:44Z</time>
      </trkpt>
      <trkpt lat="43.78376" lon="7.14391">
        <ele>821</ele>
        <time>2019-04-27T12:30:50Z</time>
      </trkpt>
      <trkpt lat="43.78376" lon="7.14392">
        <ele>821</ele>
        <time>2019-04-27T12:30:56Z</time>
      </trkpt>
      <trkpt lat="43.78376" lon="7.14393">
        <ele>821</ele>
        <time>2019-04-27T12:31:02Z</time>
      </trkpt>
      <trkpt lat="43.78375" lon="7.14394">
        <ele>821</ele>
        <time>2019-04-27T12:31:08Z</time>
      </trkpt>
      <trkpt lat="43.78375" lon="7.14394">
        <ele>821</ele>
        <time>2019-04-27T12:31:14Z</time>
      </trkpt>
      <trkpt lat="43.78375" lon="7.14395">
        <ele>821</ele>
        <time>2019-04-27T12:31:20Z</time>
      </trkpt>
      <trkpt lat="43.78376" lon="7.14395">
        <ele>821</ele>
        <time>2019-04-27T12:31:26Z</time>
      </trkpt>
      <trkpt lat="43.78376" lon="7.14395">
        <ele>821</ele>
        <time>2019-04-27T12:31:32Z</time>
      </trkpt>
      <trkpt lat="43.78375" lon="7.14395">
        <ele>821</ele>
        <time>2019-04-27T12:31:38Z</time>
      </trkpt>
      <trkpt lat="43.78375" lon="7.14395">
        <ele>821</ele>
        <time>2019-04-27T12:31:44Z</time>
      </trkpt>
      <trkpt lat="43.78375" lon="7.14396">
        <ele>821</ele>
        <time>2019-04-27T12:31:50Z</time>
      </trkpt>
      <trkpt lat="43.78375" lon="7.14396">
        <ele>821</ele>
        <time>2019-04-27T12:31:56Z</time>
      </trkpt>
      <trkpt lat="43.78375" lon="7.14395">
        <ele>821</ele>
        <time>2019-04-27T12:32:02Z</time>
      </trkpt>
      <trkpt lat="43.78374" lon="7.14394">
        <ele>821</ele>
        <time>2019-04-27T12:32:08Z</time>
      </trkpt>
      <trkpt lat="43.78373" lon="7.14393">
        <ele>822</ele>
        <time>2019-04-27T12:32:14Z</time>
      </trkpt>
      <trkpt lat="43.78373" lon="7.14394">
        <ele>822</ele>
        <time>2019-04-27T12:32:20Z</time>
      </trkpt>
      <trkpt lat="43.78373" lon="7.14394">
        <ele>822</ele>
        <time>2019-04-27T12:32:26Z</time>
      </trkpt>
      <trkpt lat="43.78373" lon="7.14395">
        <ele>822</ele>
        <time>2019-04-27T12:32:32Z</time>
      </trkpt>
      <trkpt lat="43.78373" lon="7.14394">
        <ele>822</ele>
        <time>2019-04-27T12:32:38Z</time>
      </trkpt>
      <trkpt lat="43.78374" lon="7.14393">
        <ele>821</ele>
        <time>2019-04-27T12:32:44Z</time>
      </trkpt>
      <trkpt lat="43.78375" lon="7.14395">
        <ele>821</ele>
        <time>2019-04-27T12:32:50Z</time>
      </trkpt>
      <trkpt lat="43.78375" lon="7.14395">
        <ele>821</ele>
        <time>2019-04-27T12:32:56Z</time>
      </trkpt>
      <trkpt lat="43.78374" lon="7.14395">
        <ele>821</ele>
        <time>2019-04-27T12:33:02Z</time>
      </trkpt>
      <trkpt lat="43.78374" lon="7.14395">
        <ele>821</ele>
        <time>2019-04-27T12:33:08Z</time>
      </trkpt>
      <trkpt lat="43.78374" lon="7.14394">
        <ele>821</ele>
        <time>2019-04-27T12:33:14Z</time>
      </trkpt>
      <trkpt lat="43.78374" lon="7.14394">
        <ele>821</ele>
        <time>2019-04-27T12:33:20Z</time>
      </trkpt>
      <trkpt lat="43.78373" lon="7.14395">
        <ele>821</ele>
        <time>2019-04-27T12:33:26Z</time>
      </trkpt>
      <trkpt lat="43.78369" lon="7.14391">
        <ele>822</ele>
        <time>2019-04-27T12:33:32Z</time>
      </trkpt>
      <trkpt lat="43.78363" lon="7.14387">
        <ele>823</ele>
        <time>2019-04-27T12:33:38Z</time>
      </trkpt>
      <trkpt lat="43.78357" lon="7.14386">
        <ele>824</ele>
        <time>2019-04-27T12:33:44Z</time>
      </trkpt>
      <trkpt lat="43.78351" lon="7.14384">
        <ele>825</ele>
        <time>2019-04-27T12:33:50Z</time>
      </trkpt>
      <trkpt lat="43.78347" lon="7.14379">
        <ele>825</ele>
        <time>2019-04-27T12:33:56Z</time>
      </trkpt>
      <trkpt lat="43.78345" lon="7.14372">
        <ele>826</ele>
        <time>2019-04-27T12:34:02Z</time>
      </trkpt>
      <trkpt lat="43.78342" lon="7.14367">
        <ele>827</ele>
        <time>2019-04-27T12:34:08Z</time>
      </trkpt>
      <trkpt lat="43.78339" lon="7.14362">
        <ele>827</ele>
        <time>2019-04-27T12:34:14Z</time>
      </trkpt>
      <trkpt lat="43.78335" lon="7.14359">
        <ele>827</ele>
        <time>2019-04-27T12:34:20Z</time>
      </trkpt>
      <trkpt lat="43.78329" lon="7.14359">
        <ele>828</ele>
        <time>2019-04-27T12:34:26Z</time>
      </trkpt>
      <trkpt lat="43.78324" lon="7.14359">
        <ele>828</ele>
        <time>2019-04-27T12:34:32Z</time>
      </trkpt>
      <trkpt lat="43.78318" lon="7.14356">
        <ele>828</ele>
        <time>2019-04-27T12:34:38Z</time>
      </trkpt>
      <trkpt lat="43.78312" lon="7.14354">
        <ele>828</ele>
        <time>2019-04-27T12:34:44Z</time>
      </trkpt>
      <trkpt lat="43.78307" lon="7.14352">
        <ele>828</ele>
        <time>2019-04-27T12:34:50Z</time>
      </trkpt>
      <trkpt lat="43.78299" lon="7.14355">
        <ele>828</ele>
        <time>2019-04-27T12:34:56Z</time>
      </trkpt>
      <trkpt lat="43.78291" lon="7.14358">
        <ele>828</ele>
        <time>2019-04-27T12:35:02Z</time>
      </trkpt>
      <trkpt lat="43.78285" lon="7.14361">
        <ele>829</ele>
        <time>2019-04-27T12:35:08Z</time>
      </trkpt>
      <trkpt lat="43.78281" lon="7.14363">
        <ele>829</ele>
        <time>2019-04-27T12:35:14Z</time>
      </trkpt>
      <trkpt lat="43.78275" lon="7.14363">
        <ele>830</ele>
        <time>2019-04-27T12:35:20Z</time>
      </trkpt>
      <trkpt lat="43.78271" lon="7.14364">
        <ele>830</ele>
        <time>2019-04-27T12:35:26Z</time>
      </trkpt>
      <trkpt lat="43.78263" lon="7.14364">
        <ele>831</ele>
        <time>2019-04-27T12:35:32Z</time>
      </trkpt>
      <trkpt lat="43.78258" lon="7.14363">
        <ele>831</ele>
        <time>2019-04-27T12:35:38Z</time>
      </trkpt>
      <trkpt lat="43.78255" lon="7.14358">
        <ele>831</ele>
        <time>2019-04-27T12:35:44Z</time>
      </trkpt>
      <trkpt lat="43.78253" lon="7.14351">
        <ele>831</ele>
        <time>2019-04-27T12:35:50Z</time>
      </trkpt>
      <trkpt lat="43.7825" lon="7.14342">
        <ele>831</ele>
        <time>2019-04-27T12:35:56Z</time>
      </trkpt>
      <trkpt lat="43.78245" lon="7.14334">
        <ele>831</ele>
        <time>2019-04-27T12:36:02Z</time>
      </trkpt>
      <trkpt lat="43.78241" lon="7.14329">
        <ele>832</ele>
        <time>2019-04-27T12:36:08Z</time>
      </trkpt>
      <trkpt lat="43.78236" lon="7.14324">
        <ele>832</ele>
        <time>2019-04-27T12:36:14Z</time>
      </trkpt>
      <trkpt lat="43.7823" lon="7.1432">
        <ele>833</ele>
        <time>2019-04-27T12:36:20Z</time>
      </trkpt>
      <trkpt lat="43.78224" lon="7.1432">
        <ele>833</ele>
        <time>2019-04-27T12:36:26Z</time>
      </trkpt>
      <trkpt lat="43.7822" lon="7.14324">
        <ele>833</ele>
        <time>2019-04-27T12:36:32Z</time>
      </trkpt>
      <trkpt lat="43.78215" lon="7.14324">
        <ele>833</ele>
        <time>2019-04-27T12:36:38Z</time>
      </trkpt>
      <trkpt lat="43.78214" lon="7.14323">
        <ele>833</ele>
        <time>2019-04-27T12:36:44Z</time>
      </trkpt>
      <trkpt lat="43.78211" lon="7.14321">
        <ele>834</ele>
        <time>2019-04-27T12:36:50Z</time>
      </trkpt>
      <trkpt lat="43.78207" lon="7.14319">
        <ele>834</ele>
        <time>2019-04-27T12:36:56Z</time>
      </trkpt>
      <trkpt lat="43.78205" lon="7.14316">
        <ele>834</ele>
        <time>2019-04-27T12:37:02Z</time>
      </trkpt>
      <trkpt lat="43.78201" lon="7.14312">
        <ele>834</ele>
        <time>2019-04-27T12:37:08Z</time>
      </trkpt>
      <trkpt lat="43.78195" lon="7.14308">
        <ele>835</ele>
        <time>2019-04-27T12:37:14Z</time>
      </trkpt>
      <trkpt lat="43.78189" lon="7.14305">
        <ele>835</ele>
        <time>2019-04-27T12:37:20Z</time>
      </trkpt>
      <trkpt lat="43.78184" lon="7.143">
        <ele>835</ele>
        <time>2019-04-27T12:37:26Z</time>
      </trkpt>
      <trkpt lat="43.78179" lon="7.14291">
        <ele>836</ele>
        <time>2019-04-27T12:37:32Z</time>
      </trkpt>
      <trkpt lat="43.78175" lon="7.14285">
        <ele>836</ele>
        <time>2019-04-27T12:37:38Z</time>
      </trkpt>
      <trkpt lat="43.78169" lon="7.14282">
        <ele>837</ele>
        <time>2019-04-27T12:37:44Z</time>
      </trkpt>
      <trkpt lat="43.78163" lon="7.14277">
        <ele>837</ele>
        <time>2019-04-27T12:37:50Z</time>
      </trkpt>
      <trkpt lat="43.78158" lon="7.1427">
        <ele>837</ele>
        <time>2019-04-27T12:37:56Z</time>
      </trkpt>
      <trkpt lat="43.78152" lon="7.14266">
        <ele>837</ele>
        <time>2019-04-27T12:38:02Z</time>
      </trkpt>
      <trkpt lat="43.78147" lon="7.14264">
        <ele>838</ele>
        <time>2019-04-27T12:38:08Z</time>
      </trkpt>
      <trkpt lat="43.78141" lon="7.14262">
        <ele>838</ele>
        <time>2019-04-27T12:38:14Z</time>
      </trkpt>
      <trkpt lat="43.78136" lon="7.1426">
        <ele>838</ele>
        <time>2019-04-27T12:38:20Z</time>
      </trkpt>
      <trkpt lat="43.78132" lon="7.14256">
        <ele>839</ele>
        <time>2019-04-27T12:38:26Z</time>
      </trkpt>
      <trkpt lat="43.78128" lon="7.14252">
        <ele>839</ele>
        <time>2019-04-27T12:38:32Z</time>
      </trkpt>
      <trkpt lat="43.78123" lon="7.1425">
        <ele>839</ele>
        <time>2019-04-27T12:38:38Z</time>
      </trkpt>
      <trkpt lat="43.78117" lon="7.14246">
        <ele>839</ele>
        <time>2019-04-27T12:38:44Z</time>
      </trkpt>
      <trkpt lat="43.78112" lon="7.14241">
        <ele>840</ele>
        <time>2019-04-27T12:38:50Z</time>
      </trkpt>
      <trkpt lat="43.78107" lon="7.14235">
        <ele>840</ele>
        <time>2019-04-27T12:38:56Z</time>
      </trkpt>
      <trkpt lat="43.781" lon="7.14233">
        <ele>840</ele>
        <time>2019-04-27T12:39:02Z</time>
      </trkpt>
      <trkpt lat="43.78095" lon="7.14231">
        <ele>841</ele>
        <time>2019-04-27T12:39:08Z</time>
      </trkpt>
      <trkpt lat="43.7809" lon="7.1423">
        <ele>841</ele>
        <time>2019-04-27T12:39:14Z</time>
      </trkpt>
      <trkpt lat="43.78083" lon="7.14231">
        <ele>841</ele>
        <time>2019-04-27T12:39:20Z</time>
      </trkpt>
      <trkpt lat="43.78078" lon="7.14235">
        <ele>841</ele>
        <time>2019-04-27T12:39:26Z</time>
      </trkpt>
      <trkpt lat="43.78072" lon="7.14235">
        <ele>842</ele>
        <time>2019-04-27T12:39:32Z</time>
      </trkpt>
      <trkpt lat="43.78066" lon="7.14234">
        <ele>842</ele>
        <time>2019-04-27T12:39:38Z</time>
      </trkpt>
      <trkpt lat="43.7806" lon="7.14237">
        <ele>842</ele>
        <time>2019-04-27T12:39:44Z</time>
      </trkpt>
      <trkpt lat="43.78053" lon="7.14241">
        <ele>843</ele>
        <time>2019-04-27T12:39:50Z</time>
      </trkpt>
      <trkpt lat="43.78048" lon="7.14245">
        <ele>843</ele>
        <time>2019-04-27T12:39:56Z</time>
      </trkpt>
      <trkpt lat="43.78043" lon="7.14248">
        <ele>844</ele>
        <time>2019-04-27T12:40:02Z</time>
      </trkpt>
      <trkpt lat="43.78038" lon="7.14248">
        <ele>844</ele>
        <time>2019-04-27T12:40:08Z</time>
      </trkpt>
      <trkpt lat="43.78031" lon="7.14248">
        <ele>845</ele>
        <time>2019-04-27T12:40:14Z</time>
      </trkpt>
      <trkpt lat="43.78023" lon="7.14251">
        <ele>846</ele>
        <time>2019-04-27T12:40:20Z</time>
      </trkpt>
      <trkpt lat="43.78016" lon="7.14253">
        <ele>847</ele>
        <time>2019-04-27T12:40:26Z</time>
      </trkpt>
      <trkpt lat="43.78007" lon="7.14253">
        <ele>848</ele>
        <time>2019-04-27T12:40:32Z</time>
      </trkpt>
      <trkpt lat="43.78001" lon="7.14254">
        <ele>848</ele>
        <time>2019-04-27T12:40:38Z</time>
      </trkpt>
      <trkpt lat="43.77996" lon="7.14256">
        <ele>848</ele>
        <time>2019-04-27T12:40:44Z</time>
      </trkpt>
      <trkpt lat="43.7799" lon="7.14256">
        <ele>849</ele>
        <time>2019-04-27T12:40:50Z</time>
      </trkpt>
      <trkpt lat="43.77983" lon="7.14254">
        <ele>850</ele>
        <time>2019-04-27T12:40:56Z</time>
      </trkpt>
      <trkpt lat="43.77979" lon="7.14254">
        <ele>850</ele>
        <time>2019-04-27T12:41:02Z</time>
      </trkpt>
      <trkpt lat="43.77972" lon="7.14253">
        <ele>851</ele>
        <time>2019-04-27T12:41:08Z</time>
      </trkpt>
      <trkpt lat="43.77966" lon="7.14252">
        <ele>851</ele>
        <time>2019-04-27T12:41:14Z</time>
      </trkpt>
      <trkpt lat="43.77961" lon="7.14251">
        <ele>852</ele>
        <time>2019-04-27T12:41:20Z</time>
      </trkpt>
      <trkpt lat="43.77955" lon="7.1425">
        <ele>852</ele>
        <time>2019-04-27T12:41:26Z</time>
      </trkpt>
      <trkpt lat="43.77949" lon="7.14251">
        <ele>852</ele>
        <time>2019-04-27T12:41:32Z</time>
      </trkpt>
      <trkpt lat="43.77945" lon="7.14254">
        <ele>853</ele>
        <time>2019-04-27T12:41:38Z</time>
      </trkpt>
      <trkpt lat="43.77941" lon="7.14254">
        <ele>853</ele>
        <time>2019-04-27T12:41:44Z</time>
      </trkpt>
      <trkpt lat="43.77935" lon="7.14255">
        <ele>853</ele>
        <time>2019-04-27T12:41:50Z</time>
      </trkpt>
      <trkpt lat="43.77931" lon="7.14257">
        <ele>853</ele>
        <time>2019-04-27T12:41:56Z</time>
      </trkpt>
      <trkpt lat="43.77924" lon="7.14256">
        <ele>854</ele>
        <time>2019-04-27T12:42:02Z</time>
      </trkpt>
      <trkpt lat="43.77917" lon="7.14252">
        <ele>854</ele>
        <time>2019-04-27T12:42:08Z</time>
      </trkpt>
      <trkpt lat="43.7791" lon="7.14249">
        <ele>853</ele>
        <time>2019-04-27T12:42:14Z</time>
      </trkpt>
      <trkpt lat="43.77903" lon="7.14246">
        <ele>853</ele>
        <time>2019-04-27T12:42:20Z</time>
      </trkpt>
      <trkpt lat="43.77897" lon="7.14246">
        <ele>853</ele>
        <time>2019-04-27T12:42:26Z</time>
      </trkpt>
      <trkpt lat="43.7789" lon="7.14247">
        <ele>854</ele>
        <time>2019-04-27T12:42:32Z</time>
      </trkpt>
      <trkpt lat="43.77884" lon="7.14246">
        <ele>854</ele>
        <time>2019-04-27T12:42:38Z</time>
      </trkpt>
      <trkpt lat="43.77879" lon="7.14247">
        <ele>854</ele>
        <time>2019-04-27T12:42:44Z</time>
      </trkpt>
      <trkpt lat="43.77872" lon="7.14246">
        <ele>854</ele>
        <time>2019-04-27T12:42:50Z</time>
      </trkpt>
      <trkpt lat="43.77864" lon="7.14244">
        <ele>855</ele>
        <time>2019-04-27T12:42:56Z</time>
      </trkpt>
      <trkpt lat="43.77858" lon="7.14242">
        <ele>855</ele>
        <time>2019-04-27T12:43:02Z</time>
      </trkpt>
      <trkpt lat="43.77857" lon="7.14243">
        <ele>855</ele>
        <time>2019-04-27T12:43:08Z</time>
      </trkpt>
      <trkpt lat="43.77857" lon="7.14241">
        <ele>855</ele>
        <time>2019-04-27T12:43:14Z</time>
      </trkpt>
      <trkpt lat="43.77857" lon="7.14241">
        <ele>855</ele>
        <time>2019-04-27T12:43:20Z</time>
      </trkpt>
      <trkpt lat="43.77858" lon="7.14241">
        <ele>855</ele>
        <time>2019-04-27T12:43:26Z</time>
      </trkpt>
      <trkpt lat="43.77859" lon="7.14241">
        <ele>855</ele>
        <time>2019-04-27T12:43:32Z</time>
      </trkpt>
      <trkpt lat="43.7786" lon="7.14241">
        <ele>855</ele>
        <time>2019-04-27T12:43:38Z</time>
      </trkpt>
      <trkpt lat="43.77861" lon="7.14244">
        <ele>855</ele>
        <time>2019-04-27T12:43:44Z</time>
      </trkpt>
      <trkpt lat="43.77861" lon="7.14243">
        <ele>855</ele>
        <time>2019-04-27T12:43:50Z</time>
      </trkpt>
      <trkpt lat="43.7786" lon="7.14243">
        <ele>855</ele>
        <time>2019-04-27T12:43:56Z</time>
      </trkpt>
      <trkpt lat="43.77855" lon="7.14239">
        <ele>854</ele>
        <time>2019-04-27T12:44:02Z</time>
      </trkpt>
      <trkpt lat="43.77849" lon="7.14231">
        <ele>853</ele>
        <time>2019-04-27T12:44:08Z</time>
      </trkpt>
      <trkpt lat="43.77844" lon="7.14219">
        <ele>852</ele>
        <time>2019-04-27T12:44:14Z</time>
      </trkpt>
      <trkpt lat="43.77836" lon="7.14212">
        <ele>851</ele>
        <time>2019-04-27T12:44:20Z</time>
      </trkpt>
      <trkpt lat="43.7783" lon="7.14208">
        <ele>851</ele>
        <time>2019-04-27T12:44:26Z</time>
      </trkpt>
      <trkpt lat="43.77824" lon="7.14205">
        <ele>850</ele>
        <time>2019-04-27T12:44:32Z</time>
      </trkpt>
      <trkpt lat="43.77819" lon="7.14202">
        <ele>851</ele>
        <time>2019-04-27T12:44:38Z</time>
      </trkpt>
      <trkpt lat="43.77812" lon="7.14201">
        <ele>851</ele>
        <time>2019-04-27T12:44:44Z</time>
      </trkpt>
      <trkpt lat="43.77806" lon="7.14202">
        <ele>851</ele>
        <time>2019-04-27T12:44:50Z</time>
      </trkpt>
      <trkpt lat="43.77801" lon="7.14201">
        <ele>851</ele>
        <time>2019-04-27T12:44:56Z</time>
      </trkpt>
      <trkpt lat="43.77796" lon="7.14199">
        <ele>851</ele>
        <time>2019-04-27T12:45:02Z</time>
      </trkpt>
      <trkpt lat="43.77791" lon="7.14197">
        <ele>851</ele>
        <time>2019-04-27T12:45:08Z</time>
      </trkpt>
      <trkpt lat="43.77787" lon="7.14194">
        <ele>850</ele>
        <time>2019-04-27T12:45:14Z</time>
      </trkpt>
      <trkpt lat="43.77782" lon="7.14191">
        <ele>850</ele>
        <time>2019-04-27T12:45:20Z</time>
      </trkpt>
      <trkpt lat="43.77775" lon="7.1419">
        <ele>851</ele>
        <time>2019-04-27T12:45:26Z</time>
      </trkpt>
      <trkpt lat="43.77767" lon="7.1419">
        <ele>851</ele>
        <time>2019-04-27T12:45:32Z</time>
      </trkpt>
      <trkpt lat="43.77761" lon="7.14188">
        <ele>850</ele>
        <time>2019-04-27T12:45:38Z</time>
      </trkpt>
      <trkpt lat="43.77752" lon="7.14187">
        <ele>851</ele>
        <time>2019-04-27T12:45:44Z</time>
      </trkpt>
      <trkpt lat="43.77747" lon="7.14184">
        <ele>851</ele>
        <time>2019-04-27T12:45:50Z</time>
      </trkpt>
      <trkpt lat="43.77743" lon="7.1418">
        <ele>850</ele>
        <time>2019-04-27T12:45:56Z</time>
      </trkpt>
      <trkpt lat="43.77736" lon="7.14178">
        <ele>850</ele>
        <time>2019-04-27T12:46:02Z</time>
      </trkpt>
      <trkpt lat="43.77731" lon="7.14178">
        <ele>850</ele>
        <time>2019-04-27T12:46:08Z</time>
      </trkpt>
      <trkpt lat="43.77725" lon="7.14177">
        <ele>850</ele>
        <time>2019-04-27T12:46:14Z</time>
      </trkpt>
      <trkpt lat="43.7772" lon="7.14174">
        <ele>851</ele>
        <time>2019-04-27T12:46:20Z</time>
      </trkpt>
      <trkpt lat="43.77717" lon="7.14168">
        <ele>850</ele>
        <time>2019-04-27T12:46:26Z</time>
      </trkpt>
      <trkpt lat="43.77713" lon="7.14164">
        <ele>850</ele>
        <time>2019-04-27T12:46:32Z</time>
      </trkpt>
      <trkpt lat="43.77707" lon="7.14158">
        <ele>849</ele>
        <time>2019-04-27T12:46:38Z</time>
      </trkpt>
      <trkpt lat="43.77701" lon="7.14156">
        <ele>849</ele>
        <time>2019-04-27T12:46:44Z</time>
      </trkpt>
      <trkpt lat="43.77695" lon="7.14153">
        <ele>848</ele>
        <time>2019-04-27T12:46:50Z</time>
      </trkpt>
      <trkpt lat="43.7769" lon="7.14149">
        <ele>849</ele>
        <time>2019-04-27T12:46:56Z</time>
      </trkpt>
      <trkpt lat="43.77686" lon="7.14145">
        <ele>848</ele>
        <time>2019-04-27T12:47:02Z</time>
      </trkpt>
      <trkpt lat="43.77682" lon="7.1414">
        <ele>848</ele>
        <time>2019-04-27T12:47:08Z</time>
      </trkpt>
      <trkpt lat="43.7768" lon="7.14133">
        <ele>847</ele>
        <time>2019-04-27T12:47:14Z</time>
      </trkpt>
      <trkpt lat="43.77676" lon="7.14123">
        <ele>847</ele>
        <time>2019-04-27T12:47:20Z</time>
      </trkpt>
      <trkpt lat="43.77671" lon="7.14121">
        <ele>847</ele>
        <time>2019-04-27T12:47:26Z</time>
      </trkpt>
      <trkpt lat="43.77668" lon="7.14115">
        <ele>846</ele>
        <time>2019-04-27T12:47:32Z</time>
      </trkpt>
      <trkpt lat="43.77663" lon="7.14109">
        <ele>845</ele>
        <time>2019-04-27T12:47:38Z</time>
      </trkpt>
      <trkpt lat="43.77659" lon="7.14103">
        <ele>845</ele>
        <time>2019-04-27T12:47:44Z</time>
      </trkpt>
      <trkpt lat="43.77655" lon="7.14097">
        <ele>844</ele>
        <time>2019-04-27T12:47:50Z</time>
      </trkpt>
      <trkpt lat="43.77649" lon="7.14092">
        <ele>843</ele>
        <time>2019-04-27T12:47:56Z</time>
      </trkpt>
      <trkpt lat="43.77643" lon="7.14089">
        <ele>843</ele>
        <time>2019-04-27T12:48:02Z</time>
      </trkpt>
      <trkpt lat="43.77639" lon="7.14082">
        <ele>842</ele>
        <time>2019-04-27T12:48:08Z</time>
      </trkpt>
      <trkpt lat="43.77637" lon="7.14077">
        <ele>842</ele>
        <time>2019-04-27T12:48:14Z</time>
      </trkpt>
      <trkpt lat="43.77632" lon="7.14071">
        <ele>842</ele>
        <time>2019-04-27T12:48:20Z</time>
      </trkpt>
      <trkpt lat="43.77627" lon="7.14066">
        <ele>841</ele>
        <time>2019-04-27T12:48:26Z</time>
      </trkpt>
      <trkpt lat="43.77623" lon="7.14061">
        <ele>841</ele>
        <time>2019-04-27T12:48:32Z</time>
      </trkpt>
      <trkpt lat="43.77616" lon="7.1406">
        <ele>840</ele>
        <time>2019-04-27T12:48:38Z</time>
      </trkpt>
      <trkpt lat="43.77611" lon="7.14059">
        <ele>839</ele>
        <time>2019-04-27T12:48:44Z</time>
      </trkpt>
      <trkpt lat="43.77608" lon="7.14056">
        <ele>839</ele>
        <time>2019-04-27T12:48:50Z</time>
      </trkpt>
      <trkpt lat="43.77604" lon="7.14054">
        <ele>838</ele>
        <time>2019-04-27T12:48:56Z</time>
      </trkpt>
      <trkpt lat="43.77598" lon="7.14054">
        <ele>837</ele>
        <time>2019-04-27T12:49:02Z</time>
      </trkpt>
      <trkpt lat="43.77592" lon="7.14052">
        <ele>835</ele>
        <time>2019-04-27T12:49:08Z</time>
      </trkpt>
      <trkpt lat="43.77587" lon="7.14052">
        <ele>835</ele>
        <time>2019-04-27T12:49:14Z</time>
      </trkpt>
      <trkpt lat="43.77582" lon="7.14053">
        <ele>833</ele>
        <time>2019-04-27T12:49:20Z</time>
      </trkpt>
      <trkpt lat="43.77577" lon="7.14053">
        <ele>832</ele>
        <time>2019-04-27T12:49:26Z</time>
      </trkpt>
      <trkpt lat="43.7757" lon="7.14053">
        <ele>830</ele>
        <time>2019-04-27T12:49:32Z</time>
      </trkpt>
      <trkpt lat="43.77566" lon="7.14053">
        <ele>828</ele>
        <time>2019-04-27T12:49:38Z</time>
      </trkpt>
      <trkpt lat="43.77564" lon="7.14054">
        <ele>828</ele>
        <time>2019-04-27T12:49:44Z</time>
      </trkpt>
      <trkpt lat="43.77561" lon="7.14054">
        <ele>826</ele>
        <time>2019-04-27T12:49:50Z</time>
      </trkpt>
      <trkpt lat="43.77556" lon="7.14057">
        <ele>826</ele>
        <time>2019-04-27T12:49:56Z</time>
      </trkpt>
      <trkpt lat="43.7755" lon="7.14061">
        <ele>825</ele>
        <time>2019-04-27T12:50:02Z</time>
      </trkpt>
      <trkpt lat="43.77544" lon="7.14062">
        <ele>823</ele>
        <time>2019-04-27T12:50:08Z</time>
      </trkpt>
      <trkpt lat="43.7754" lon="7.14064">
        <ele>822</ele>
        <time>2019-04-27T12:50:14Z</time>
      </trkpt>
      <trkpt lat="43.77535" lon="7.14064">
        <ele>821</ele>
        <time>2019-04-27T12:50:20Z</time>
      </trkpt>
      <trkpt lat="43.77529" lon="7.14066">
        <ele>819</ele>
        <time>2019-04-27T12:50:26Z</time>
      </trkpt>
      <trkpt lat="43.77526" lon="7.14067">
        <ele>819</ele>
        <time>2019-04-27T12:50:32Z</time>
      </trkpt>
      <trkpt lat="43.77523" lon="7.14064">
        <ele>818</ele>
        <time>2019-04-27T12:50:38Z</time>
      </trkpt>
      <trkpt lat="43.77518" lon="7.14066">
        <ele>816</ele>
        <time>2019-04-27T12:50:44Z</time>
      </trkpt>
      <trkpt lat="43.77514" lon="7.14068">
        <ele>816</ele>
        <time>2019-04-27T12:50:50Z</time>
      </trkpt>
      <trkpt lat="43.77508" lon="7.14068">
        <ele>815</ele>
        <time>2019-04-27T12:50:56Z</time>
      </trkpt>
      <trkpt lat="43.77503" lon="7.14072">
        <ele>815</ele>
        <time>2019-04-27T12:51:02Z</time>
      </trkpt>
      <trkpt lat="43.77497" lon="7.14075">
        <ele>813</ele>
        <time>2019-04-27T12:51:08Z</time>
      </trkpt>
      <trkpt lat="43.7749" lon="7.14074">
        <ele>812</ele>
        <time>2019-04-27T12:51:14Z</time>
      </trkpt>
      <trkpt lat="43.77485" lon="7.14073">
        <ele>811</ele>
        <time>2019-04-27T12:51:20Z</time>
      </trkpt>
      <trkpt lat="43.77479" lon="7.14074">
        <ele>809</ele>
        <time>2019-04-27T12:51:26Z</time>
      </trkpt>
      <trkpt lat="43.77475" lon="7.14075">
        <ele>808</ele>
        <time>2019-04-27T12:51:32Z</time>
      </trkpt>
      <trkpt lat="43.77471" lon="7.14073">
        <ele>808</ele>
        <time>2019-04-27T12:51:38Z</time>
      </trkpt>
      <trkpt lat="43.77465" lon="7.14075">
        <ele>807</ele>
        <time>2019-04-27T12:51:44Z</time>
      </trkpt>
      <trkpt lat="43.77459" lon="7.14075">
        <ele>806</ele>
        <time>2019-04-27T12:51:50Z</time>
      </trkpt>
      <trkpt lat="43.77453" lon="7.14076">
        <ele>804</ele>
        <time>2019-04-27T12:51:56Z</time>
      </trkpt>
      <trkpt lat="43.77448" lon="7.14076">
        <ele>803</ele>
        <time>2019-04-27T12:52:02Z</time>
      </trkpt>
      <trkpt lat="43.77443" lon="7.14075">
        <ele>802</ele>
        <time>2019-04-27T12:52:08Z</time>
      </trkpt>
      <trkpt lat="43.77439" lon="7.14075">
        <ele>802</ele>
        <time>2019-04-27T12:52:14Z</time>
      </trkpt>
      <trkpt lat="43.77432" lon="7.14077">
        <ele>800</ele>
        <time>2019-04-27T12:52:20Z</time>
      </trkpt>
      <trkpt lat="43.77427" lon="7.14079">
        <ele>801</ele>
        <time>2019-04-27T12:52:26Z</time>
      </trkpt>
      <trkpt lat="43.77421" lon="7.14079">
        <ele>799</ele>
        <time>2019-04-27T12:52:32Z</time>
      </trkpt>
      <trkpt lat="43.7742" lon="7.14078">
        <ele>799</ele>
        <time>2019-04-27T12:52:38Z</time>
      </trkpt>
      <trkpt lat="43.77415" lon="7.14078">
        <ele>798</ele>
        <time>2019-04-27T12:52:44Z</time>
      </trkpt>
      <trkpt lat="43.77408" lon="7.1408">
        <ele>797</ele>
        <time>2019-04-27T12:52:50Z</time>
      </trkpt>
      <trkpt lat="43.77401" lon="7.14085">
        <ele>796</ele>
        <time>2019-04-27T12:52:56Z</time>
      </trkpt>
      <trkpt lat="43.77396" lon="7.14087">
        <ele>796</ele>
        <time>2019-04-27T12:53:02Z</time>
      </trkpt>
      <trkpt lat="43.7739" lon="7.14089">
        <ele>795</ele>
        <time>2019-04-27T12:53:08Z</time>
      </trkpt>
      <trkpt lat="43.77385" lon="7.14092">
        <ele>793</ele>
        <time>2019-04-27T12:53:14Z</time>
      </trkpt>
      <trkpt lat="43.77381" lon="7.14095">
        <ele>793</ele>
        <time>2019-04-27T12:53:20Z</time>
      </trkpt>
      <trkpt lat="43.77376" lon="7.14096">
        <ele>793</ele>
        <time>2019-04-27T12:53:26Z</time>
      </trkpt>
      <trkpt lat="43.77371" lon="7.14098">
        <ele>792</ele>
        <time>2019-04-27T12:53:32Z</time>
      </trkpt>
      <trkpt lat="43.77367" lon="7.14102">
        <ele>791</ele>
        <time>2019-04-27T12:53:38Z</time>
      </trkpt>
      <trkpt lat="43.77365" lon="7.14103">
        <ele>791</ele>
        <time>2019-04-27T12:53:44Z</time>
      </trkpt>
      <trkpt lat="43.77367" lon="7.14096">
        <ele>791</ele>
        <time>2019-04-27T12:53:50Z</time>
      </trkpt>
      <trkpt lat="43.7737" lon="7.14086">
        <ele>791</ele>
        <time>2019-04-27T12:53:56Z</time>
      </trkpt>
      <trkpt lat="43.7737" lon="7.14082">
        <ele>790</ele>
        <time>2019-04-27T12:54:02Z</time>
      </trkpt>
      <trkpt lat="43.77364" lon="7.14082">
        <ele>789</ele>
        <time>2019-04-27T12:54:08Z</time>
      </trkpt>
      <trkpt lat="43.77361" lon="7.14082">
        <ele>788</ele>
        <time>2019-04-27T12:54:14Z</time>
      </trkpt>
      <trkpt lat="43.77362" lon="7.14078">
        <ele>788</ele>
        <time>2019-04-27T12:54:20Z</time>
      </trkpt>
      <trkpt lat="43.77361" lon="7.14075">
        <ele>788</ele>
        <time>2019-04-27T12:54:26Z</time>
      </trkpt>
      <trkpt lat="43.77361" lon="7.14074">
        <ele>788</ele>
        <time>2019-04-27T12:54:32Z</time>
      </trkpt>
      <trkpt lat="43.7736" lon="7.14072">
        <ele>788</ele>
        <time>2019-04-27T12:54:38Z</time>
      </trkpt>
      <trkpt lat="43.77359" lon="7.14071">
        <ele>788</ele>
        <time>2019-04-27T12:54:44Z</time>
      </trkpt>
      <trkpt lat="43.77359" lon="7.14071">
        <ele>788</ele>
        <time>2019-04-27T12:54:50Z</time>
      </trkpt>
      <trkpt lat="43.77359" lon="7.14071">
        <ele>788</ele>
        <time>2019-04-27T12:54:56Z</time>
      </trkpt>
      <trkpt lat="43.77357" lon="7.14072">
        <ele>787</ele>
        <time>2019-04-27T12:55:02Z</time>
      </trkpt>
      <trkpt lat="43.77357" lon="7.14072">
        <ele>787</ele>
        <time>2019-04-27T12:55:08Z</time>
      </trkpt>
      <trkpt lat="43.77356" lon="7.14072">
        <ele>787</ele>
        <time>2019-04-27T12:55:14Z</time>
      </trkpt>
      <trkpt lat="43.77356" lon="7.14072">
        <ele>787</ele>
        <time>2019-04-27T12:55:20Z</time>
      </trkpt>
      <trkpt lat="43.77357" lon="7.14072">
        <ele>787</ele>
        <time>2019-04-27T12:55:26Z</time>
      </trkpt>
      <trkpt lat="43.77356" lon="7.14072">
        <ele>787</ele>
        <time>2019-04-27T12:55:32Z</time>
      </trkpt>
      <trkpt lat="43.77354" lon="7.14072">
        <ele>787</ele>
        <time>2019-04-27T12:55:38Z</time>
      </trkpt>
      <trkpt lat="43.77355" lon="7.14073">
        <ele>787</ele>
        <time>2019-04-27T12:55:44Z</time>
      </trkpt>
      <trkpt lat="43.77355" lon="7.14073">
        <ele>787</ele>
        <time>2019-04-27T12:55:50Z</time>
      </trkpt>
      <trkpt lat="43.77354" lon="7.14074">
        <ele>787</ele>
        <time>2019-04-27T12:55:56Z</time>
      </trkpt>
      <trkpt lat="43.77354" lon="7.14074">
        <ele>787</ele>
        <time>2019-04-27T12:56:02Z</time>
      </trkpt>
      <trkpt lat="43.77355" lon="7.14073">
        <ele>787</ele>
        <time>2019-04-27T12:56:08Z</time>
      </trkpt>
      <trkpt lat="43.77354" lon="7.14073">
        <ele>787</ele>
        <time>2019-04-27T12:56:14Z</time>
      </trkpt>
      <trkpt lat="43.77354" lon="7.14073">
        <ele>787</ele>
        <time>2019-04-27T12:56:20Z</time>
      </trkpt>
      <trkpt lat="43.77354" lon="7.14073">
        <ele>787</ele>
        <time>2019-04-27T12:56:26Z</time>
      </trkpt>
      <trkpt lat="43.77354" lon="7.14073">
        <ele>787</ele>
        <time>2019-04-27T12:56:32Z</time>
      </trkpt>
      <trkpt lat="43.77353" lon="7.14073">
        <ele>787</ele>
        <time>2019-04-27T12:56:38Z</time>
      </trkpt>
      <trkpt lat="43.77353" lon="7.14074">
        <ele>787</ele>
        <time>2019-04-27T12:56:44Z</time>
      </trkpt>
      <trkpt lat="43.77352" lon="7.14073">
        <ele>787</ele>
        <time>2019-04-27T12:56:50Z</time>
      </trkpt>
      <trkpt lat="43.77352" lon="7.14073">
        <ele>787</ele>
        <time>2019-04-27T12:56:56Z</time>
      </trkpt>
      <trkpt lat="43.77352" lon="7.14073">
        <ele>787</ele>
        <time>2019-04-27T12:57:02Z</time>
      </trkpt>
      <trkpt lat="43.7735" lon="7.14076">
        <ele>787</ele>
        <time>2019-04-27T12:57:08Z</time>
      </trkpt>
      <trkpt lat="43.77346" lon="7.14081">
        <ele>787</ele>
        <time>2019-04-27T12:57:14Z</time>
      </trkpt>
      <trkpt lat="43.77342" lon="7.14086">
        <ele>786</ele>
        <time>2019-04-27T12:57:20Z</time>
      </trkpt>
      <trkpt lat="43.77337" lon="7.14092">
        <ele>785</ele>
        <time>2019-04-27T12:57:26Z</time>
      </trkpt>
      <trkpt lat="43.77333" lon="7.14097">
        <ele>785</ele>
        <time>2019-04-27T12:57:32Z</time>
      </trkpt>
      <trkpt lat="43.77328" lon="7.14102">
        <ele>784</ele>
        <time>2019-04-27T12:57:38Z</time>
      </trkpt>
      <trkpt lat="43.77323" lon="7.14109">
        <ele>783</ele>
        <time>2019-04-27T12:57:44Z</time>
      </trkpt>
      <trkpt lat="43.7732" lon="7.14115">
        <ele>782</ele>
        <time>2019-04-27T12:57:50Z</time>
      </trkpt>
      <trkpt lat="43.77316" lon="7.1412">
        <ele>782</ele>
        <time>2019-04-27T12:57:56Z</time>
      </trkpt>
      <trkpt lat="43.77313" lon="7.14123">
        <ele>780</ele>
        <time>2019-04-27T12:58:02Z</time>
      </trkpt>
      <trkpt lat="43.77311" lon="7.14131">
        <ele>780</ele>
        <time>2019-04-27T12:58:08Z</time>
      </trkpt>
      <trkpt lat="43.7731" lon="7.1414">
        <ele>780</ele>
        <time>2019-04-27T12:58:14Z</time>
      </trkpt>
      <trkpt lat="43.77309" lon="7.14145">
        <ele>780</ele>
        <time>2019-04-27T12:58:20Z</time>
      </trkpt>
      <trkpt lat="43.77306" lon="7.14152">
        <ele>778</ele>
        <time>2019-04-27T12:58:26Z</time>
      </trkpt>
      <trkpt lat="43.77302" lon="7.14158">
        <ele>779</ele>
        <time>2019-04-27T12:58:32Z</time>
      </trkpt>
      <trkpt lat="43.773" lon="7.14164">
        <ele>777</ele>
        <time>2019-04-27T12:58:38Z</time>
      </trkpt>
      <trkpt lat="43.77295" lon="7.14173">
        <ele>776</ele>
        <time>2019-04-27T12:58:44Z</time>
      </trkpt>
      <trkpt lat="43.77293" lon="7.14178">
        <ele>776</ele>
        <time>2019-04-27T12:58:50Z</time>
      </trkpt>
      <trkpt lat="43.77289" lon="7.14182">
        <ele>774</ele>
        <time>2019-04-27T12:58:56Z</time>
      </trkpt>
      <trkpt lat="43.77285" lon="7.14187">
        <ele>774</ele>
        <time>2019-04-27T12:59:02Z</time>
      </trkpt>
      <trkpt lat="43.77281" lon="7.14192">
        <ele>772</ele>
        <time>2019-04-27T12:59:08Z</time>
      </trkpt>
      <trkpt lat="43.77275" lon="7.14196">
        <ele>771</ele>
        <time>2019-04-27T12:59:14Z</time>
      </trkpt>
      <trkpt lat="43.77271" lon="7.14203">
        <ele>771</ele>
        <time>2019-04-27T12:59:20Z</time>
      </trkpt>
      <trkpt lat="43.77269" lon="7.14209">
        <ele>770</ele>
        <time>2019-04-27T12:59:26Z</time>
      </trkpt>
      <trkpt lat="43.77265" lon="7.14216">
        <ele>770</ele>
        <time>2019-04-27T12:59:32Z</time>
      </trkpt>
      <trkpt lat="43.77262" lon="7.14222">
        <ele>768</ele>
        <time>2019-04-27T12:59:38Z</time>
      </trkpt>
      <trkpt lat="43.7726" lon="7.14229">
        <ele>769</ele>
        <time>2019-04-27T12:59:44Z</time>
      </trkpt>
      <trkpt lat="43.77259" lon="7.14235">
        <ele>769</ele>
        <time>2019-04-27T12:59:50Z</time>
      </trkpt>
      <trkpt lat="43.77258" lon="7.14236">
        <ele>767</ele>
        <time>2019-04-27T12:59:56Z</time>
      </trkpt>
      <trkpt lat="43.77258" lon="7.14236">
        <ele>767</ele>
        <time>2019-04-27T13:00:02Z</time>
      </trkpt>
      <trkpt lat="43.77258" lon="7.14235">
        <ele>767</ele>
        <time>2019-04-27T13:00:08Z</time>
      </trkpt>
      <trkpt lat="43.77258" lon="7.14236">
        <ele>767</ele>
        <time>2019-04-27T13:00:14Z</time>
      </trkpt>
      <trkpt lat="43.77256" lon="7.14238">
        <ele>767</ele>
        <time>2019-04-27T13:00:20Z</time>
      </trkpt>
      <trkpt lat="43.77255" lon="7.14243">
        <ele>767</ele>
        <time>2019-04-27T13:00:26Z</time>
      </trkpt>
      <trkpt lat="43.77254" lon="7.14249">
        <ele>767</ele>
        <time>2019-04-27T13:00:32Z</time>
      </trkpt>
      <trkpt lat="43.77253" lon="7.14258">
        <ele>767</ele>
        <time>2019-04-27T13:00:38Z</time>
      </trkpt>
      <trkpt lat="43.77249" lon="7.14257">
        <ele>766</ele>
        <time>2019-04-27T13:00:44Z</time>
      </trkpt>
      <trkpt lat="43.77241" lon="7.14253">
        <ele>764</ele>
        <time>2019-04-27T13:00:50Z</time>
      </trkpt>
      <trkpt lat="43.77234" lon="7.14252">
        <ele>762</ele>
        <time>2019-04-27T13:00:56Z</time>
      </trkpt>
      <trkpt lat="43.77226" lon="7.14254">
        <ele>759</ele>
        <time>2019-04-27T13:01:02Z</time>
      </trkpt>
      <trkpt lat="43.77219" lon="7.14257">
        <ele>758</ele>
        <time>2019-04-27T13:01:08Z</time>
      </trkpt>
      <trkpt lat="43.77214" lon="7.14259">
        <ele>759</ele>
        <time>2019-04-27T13:01:14Z</time>
      </trkpt>
      <trkpt lat="43.77212" lon="7.1426">
        <ele>759</ele>
        <time>2019-04-27T13:01:20Z</time>
      </trkpt>
      <trkpt lat="43.77212" lon="7.14261">
        <ele>759</ele>
        <time>2019-04-27T13:01:26Z</time>
      </trkpt>
      <trkpt lat="43.77213" lon="7.14261">
        <ele>759</ele>
        <time>2019-04-27T13:01:32Z</time>
      </trkpt>
      <trkpt lat="43.77213" lon="7.14261">
        <ele>759</ele>
        <time>2019-04-27T13:01:38Z</time>
      </trkpt>
      <trkpt lat="43.77214" lon="7.14261">
        <ele>759</ele>
        <time>2019-04-27T13:01:44Z</time>
      </trkpt>
      <trkpt lat="43.77213" lon="7.14261">
        <ele>759</ele>
        <time>2019-04-27T13:01:50Z</time>
      </trkpt>
      <trkpt lat="43.7721" lon="7.14262">
        <ele>759</ele>
        <time>2019-04-27T13:01:56Z</time>
      </trkpt>
      <trkpt lat="43.7721" lon="7.14263">
        <ele>759</ele>
        <time>2019-04-27T13:02:02Z</time>
      </trkpt>
      <trkpt lat="43.77208" lon="7.14264">
        <ele>760</ele>
        <time>2019-04-27T13:02:08Z</time>
      </trkpt>
      <trkpt lat="43.77208" lon="7.14266">
        <ele>759</ele>
        <time>2019-04-27T13:02:14Z</time>
      </trkpt>
      <trkpt lat="43.77209" lon="7.14267">
        <ele>758</ele>
        <time>2019-04-27T13:02:20Z</time>
      </trkpt>
      <trkpt lat="43.77209" lon="7.14267">
        <ele>758</ele>
        <time>2019-04-27T13:02:26Z</time>
      </trkpt>
      <trkpt lat="43.77208" lon="7.14267">
        <ele>759</ele>
        <time>2019-04-27T13:02:32Z</time>
      </trkpt>
      <trkpt lat="43.77208" lon="7.14267">
        <ele>759</ele>
        <time>2019-04-27T13:02:38Z</time>
      </trkpt>
      <trkpt lat="43.77207" lon="7.14267">
        <ele>759</ele>
        <time>2019-04-27T13:02:44Z</time>
      </trkpt>
      <trkpt lat="43.772" lon="7.14269">
        <ele>760</ele>
        <time>2019-04-27T13:02:50Z</time>
      </trkpt>
      <trkpt lat="43.77198" lon="7.14271">
        <ele>760</ele>
        <time>2019-04-27T13:02:56Z</time>
      </trkpt>
      <trkpt lat="43.77198" lon="7.14271">
        <ele>760</ele>
        <time>2019-04-27T13:03:02Z</time>
      </trkpt>
      <trkpt lat="43.77195" lon="7.14271">
        <ele>760</ele>
        <time>2019-04-27T13:03:08Z</time>
      </trkpt>
      <trkpt lat="43.7719" lon="7.14275">
        <ele>759</ele>
        <time>2019-04-27T13:03:14Z</time>
      </trkpt>
      <trkpt lat="43.77185" lon="7.14281">
        <ele>760</ele>
        <time>2019-04-27T13:03:20Z</time>
      </trkpt>
      <trkpt lat="43.77182" lon="7.14283">
        <ele>760</ele>
        <time>2019-04-27T13:03:26Z</time>
      </trkpt>
      <trkpt lat="43.77177" lon="7.14289">
        <ele>760</ele>
        <time>2019-04-27T13:03:32Z</time>
      </trkpt>
      <trkpt lat="43.77173" lon="7.14296">
        <ele>760</ele>
        <time>2019-04-27T13:03:38Z</time>
      </trkpt>
      <trkpt lat="43.77169" lon="7.14303">
        <ele>759</ele>
        <time>2019-04-27T13:03:44Z</time>
      </trkpt>
      <trkpt lat="43.77165" lon="7.14309">
        <ele>759</ele>
        <time>2019-04-27T13:03:50Z</time>
      </trkpt>
      <trkpt lat="43.7716" lon="7.14316">
        <ele>759</ele>
        <time>2019-04-27T13:03:56Z</time>
      </trkpt>
      <trkpt lat="43.77155" lon="7.14322">
        <ele>759</ele>
        <time>2019-04-27T13:04:02Z</time>
      </trkpt>
      <trkpt lat="43.77149" lon="7.14328">
        <ele>759</ele>
        <time>2019-04-27T13:04:08Z</time>
      </trkpt>
      <trkpt lat="43.77144" lon="7.14334">
        <ele>759</ele>
        <time>2019-04-27T13:04:14Z</time>
      </trkpt>
      <trkpt lat="43.7714" lon="7.14339">
        <ele>759</ele>
        <time>2019-04-27T13:04:20Z</time>
      </trkpt>
      <trkpt lat="43.77135" lon="7.14346">
        <ele>758</ele>
        <time>2019-04-27T13:04:26Z</time>
      </trkpt>
      <trkpt lat="43.77129" lon="7.14351">
        <ele>759</ele>
        <time>2019-04-27T13:04:32Z</time>
      </trkpt>
      <trkpt lat="43.77123" lon="7.14358">
        <ele>758</ele>
        <time>2019-04-27T13:04:38Z</time>
      </trkpt>
      <trkpt lat="43.77118" lon="7.14366">
        <ele>758</ele>
        <time>2019-04-27T13:04:44Z</time>
      </trkpt>
      <trkpt lat="43.77114" lon="7.14372">
        <ele>757</ele>
        <time>2019-04-27T13:04:50Z</time>
      </trkpt>
      <trkpt lat="43.77109" lon="7.1438">
        <ele>757</ele>
        <time>2019-04-27T13:04:56Z</time>
      </trkpt>
      <trkpt lat="43.77104" lon="7.14385">
        <ele>757</ele>
        <time>2019-04-27T13:05:02Z</time>
      </trkpt>
      <trkpt lat="43.77099" lon="7.14388">
        <ele>756</ele>
        <time>2019-04-27T13:05:08Z</time>
      </trkpt>
      <trkpt lat="43.77094" lon="7.14394">
        <ele>757</ele>
        <time>2019-04-27T13:05:14Z</time>
      </trkpt>
      <trkpt lat="43.77087" lon="7.14397">
        <ele>757</ele>
        <time>2019-04-27T13:05:20Z</time>
      </trkpt>
      <trkpt lat="43.77082" lon="7.14401">
        <ele>757</ele>
        <time>2019-04-27T13:05:26Z</time>
      </trkpt>
      <trkpt lat="43.77076" lon="7.14403">
        <ele>756</ele>
        <time>2019-04-27T13:05:32Z</time>
      </trkpt>
      <trkpt lat="43.7707" lon="7.14407">
        <ele>756</ele>
        <time>2019-04-27T13:05:38Z</time>
      </trkpt>
      <trkpt lat="43.77066" lon="7.1441">
        <ele>756</ele>
        <time>2019-04-27T13:05:44Z</time>
      </trkpt>
      <trkpt lat="43.77063" lon="7.14411">
        <ele>756</ele>
        <time>2019-04-27T13:05:50Z</time>
      </trkpt>
      <trkpt lat="43.7706" lon="7.14416">
        <ele>754</ele>
        <time>2019-04-27T13:05:56Z</time>
      </trkpt>
      <trkpt lat="43.77059" lon="7.14418">
        <ele>755</ele>
        <time>2019-04-27T13:06:02Z</time>
      </trkpt>
      <trkpt lat="43.77056" lon="7.1442">
        <ele>755</ele>
        <time>2019-04-27T13:06:08Z</time>
      </trkpt>
      <trkpt lat="43.77051" lon="7.14425">
        <ele>754</ele>
        <time>2019-04-27T13:06:14Z</time>
      </trkpt>
      <trkpt lat="43.77049" lon="7.14429">
        <ele>753</ele>
        <time>2019-04-27T13:06:20Z</time>
      </trkpt>
      <trkpt lat="43.77046" lon="7.1443">
        <ele>753</ele>
        <time>2019-04-27T13:06:26Z</time>
      </trkpt>
      <trkpt lat="43.7704" lon="7.14431">
        <ele>754</ele>
        <time>2019-04-27T13:06:32Z</time>
      </trkpt>
      <trkpt lat="43.77034" lon="7.14434">
        <ele>755</ele>
        <time>2019-04-27T13:06:38Z</time>
      </trkpt>
      <trkpt lat="43.77029" lon="7.1444">
        <ele>754</ele>
        <time>2019-04-27T13:06:44Z</time>
      </trkpt>
      <trkpt lat="43.77024" lon="7.14446">
        <ele>754</ele>
        <time>2019-04-27T13:06:50Z</time>
      </trkpt>
      <trkpt lat="43.77019" lon="7.14449">
        <ele>753</ele>
        <time>2019-04-27T13:06:56Z</time>
      </trkpt>
      <trkpt lat="43.77015" lon="7.14453">
        <ele>753</ele>
        <time>2019-04-27T13:07:02Z</time>
      </trkpt>
      <trkpt lat="43.7701" lon="7.14457">
        <ele>753</ele>
        <time>2019-04-27T13:07:08Z</time>
      </trkpt>
      <trkpt lat="43.77005" lon="7.14458">
        <ele>753</ele>
        <time>2019-04-27T13:07:14Z</time>
      </trkpt>
      <trkpt lat="43.77001" lon="7.14461">
        <ele>753</ele>
        <time>2019-04-27T13:07:20Z</time>
      </trkpt>
      <trkpt lat="43.76995" lon="7.14465">
        <ele>753</ele>
        <time>2019-04-27T13:07:26Z</time>
      </trkpt>
      <trkpt lat="43.7699" lon="7.14468">
        <ele>752</ele>
        <time>2019-04-27T13:07:32Z</time>
      </trkpt>
      <trkpt lat="43.76984" lon="7.14471">
        <ele>752</ele>
        <time>2019-04-27T13:07:38Z</time>
      </trkpt>
      <trkpt lat="43.76979" lon="7.14473">
        <ele>752</ele>
        <time>2019-04-27T13:07:44Z</time>
      </trkpt>
      <trkpt lat="43.76974" lon="7.14473">
        <ele>752</ele>
        <time>2019-04-27T13:07:50Z</time>
      </trkpt>
      <trkpt lat="43.76969" lon="7.14474">
        <ele>751</ele>
        <time>2019-04-27T13:07:56Z</time>
      </trkpt>
      <trkpt lat="43.76963" lon="7.14473">
        <ele>751</ele>
        <time>2019-04-27T13:08:02Z</time>
      </trkpt>
      <trkpt lat="43.76957" lon="7.14473">
        <ele>750</ele>
        <time>2019-04-27T13:08:08Z</time>
      </trkpt>
      <trkpt lat="43.76951" lon="7.14474">
        <ele>750</ele>
        <time>2019-04-27T13:08:14Z</time>
      </trkpt>
      <trkpt lat="43.76944" lon="7.14476">
        <ele>749</ele>
        <time>2019-04-27T13:08:20Z</time>
      </trkpt>
      <trkpt lat="43.76938" lon="7.14477">
        <ele>748</ele>
        <time>2019-04-27T13:08:26Z</time>
      </trkpt>
      <trkpt lat="43.76931" lon="7.14479">
        <ele>747</ele>
        <time>2019-04-27T13:08:32Z</time>
      </trkpt>
      <trkpt lat="43.76926" lon="7.14481">
        <ele>748</ele>
        <time>2019-04-27T13:08:38Z</time>
      </trkpt>
      <trkpt lat="43.7692" lon="7.14483">
        <ele>748</ele>
        <time>2019-04-27T13:08:44Z</time>
      </trkpt>
      <trkpt lat="43.76913" lon="7.14484">
        <ele>748</ele>
        <time>2019-04-27T13:08:50Z</time>
      </trkpt>
      <trkpt lat="43.76906" lon="7.14486">
        <ele>747</ele>
        <time>2019-04-27T13:08:56Z</time>
      </trkpt>
      <trkpt lat="43.769" lon="7.14487">
        <ele>747</ele>
        <time>2019-04-27T13:09:02Z</time>
      </trkpt>
      <trkpt lat="43.76893" lon="7.14486">
        <ele>746</ele>
        <time>2019-04-27T13:09:08Z</time>
      </trkpt>
      <trkpt lat="43.76887" lon="7.14486">
        <ele>746</ele>
        <time>2019-04-27T13:09:14Z</time>
      </trkpt>
      <trkpt lat="43.76882" lon="7.14487">
        <ele>746</ele>
        <time>2019-04-27T13:09:20Z</time>
      </trkpt>
      <trkpt lat="43.76876" lon="7.14486">
        <ele>745</ele>
        <time>2019-04-27T13:09:26Z</time>
      </trkpt>
      <trkpt lat="43.76869" lon="7.14485">
        <ele>745</ele>
        <time>2019-04-27T13:09:32Z</time>
      </trkpt>
      <trkpt lat="43.76862" lon="7.14485">
        <ele>745</ele>
        <time>2019-04-27T13:09:38Z</time>
      </trkpt>
      <trkpt lat="43.76857" lon="7.14483">
        <ele>744</ele>
        <time>2019-04-27T13:09:44Z</time>
      </trkpt>
      <trkpt lat="43.76853" lon="7.14483">
        <ele>744</ele>
        <time>2019-04-27T13:09:50Z</time>
      </trkpt>
      <trkpt lat="43.76847" lon="7.14481">
        <ele>744</ele>
        <time>2019-04-27T13:09:56Z</time>
      </trkpt>
      <trkpt lat="43.76841" lon="7.14482">
        <ele>744</ele>
        <time>2019-04-27T13:10:02Z</time>
      </trkpt>
      <trkpt lat="43.76836" lon="7.1448">
        <ele>743</ele>
        <time>2019-04-27T13:10:08Z</time>
      </trkpt>
      <trkpt lat="43.76828" lon="7.1448">
        <ele>743</ele>
        <time>2019-04-27T13:10:14Z</time>
      </trkpt>
      <trkpt lat="43.76823" lon="7.1448">
        <ele>742</ele>
        <time>2019-04-27T13:10:20Z</time>
      </trkpt>
      <trkpt lat="43.76817" lon="7.14479">
        <ele>742</ele>
        <time>2019-04-27T13:10:26Z</time>
      </trkpt>
      <trkpt lat="43.76813" lon="7.14478">
        <ele>742</ele>
        <time>2019-04-27T13:10:32Z</time>
      </trkpt>
      <trkpt lat="43.76808" lon="7.14476">
        <ele>742</ele>
        <time>2019-04-27T13:10:38Z</time>
      </trkpt>
      <trkpt lat="43.76804" lon="7.14476">
        <ele>741</ele>
        <time>2019-04-27T13:10:44Z</time>
      </trkpt>
      <trkpt lat="43.76798" lon="7.14476">
        <ele>741</ele>
        <time>2019-04-27T13:10:50Z</time>
      </trkpt>
      <trkpt lat="43.76792" lon="7.14477">
        <ele>739</ele>
        <time>2019-04-27T13:10:56Z</time>
      </trkpt>
      <trkpt lat="43.76788" lon="7.14474">
        <ele>739</ele>
        <time>2019-04-27T13:11:02Z</time>
      </trkpt>
      <trkpt lat="43.76782" lon="7.14471">
        <ele>737</ele>
        <time>2019-04-27T13:11:08Z</time>
      </trkpt>
      <trkpt lat="43.76776" lon="7.14469">
        <ele>735</ele>
        <time>2019-04-27T13:11:14Z</time>
      </trkpt>
      <trkpt lat="43.76771" lon="7.14465">
        <ele>734</ele>
        <time>2019-04-27T13:11:20Z</time>
      </trkpt>
      <trkpt lat="43.76767" lon="7.1446">
        <ele>733</ele>
        <time>2019-04-27T13:11:26Z</time>
      </trkpt>
      <trkpt lat="43.76761" lon="7.14458">
        <ele>733</ele>
        <time>2019-04-27T13:11:32Z</time>
      </trkpt>
      <trkpt lat="43.76756" lon="7.14458">
        <ele>733</ele>
        <time>2019-04-27T13:11:38Z</time>
      </trkpt>
      <trkpt lat="43.76752" lon="7.14464">
        <ele>734</ele>
        <time>2019-04-27T13:11:44Z</time>
      </trkpt>
      <trkpt lat="43.76751" lon="7.14469">
        <ele>734</ele>
        <time>2019-04-27T13:11:50Z</time>
      </trkpt>
      <trkpt lat="43.76748" lon="7.14469">
        <ele>733</ele>
        <time>2019-04-27T13:11:56Z</time>
      </trkpt>
      <trkpt lat="43.76747" lon="7.1447">
        <ele>733</ele>
        <time>2019-04-27T13:12:02Z</time>
      </trkpt>
      <trkpt lat="43.76747" lon="7.14472">
        <ele>734</ele>
        <time>2019-04-27T13:12:08Z</time>
      </trkpt>
      <trkpt lat="43.76746" lon="7.14471">
        <ele>733</ele>
        <time>2019-04-27T13:12:14Z</time>
      </trkpt>
      <trkpt lat="43.76744" lon="7.14471">
        <ele>733</ele>
        <time>2019-04-27T13:12:20Z</time>
      </trkpt>
      <trkpt lat="43.76741" lon="7.14469">
        <ele>732</ele>
        <time>2019-04-27T13:12:26Z</time>
      </trkpt>
      <trkpt lat="43.76739" lon="7.14469">
        <ele>732</ele>
        <time>2019-04-27T13:12:32Z</time>
      </trkpt>
      <trkpt lat="43.76735" lon="7.14464">
        <ele>731</ele>
        <time>2019-04-27T13:12:38Z</time>
      </trkpt>
      <trkpt lat="43.76733" lon="7.14462">
        <ele>730</ele>
        <time>2019-04-27T13:12:44Z</time>
      </trkpt>
      <trkpt lat="43.76729" lon="7.14459">
        <ele>729</ele>
        <time>2019-04-27T13:12:50Z</time>
      </trkpt>
      <trkpt lat="43.76724" lon="7.14456">
        <ele>728</ele>
        <time>2019-04-27T13:12:56Z</time>
      </trkpt>
      <trkpt lat="43.76719" lon="7.14454">
        <ele>727</ele>
        <time>2019-04-27T13:13:02Z</time>
      </trkpt>
      <trkpt lat="43.76713" lon="7.14451">
        <ele>727</ele>
        <time>2019-04-27T13:13:08Z</time>
      </trkpt>
      <trkpt lat="43.7671" lon="7.14449">
        <ele>726</ele>
        <time>2019-04-27T13:13:14Z</time>
      </trkpt>
      <trkpt lat="43.76705" lon="7.14449">
        <ele>726</ele>
        <time>2019-04-27T13:13:20Z</time>
      </trkpt>
      <trkpt lat="43.76701" lon="7.14448">
        <ele>726</ele>
        <time>2019-04-27T13:13:26Z</time>
      </trkpt>
      <trkpt lat="43.76696" lon="7.14446">
        <ele>724</ele>
        <time>2019-04-27T13:13:32Z</time>
      </trkpt>
      <trkpt lat="43.76691" lon="7.14443">
        <ele>723</ele>
        <time>2019-04-27T13:13:38Z</time>
      </trkpt>
      <trkpt lat="43.76686" lon="7.14441">
        <ele>722</ele>
        <time>2019-04-27T13:13:44Z</time>
      </trkpt>
      <trkpt lat="43.7668" lon="7.1444">
        <ele>721</ele>
        <time>2019-04-27T13:13:50Z</time>
      </trkpt>
      <trkpt lat="43.76675" lon="7.14437">
        <ele>719</ele>
        <time>2019-04-27T13:13:56Z</time>
      </trkpt>
      <trkpt lat="43.76671" lon="7.14436">
        <ele>719</ele>
        <time>2019-04-27T13:14:02Z</time>
      </trkpt>
      <trkpt lat="43.76668" lon="7.14435">
        <ele>718</ele>
        <time>2019-04-27T13:14:08Z</time>
      </trkpt>
      <trkpt lat="43.76663" lon="7.14435">
        <ele>718</ele>
        <time>2019-04-27T13:14:14Z</time>
      </trkpt>
      <trkpt lat="43.76656" lon="7.14435">
        <ele>717</ele>
        <time>2019-04-27T13:14:20Z</time>
      </trkpt>
      <trkpt lat="43.7665" lon="7.14435">
        <ele>716</ele>
        <time>2019-04-27T13:14:26Z</time>
      </trkpt>
      <trkpt lat="43.76645" lon="7.14434">
        <ele>716</ele>
        <time>2019-04-27T13:14:32Z</time>
      </trkpt>
      <trkpt lat="43.76638" lon="7.14432">
        <ele>715</ele>
        <time>2019-04-27T13:14:38Z</time>
      </trkpt>
      <trkpt lat="43.76634" lon="7.14432">
        <ele>714</ele>
        <time>2019-04-27T13:14:44Z</time>
      </trkpt>
      <trkpt lat="43.76627" lon="7.14431">
        <ele>713</ele>
        <time>2019-04-27T13:14:50Z</time>
      </trkpt>
      <trkpt lat="43.76622" lon="7.14432">
        <ele>712</ele>
        <time>2019-04-27T13:14:56Z</time>
      </trkpt>
      <trkpt lat="43.76617" lon="7.14432">
        <ele>711</ele>
        <time>2019-04-27T13:15:02Z</time>
      </trkpt>
      <trkpt lat="43.76611" lon="7.14432">
        <ele>710</ele>
        <time>2019-04-27T13:15:08Z</time>
      </trkpt>
      <trkpt lat="43.76606" lon="7.14432">
        <ele>710</ele>
        <time>2019-04-27T13:15:14Z</time>
      </trkpt>
      <trkpt lat="43.76602" lon="7.14432">
        <ele>710</ele>
        <time>2019-04-27T13:15:20Z</time>
      </trkpt>
      <trkpt lat="43.76597" lon="7.14433">
        <ele>709</ele>
        <time>2019-04-27T13:15:26Z</time>
      </trkpt>
      <trkpt lat="43.76589" lon="7.14435">
        <ele>708</ele>
        <time>2019-04-27T13:15:32Z</time>
      </trkpt>
      <trkpt lat="43.76584" lon="7.14434">
        <ele>707</ele>
        <time>2019-04-27T13:15:38Z</time>
      </trkpt>
      <trkpt lat="43.76577" lon="7.14435">
        <ele>706</ele>
        <time>2019-04-27T13:15:44Z</time>
      </trkpt>
      <trkpt lat="43.76569" lon="7.14436">
        <ele>704</ele>
        <time>2019-04-27T13:15:50Z</time>
      </trkpt>
      <trkpt lat="43.76562" lon="7.14438">
        <ele>704</ele>
        <time>2019-04-27T13:15:56Z</time>
      </trkpt>
      <trkpt lat="43.76556" lon="7.14437">
        <ele>702</ele>
        <time>2019-04-27T13:16:02Z</time>
      </trkpt>
      <trkpt lat="43.76551" lon="7.14436">
        <ele>701</ele>
        <time>2019-04-27T13:16:08Z</time>
      </trkpt>
      <trkpt lat="43.76544" lon="7.14436">
        <ele>700</ele>
        <time>2019-04-27T13:16:14Z</time>
      </trkpt>
      <trkpt lat="43.76538" lon="7.14437">
        <ele>699</ele>
        <time>2019-04-27T13:16:20Z</time>
      </trkpt>
      <trkpt lat="43.76532" lon="7.14439">
        <ele>699</ele>
        <time>2019-04-27T13:16:26Z</time>
      </trkpt>
      <trkpt lat="43.76525" lon="7.14441">
        <ele>698</ele>
        <time>2019-04-27T13:16:32Z</time>
      </trkpt>
      <trkpt lat="43.76521" lon="7.14443">
        <ele>698</ele>
        <time>2019-04-27T13:16:38Z</time>
      </trkpt>
      <trkpt lat="43.76517" lon="7.14447">
        <ele>698</ele>
        <time>2019-04-27T13:16:44Z</time>
      </trkpt>
      <trkpt lat="43.76512" lon="7.14449">
        <ele>697</ele>
        <time>2019-04-27T13:16:50Z</time>
      </trkpt>
      <trkpt lat="43.76506" lon="7.14452">
        <ele>696</ele>
        <time>2019-04-27T13:16:56Z</time>
      </trkpt>
      <trkpt lat="43.765" lon="7.14454">
        <ele>694</ele>
        <time>2019-04-27T13:17:02Z</time>
      </trkpt>
      <trkpt lat="43.76495" lon="7.14455">
        <ele>694</ele>
        <time>2019-04-27T13:17:08Z</time>
      </trkpt>
      <trkpt lat="43.76492" lon="7.14455">
        <ele>694</ele>
        <time>2019-04-27T13:17:14Z</time>
      </trkpt>
      <trkpt lat="43.76488" lon="7.14457">
        <ele>693</ele>
        <time>2019-04-27T13:17:20Z</time>
      </trkpt>
      <trkpt lat="43.76485" lon="7.14457">
        <ele>693</ele>
        <time>2019-04-27T13:17:26Z</time>
      </trkpt>
      <trkpt lat="43.76482" lon="7.14457">
        <ele>692</ele>
        <time>2019-04-27T13:17:32Z</time>
      </trkpt>
      <trkpt lat="43.76476" lon="7.14457">
        <ele>691</ele>
        <time>2019-04-27T13:17:38Z</time>
      </trkpt>
      <trkpt lat="43.76471" lon="7.14459">
        <ele>691</ele>
        <time>2019-04-27T13:17:44Z</time>
      </trkpt>
      <trkpt lat="43.76465" lon="7.1446">
        <ele>691</ele>
        <time>2019-04-27T13:17:50Z</time>
      </trkpt>
      <trkpt lat="43.76461" lon="7.1446">
        <ele>690</ele>
        <time>2019-04-27T13:17:56Z</time>
      </trkpt>
      <trkpt lat="43.76454" lon="7.14458">
        <ele>689</ele>
        <time>2019-04-27T13:18:02Z</time>
      </trkpt>
      <trkpt lat="43.76447" lon="7.14458">
        <ele>689</ele>
        <time>2019-04-27T13:18:08Z</time>
      </trkpt>
      <trkpt lat="43.76441" lon="7.14457">
        <ele>689</ele>
        <time>2019-04-27T13:18:14Z</time>
      </trkpt>
      <trkpt lat="43.76435" lon="7.14456">
        <ele>688</ele>
        <time>2019-04-27T13:18:20Z</time>
      </trkpt>
      <trkpt lat="43.76429" lon="7.14453">
        <ele>688</ele>
        <time>2019-04-27T13:18:26Z</time>
      </trkpt>
      <trkpt lat="43.76423" lon="7.14449">
        <ele>687</ele>
        <time>2019-04-27T13:18:32Z</time>
      </trkpt>
      <trkpt lat="43.76418" lon="7.14448">
        <ele>687</ele>
        <time>2019-04-27T13:18:38Z</time>
      </trkpt>
      <trkpt lat="43.76412" lon="7.14448">
        <ele>687</ele>
        <time>2019-04-27T13:18:44Z</time>
      </trkpt>
      <trkpt lat="43.76405" lon="7.14449">
        <ele>686</ele>
        <time>2019-04-27T13:18:50Z</time>
      </trkpt>
      <trkpt lat="43.76397" lon="7.1445">
        <ele>686</ele>
        <time>2019-04-27T13:18:56Z</time>
      </trkpt>
      <trkpt lat="43.7639" lon="7.1445">
        <ele>686</ele>
        <time>2019-04-27T13:19:02Z</time>
      </trkpt>
      <trkpt lat="43.76384" lon="7.14449">
        <ele>685</ele>
        <time>2019-04-27T13:19:08Z</time>
      </trkpt>
      <trkpt lat="43.76376" lon="7.14448">
        <ele>685</ele>
        <time>2019-04-27T13:19:14Z</time>
      </trkpt>
      <trkpt lat="43.7637" lon="7.14447">
        <ele>685</ele>
        <time>2019-04-27T13:19:20Z</time>
      </trkpt>
      <trkpt lat="43.76363" lon="7.14447">
        <ele>684</ele>
        <time>2019-04-27T13:19:26Z</time>
      </trkpt>
      <trkpt lat="43.76356" lon="7.1445">
        <ele>684</ele>
        <time>2019-04-27T13:19:32Z</time>
      </trkpt>
      <trkpt lat="43.76349" lon="7.14452">
        <ele>683</ele>
        <time>2019-04-27T13:19:38Z</time>
      </trkpt>
      <trkpt lat="43.76342" lon="7.14454">
        <ele>683</ele>
        <time>2019-04-27T13:19:44Z</time>
      </trkpt>
      <trkpt lat="43.76336" lon="7.14455">
        <ele>683</ele>
        <time>2019-04-27T13:19:50Z</time>
      </trkpt>
      <trkpt lat="43.76329" lon="7.14455">
        <ele>683</ele>
        <time>2019-04-27T13:19:56Z</time>
      </trkpt>
      <trkpt lat="43.76323" lon="7.14454">
        <ele>682</ele>
        <time>2019-04-27T13:20:02Z</time>
      </trkpt>
      <trkpt lat="43.76317" lon="7.14453">
        <ele>682</ele>
        <time>2019-04-27T13:20:08Z</time>
      </trkpt>
      <trkpt lat="43.7631" lon="7.14453">
        <ele>681</ele>
        <time>2019-04-27T13:20:14Z</time>
      </trkpt>
      <trkpt lat="43.76302" lon="7.14452">
        <ele>681</ele>
        <time>2019-04-27T13:20:20Z</time>
      </trkpt>
      <trkpt lat="43.76297" lon="7.1445">
        <ele>681</ele>
        <time>2019-04-27T13:20:26Z</time>
      </trkpt>
      <trkpt lat="43.76292" lon="7.14446">
        <ele>680</ele>
        <time>2019-04-27T13:20:32Z</time>
      </trkpt>
      <trkpt lat="43.76286" lon="7.14443">
        <ele>680</ele>
        <time>2019-04-27T13:20:38Z</time>
      </trkpt>
      <trkpt lat="43.7628" lon="7.1444">
        <ele>680</ele>
        <time>2019-04-27T13:20:44Z</time>
      </trkpt>
      <trkpt lat="43.76274" lon="7.14438">
        <ele>679</ele>
        <time>2019-04-27T13:20:50Z</time>
      </trkpt>
      <trkpt lat="43.76268" lon="7.14438">
        <ele>679</ele>
        <time>2019-04-27T13:20:56Z</time>
      </trkpt>
      <trkpt lat="43.7626" lon="7.14438">
        <ele>679</ele>
        <time>2019-04-27T13:21:02Z</time>
      </trkpt>
      <trkpt lat="43.76253" lon="7.14437">
        <ele>678</ele>
        <time>2019-04-27T13:21:08Z</time>
      </trkpt>
      <trkpt lat="43.76246" lon="7.14433">
        <ele>678</ele>
        <time>2019-04-27T13:21:14Z</time>
      </trkpt>
      <trkpt lat="43.76241" lon="7.14431">
        <ele>677</ele>
        <time>2019-04-27T13:21:20Z</time>
      </trkpt>
      <trkpt lat="43.76235" lon="7.14429">
        <ele>677</ele>
        <time>2019-04-27T13:21:26Z</time>
      </trkpt>
      <trkpt lat="43.76227" lon="7.14426">
        <ele>675</ele>
        <time>2019-04-27T13:21:32Z</time>
      </trkpt>
      <trkpt lat="43.76222" lon="7.14424">
        <ele>675</ele>
        <time>2019-04-27T13:21:38Z</time>
      </trkpt>
      <trkpt lat="43.76215" lon="7.14422">
        <ele>674</ele>
        <time>2019-04-27T13:21:44Z</time>
      </trkpt>
      <trkpt lat="43.76207" lon="7.1442">
        <ele>673</ele>
        <time>2019-04-27T13:21:50Z</time>
      </trkpt>
      <trkpt lat="43.76199" lon="7.14418">
        <ele>672</ele>
        <time>2019-04-27T13:21:56Z</time>
      </trkpt>
      <trkpt lat="43.76193" lon="7.14416">
        <ele>672</ele>
        <time>2019-04-27T13:22:02Z</time>
      </trkpt>
      <trkpt lat="43.76187" lon="7.14417">
        <ele>672</ele>
        <time>2019-04-27T13:22:08Z</time>
      </trkpt>
      <trkpt lat="43.76181" lon="7.14416">
        <ele>671</ele>
        <time>2019-04-27T13:22:14Z</time>
      </trkpt>
      <trkpt lat="43.76175" lon="7.14413">
        <ele>671</ele>
        <time>2019-04-27T13:22:20Z</time>
      </trkpt>
      <trkpt lat="43.76168" lon="7.14413">
        <ele>670</ele>
        <time>2019-04-27T13:22:26Z</time>
      </trkpt>
      <trkpt lat="43.7616" lon="7.14409">
        <ele>669</ele>
        <time>2019-04-27T13:22:32Z</time>
      </trkpt>
      <trkpt lat="43.76154" lon="7.14407">
        <ele>669</ele>
        <time>2019-04-27T13:22:38Z</time>
      </trkpt>
      <trkpt lat="43.7615" lon="7.14405">
        <ele>669</ele>
        <time>2019-04-27T13:22:44Z</time>
      </trkpt>
      <trkpt lat="43.76146" lon="7.14401">
        <ele>667</ele>
        <time>2019-04-27T13:22:50Z</time>
      </trkpt>
      <trkpt lat="43.76139" lon="7.14396">
        <ele>667</ele>
        <time>2019-04-27T13:22:56Z</time>
      </trkpt>
      <trkpt lat="43.76133" lon="7.14392">
        <ele>666</ele>
        <time>2019-04-27T13:23:01Z</time>
      </trkpt>
      <trkpt lat="43.76127" lon="7.14389">
        <ele>665</ele>
        <time>2019-04-27T13:23:07Z</time>
      </trkpt>
      <trkpt lat="43.76121" lon="7.14384">
        <ele>664</ele>
        <time>2019-04-27T13:23:13Z</time>
      </trkpt>
      <trkpt lat="43.76114" lon="7.1438">
        <ele>663</ele>
        <time>2019-04-27T13:23:19Z</time>
      </trkpt>
      <trkpt lat="43.76108" lon="7.14377">
        <ele>662</ele>
        <time>2019-04-27T13:23:25Z</time>
      </trkpt>
      <trkpt lat="43.76102" lon="7.14372">
        <ele>662</ele>
        <time>2019-04-27T13:23:31Z</time>
      </trkpt>
      <trkpt lat="43.76099" lon="7.14367">
        <ele>661</ele>
        <time>2019-04-27T13:23:37Z</time>
      </trkpt>
      <trkpt lat="43.76093" lon="7.14362">
        <ele>661</ele>
        <time>2019-04-27T13:23:43Z</time>
      </trkpt>
      <trkpt lat="43.76086" lon="7.14359">
        <ele>660</ele>
        <time>2019-04-27T13:23:49Z</time>
      </trkpt>
      <trkpt lat="43.76082" lon="7.14355">
        <ele>660</ele>
        <time>2019-04-27T13:23:55Z</time>
      </trkpt>
      <trkpt lat="43.76076" lon="7.14351">
        <ele>660</ele>
        <time>2019-04-27T13:24:01Z</time>
      </trkpt>
      <trkpt lat="43.7607" lon="7.14349">
        <ele>660</ele>
        <time>2019-04-27T13:24:07Z</time>
      </trkpt>
      <trkpt lat="43.76062" lon="7.14345">
        <ele>660</ele>
        <time>2019-04-27T13:24:13Z</time>
      </trkpt>
      <trkpt lat="43.76056" lon="7.14341">
        <ele>659</ele>
        <time>2019-04-27T13:24:19Z</time>
      </trkpt>
      <trkpt lat="43.76051" lon="7.14337">
        <ele>659</ele>
        <time>2019-04-27T13:24:25Z</time>
      </trkpt>
      <trkpt lat="43.76046" lon="7.14332">
        <ele>659</ele>
        <time>2019-04-27T13:24:31Z</time>
      </trkpt>
      <trkpt lat="43.76042" lon="7.14327">
        <ele>659</ele>
        <time>2019-04-27T13:24:37Z</time>
      </trkpt>
      <trkpt lat="43.76036" lon="7.14324">
        <ele>659</ele>
        <time>2019-04-27T13:24:43Z</time>
      </trkpt>
      <trkpt lat="43.76031" lon="7.1432">
        <ele>659</ele>
        <time>2019-04-27T13:24:49Z</time>
      </trkpt>
      <trkpt lat="43.76023" lon="7.14316">
        <ele>658</ele>
        <time>2019-04-27T13:24:55Z</time>
      </trkpt>
      <trkpt lat="43.76017" lon="7.14314">
        <ele>658</ele>
        <time>2019-04-27T13:25:01Z</time>
      </trkpt>
      <trkpt lat="43.76011" lon="7.14313">
        <ele>658</ele>
        <time>2019-04-27T13:25:07Z</time>
      </trkpt>
      <trkpt lat="43.76004" lon="7.14313">
        <ele>657</ele>
        <time>2019-04-27T13:25:13Z</time>
      </trkpt>
      <trkpt lat="43.75998" lon="7.1431">
        <ele>657</ele>
        <time>2019-04-27T13:25:19Z</time>
      </trkpt>
      <trkpt lat="43.75992" lon="7.1431">
        <ele>657</ele>
        <time>2019-04-27T13:25:25Z</time>
      </trkpt>
      <trkpt lat="43.75985" lon="7.1431">
        <ele>656</ele>
        <time>2019-04-27T13:25:31Z</time>
      </trkpt>
      <trkpt lat="43.75979" lon="7.14311">
        <ele>656</ele>
        <time>2019-04-27T13:25:37Z</time>
      </trkpt>
      <trkpt lat="43.75972" lon="7.1431">
        <ele>656</ele>
        <time>2019-04-27T13:25:43Z</time>
      </trkpt>
      <trkpt lat="43.75968" lon="7.14309">
        <ele>655</ele>
        <time>2019-04-27T13:25:49Z</time>
      </trkpt>
      <trkpt lat="43.75964" lon="7.14309">
        <ele>655</ele>
        <time>2019-04-27T13:25:55Z</time>
      </trkpt>
      <trkpt lat="43.75959" lon="7.14308">
        <ele>655</ele>
        <time>2019-04-27T13:26:01Z</time>
      </trkpt>
      <trkpt lat="43.75953" lon="7.14309">
        <ele>655</ele>
        <time>2019-04-27T13:26:07Z</time>
      </trkpt>
      <trkpt lat="43.75948" lon="7.1431">
        <ele>654</ele>
        <time>2019-04-27T13:26:13Z</time>
      </trkpt>
      <trkpt lat="43.75942" lon="7.1431">
        <ele>654</ele>
        <time>2019-04-27T13:26:19Z</time>
      </trkpt>
      <trkpt lat="43.75938" lon="7.1431">
        <ele>654</ele>
        <time>2019-04-27T13:26:25Z</time>
      </trkpt>
      <trkpt lat="43.75935" lon="7.14309">
        <ele>653</ele>
        <time>2019-04-27T13:26:31Z</time>
      </trkpt>
      <trkpt lat="43.75931" lon="7.14308">
        <ele>652</ele>
        <time>2019-04-27T13:26:37Z</time>
      </trkpt>
      <trkpt lat="43.75926" lon="7.14307">
        <ele>652</ele>
        <time>2019-04-27T13:26:43Z</time>
      </trkpt>
      <trkpt lat="43.75924" lon="7.14309">
        <ele>652</ele>
        <time>2019-04-27T13:26:49Z</time>
      </trkpt>
      <trkpt lat="43.75923" lon="7.14309">
        <ele>652</ele>
        <time>2019-04-27T13:26:55Z</time>
      </trkpt>
      <trkpt lat="43.75923" lon="7.1431">
        <ele>652</ele>
        <time>2019-04-27T13:27:01Z</time>
      </trkpt>
      <trkpt lat="43.75923" lon="7.1431">
        <ele>652</ele>
        <time>2019-04-27T13:27:07Z</time>
      </trkpt>
      <trkpt lat="43.75922" lon="7.1431">
        <ele>652</ele>
        <time>2019-04-27T13:27:13Z</time>
      </trkpt>
      <trkpt lat="43.75921" lon="7.1431">
        <ele>652</ele>
        <time>2019-04-27T13:27:19Z</time>
      </trkpt>
      <trkpt lat="43.7592" lon="7.1431">
        <ele>652</ele>
        <time>2019-04-27T13:27:25Z</time>
      </trkpt>
      <trkpt lat="43.75919" lon="7.1431">
        <ele>651</ele>
        <time>2019-04-27T13:27:31Z</time>
      </trkpt>
      <trkpt lat="43.75919" lon="7.1431">
        <ele>651</ele>
        <time>2019-04-27T13:27:37Z</time>
      </trkpt>
      <trkpt lat="43.7592" lon="7.14311">
        <ele>652</ele>
        <time>2019-04-27T13:27:43Z</time>
      </trkpt>
      <trkpt lat="43.7592" lon="7.14311">
        <ele>652</ele>
        <time>2019-04-27T13:27:49Z</time>
      </trkpt>
      <trkpt lat="43.75921" lon="7.14311">
        <ele>652</ele>
        <time>2019-04-27T13:27:55Z</time>
      </trkpt>
      <trkpt lat="43.75921" lon="7.14311">
        <ele>652</ele>
        <time>2019-04-27T13:28:01Z</time>
      </trkpt>
      <trkpt lat="43.75921" lon="7.14311">
        <ele>652</ele>
        <time>2019-04-27T13:28:07Z</time>
      </trkpt>
      <trkpt lat="43.75921" lon="7.14311">
        <ele>652</ele>
        <time>2019-04-27T13:28:13Z</time>
      </trkpt>
      <trkpt lat="43.75918" lon="7.14306">
        <ele>649</ele>
        <time>2019-04-27T13:28:19Z</time>
      </trkpt>
      <trkpt lat="43.75914" lon="7.14303">
        <ele>649</ele>
        <time>2019-04-27T13:28:25Z</time>
      </trkpt>
      <trkpt lat="43.75908" lon="7.14301">
        <ele>649</ele>
        <time>2019-04-27T13:28:31Z</time>
      </trkpt>
      <trkpt lat="43.75902" lon="7.14301">
        <ele>649</ele>
        <time>2019-04-27T13:28:37Z</time>
      </trkpt>
      <trkpt lat="43.75896" lon="7.143">
        <ele>649</ele>
        <time>2019-04-27T13:28:43Z</time>
      </trkpt>
      <trkpt lat="43.75892" lon="7.14298">
        <ele>649</ele>
        <time>2019-04-27T13:28:49Z</time>
      </trkpt>
      <trkpt lat="43.75888" lon="7.14294">
        <ele>648</ele>
        <time>2019-04-27T13:28:55Z</time>
      </trkpt>
      <trkpt lat="43.75883" lon="7.14294">
        <ele>648</ele>
        <time>2019-04-27T13:29:01Z</time>
      </trkpt>
      <trkpt lat="43.75878" lon="7.14296">
        <ele>647</ele>
        <time>2019-04-27T13:29:07Z</time>
      </trkpt>
      <trkpt lat="43.75876" lon="7.14298">
        <ele>647</ele>
        <time>2019-04-27T13:29:13Z</time>
      </trkpt>
      <trkpt lat="43.7587" lon="7.14297">
        <ele>647</ele>
        <time>2019-04-27T13:29:19Z</time>
      </trkpt>
      <trkpt lat="43.75865" lon="7.14297">
        <ele>646</ele>
        <time>2019-04-27T13:29:25Z</time>
      </trkpt>
      <trkpt lat="43.75861" lon="7.14298">
        <ele>645</ele>
        <time>2019-04-27T13:29:31Z</time>
      </trkpt>
      <trkpt lat="43.75855" lon="7.14299">
        <ele>645</ele>
        <time>2019-04-27T13:29:37Z</time>
      </trkpt>
      <trkpt lat="43.75848" lon="7.143">
        <ele>644</ele>
        <time>2019-04-27T13:29:43Z</time>
      </trkpt>
      <trkpt lat="43.75841" lon="7.14301">
        <ele>643</ele>
        <time>2019-04-27T13:29:49Z</time>
      </trkpt>
      <trkpt lat="43.75833" lon="7.14304">
        <ele>644</ele>
        <time>2019-04-27T13:29:55Z</time>
      </trkpt>
      <trkpt lat="43.75826" lon="7.14306">
        <ele>646</ele>
        <time>2019-04-27T13:30:01Z</time>
      </trkpt>
      <trkpt lat="43.75819" lon="7.1431">
        <ele>644</ele>
        <time>2019-04-27T13:30:07Z</time>
      </trkpt>
      <trkpt lat="43.75813" lon="7.14312">
        <ele>644</ele>
        <time>2019-04-27T13:30:13Z</time>
      </trkpt>
      <trkpt lat="43.75807" lon="7.14317">
        <ele>644</ele>
        <time>2019-04-27T13:30:19Z</time>
      </trkpt>
      <trkpt lat="43.75802" lon="7.1432">
        <ele>643</ele>
        <time>2019-04-27T13:30:25Z</time>
      </trkpt>
      <trkpt lat="43.75797" lon="7.14323">
        <ele>643</ele>
        <time>2019-04-27T13:30:31Z</time>
      </trkpt>
      <trkpt lat="43.7579" lon="7.14326">
        <ele>642</ele>
        <time>2019-04-27T13:30:37Z</time>
      </trkpt>
      <trkpt lat="43.75783" lon="7.14327">
        <ele>641</ele>
        <time>2019-04-27T13:30:43Z</time>
      </trkpt>
      <trkpt lat="43.75778" lon="7.14329">
        <ele>641</ele>
        <time>2019-04-27T13:30:49Z</time>
      </trkpt>
      <trkpt lat="43.75772" lon="7.1433">
        <ele>640</ele>
        <time>2019-04-27T13:30:55Z</time>
      </trkpt>
      <trkpt lat="43.75771" lon="7.14334">
        <ele>640</ele>
        <time>2019-04-27T13:31:01Z</time>
      </trkpt>
      <trkpt lat="43.75768" lon="7.14333">
        <ele>640</ele>
        <time>2019-04-27T13:31:07Z</time>
      </trkpt>
      <trkpt lat="43.75763" lon="7.14331">
        <ele>639</ele>
        <time>2019-04-27T13:31:13Z</time>
      </trkpt>
      <trkpt lat="43.75757" lon="7.1433">
        <ele>638</ele>
        <time>2019-04-27T13:31:19Z</time>
      </trkpt>
      <trkpt lat="43.75752" lon="7.14329">
        <ele>636</ele>
        <time>2019-04-27T13:31:25Z</time>
      </trkpt>
      <trkpt lat="43.75747" lon="7.14329">
        <ele>636</ele>
        <time>2019-04-27T13:31:31Z</time>
      </trkpt>
      <trkpt lat="43.7574" lon="7.14329">
        <ele>634</ele>
        <time>2019-04-27T13:31:37Z</time>
      </trkpt>
      <trkpt lat="43.75735" lon="7.14326">
        <ele>634</ele>
        <time>2019-04-27T13:31:43Z</time>
      </trkpt>
      <trkpt lat="43.75729" lon="7.14323">
        <ele>633</ele>
        <time>2019-04-27T13:31:49Z</time>
      </trkpt>
      <trkpt lat="43.75724" lon="7.1432">
        <ele>633</ele>
        <time>2019-04-27T13:31:55Z</time>
      </trkpt>
      <trkpt lat="43.75718" lon="7.14318">
        <ele>633</ele>
        <time>2019-04-27T13:32:01Z</time>
      </trkpt>
      <trkpt lat="43.75713" lon="7.14317">
        <ele>635</ele>
        <time>2019-04-27T13:32:07Z</time>
      </trkpt>
      <trkpt lat="43.75708" lon="7.14315">
        <ele>634</ele>
        <time>2019-04-27T13:32:13Z</time>
      </trkpt>
      <trkpt lat="43.75704" lon="7.14312">
        <ele>634</ele>
        <time>2019-04-27T13:32:19Z</time>
      </trkpt>
      <trkpt lat="43.75697" lon="7.14311">
        <ele>634</ele>
        <time>2019-04-27T13:32:25Z</time>
      </trkpt>
      <trkpt lat="43.75692" lon="7.1431">
        <ele>633</ele>
        <time>2019-04-27T13:32:31Z</time>
      </trkpt>
      <trkpt lat="43.75686" lon="7.14311">
        <ele>632</ele>
        <time>2019-04-27T13:32:37Z</time>
      </trkpt>
      <trkpt lat="43.75682" lon="7.14312">
        <ele>631</ele>
        <time>2019-04-27T13:32:43Z</time>
      </trkpt>
      <trkpt lat="43.75679" lon="7.14313">
        <ele>631</ele>
        <time>2019-04-27T13:32:49Z</time>
      </trkpt>
      <trkpt lat="43.75672" lon="7.14316">
        <ele>630</ele>
        <time>2019-04-27T13:32:55Z</time>
      </trkpt>
      <trkpt lat="43.75668" lon="7.14316">
        <ele>628</ele>
        <time>2019-04-27T13:33:01Z</time>
      </trkpt>
      <trkpt lat="43.75662" lon="7.14317">
        <ele>627</ele>
        <time>2019-04-27T13:33:07Z</time>
      </trkpt>
      <trkpt lat="43.75658" lon="7.14318">
        <ele>622</ele>
        <time>2019-04-27T13:33:13Z</time>
      </trkpt>
      <trkpt lat="43.75653" lon="7.14318">
        <ele>622</ele>
        <time>2019-04-27T13:33:19Z</time>
      </trkpt>
      <trkpt lat="43.75649" lon="7.14318">
        <ele>621</ele>
        <time>2019-04-27T13:33:25Z</time>
      </trkpt>
      <trkpt lat="43.75645" lon="7.14317">
        <ele>623</ele>
        <time>2019-04-27T13:33:31Z</time>
      </trkpt>
      <trkpt lat="43.7564" lon="7.14317">
        <ele>622</ele>
        <time>2019-04-27T13:33:37Z</time>
      </trkpt>
      <trkpt lat="43.75635" lon="7.1432">
        <ele>618</ele>
        <time>2019-04-27T13:33:43Z</time>
      </trkpt>
      <trkpt lat="43.7563" lon="7.14322">
        <ele>617</ele>
        <time>2019-04-27T13:33:49Z</time>
      </trkpt>
      <trkpt lat="43.75626" lon="7.14322">
        <ele>616</ele>
        <time>2019-04-27T13:33:55Z</time>
      </trkpt>
      <trkpt lat="43.75621" lon="7.14322">
        <ele>615</ele>
        <time>2019-04-27T13:34:01Z</time>
      </trkpt>
      <trkpt lat="43.75615" lon="7.14322">
        <ele>613</ele>
        <time>2019-04-27T13:34:07Z</time>
      </trkpt>
      <trkpt lat="43.7561" lon="7.14325">
        <ele>613</ele>
        <time>2019-04-27T13:34:13Z</time>
      </trkpt>
      <trkpt lat="43.75605" lon="7.14327">
        <ele>608</ele>
        <time>2019-04-27T13:34:19Z</time>
      </trkpt>
      <trkpt lat="43.756" lon="7.1433">
        <ele>607</ele>
        <time>2019-04-27T13:34:25Z</time>
      </trkpt>
      <trkpt lat="43.75595" lon="7.14331">
        <ele>606</ele>
        <time>2019-04-27T13:34:31Z</time>
      </trkpt>
      <trkpt lat="43.7559" lon="7.14331">
        <ele>604</ele>
        <time>2019-04-27T13:34:37Z</time>
      </trkpt>
      <trkpt lat="43.75586" lon="7.14331">
        <ele>604</ele>
        <time>2019-04-27T13:34:43Z</time>
      </trkpt>
      <trkpt lat="43.75582" lon="7.1433">
        <ele>603</ele>
        <time>2019-04-27T13:34:49Z</time>
      </trkpt>
      <trkpt lat="43.75578" lon="7.14329">
        <ele>601</ele>
        <time>2019-04-27T13:34:55Z</time>
      </trkpt>
      <trkpt lat="43.75572" lon="7.14328">
        <ele>600</ele>
        <time>2019-04-27T13:35:01Z</time>
      </trkpt>
      <trkpt lat="43.75567" lon="7.14327">
        <ele>600</ele>
        <time>2019-04-27T13:35:07Z</time>
      </trkpt>
      <trkpt lat="43.7556" lon="7.14329">
        <ele>598</ele>
        <time>2019-04-27T13:35:13Z</time>
      </trkpt>
      <trkpt lat="43.75555" lon="7.1433">
        <ele>596</ele>
        <time>2019-04-27T13:35:19Z</time>
      </trkpt>
      <trkpt lat="43.75551" lon="7.14329">
        <ele>595</ele>
        <time>2019-04-27T13:35:25Z</time>
      </trkpt>
      <trkpt lat="43.75545" lon="7.14331">
        <ele>593</ele>
        <time>2019-04-27T13:35:31Z</time>
      </trkpt>
      <trkpt lat="43.75541" lon="7.14329">
        <ele>591</ele>
        <time>2019-04-27T13:35:37Z</time>
      </trkpt>
      <trkpt lat="43.75536" lon="7.14329">
        <ele>591</ele>
        <time>2019-04-27T13:35:43Z</time>
      </trkpt>
      <trkpt lat="43.75531" lon="7.14329">
        <ele>589</ele>
        <time>2019-04-27T13:35:49Z</time>
      </trkpt>
      <trkpt lat="43.75527" lon="7.14331">
        <ele>588</ele>
        <time>2019-04-27T13:35:55Z</time>
      </trkpt>
      <trkpt lat="43.75521" lon="7.14331">
        <ele>586</ele>
        <time>2019-04-27T13:36:01Z</time>
      </trkpt>
      <trkpt lat="43.75517" lon="7.1433">
        <ele>586</ele>
        <time>2019-04-27T13:36:07Z</time>
      </trkpt>
      <trkpt lat="43.75515" lon="7.1433">
        <ele>584</ele>
        <time>2019-04-27T13:36:13Z</time>
      </trkpt>
      <trkpt lat="43.75511" lon="7.1433">
        <ele>584</ele>
        <time>2019-04-27T13:36:19Z</time>
      </trkpt>
      <trkpt lat="43.75505" lon="7.14327">
        <ele>582</ele>
        <time>2019-04-27T13:36:25Z</time>
      </trkpt>
      <trkpt lat="43.75502" lon="7.14325">
        <ele>586</ele>
        <time>2019-04-27T13:36:31Z</time>
      </trkpt>
      <trkpt lat="43.75496" lon="7.14322">
        <ele>585</ele>
        <time>2019-04-27T13:36:37Z</time>
      </trkpt>
      <trkpt lat="43.75491" lon="7.14323">
        <ele>583</ele>
        <time>2019-04-27T13:36:43Z</time>
      </trkpt>
      <trkpt lat="43.75486" lon="7.14321">
        <ele>583</ele>
        <time>2019-04-27T13:36:49Z</time>
      </trkpt>
      <trkpt lat="43.7548" lon="7.14318">
        <ele>581</ele>
        <time>2019-04-27T13:36:55Z</time>
      </trkpt>
      <trkpt lat="43.75475" lon="7.14317">
        <ele>585</ele>
        <time>2019-04-27T13:37:01Z</time>
      </trkpt>
      <trkpt lat="43.75471" lon="7.14315">
        <ele>583</ele>
        <time>2019-04-27T13:37:07Z</time>
      </trkpt>
      <trkpt lat="43.75466" lon="7.14313">
        <ele>581</ele>
        <time>2019-04-27T13:37:13Z</time>
      </trkpt>
      <trkpt lat="43.75461" lon="7.14311">
        <ele>581</ele>
        <time>2019-04-27T13:37:19Z</time>
      </trkpt>
      <trkpt lat="43.75455" lon="7.14306">
        <ele>585</ele>
        <time>2019-04-27T13:37:25Z</time>
      </trkpt>
      <trkpt lat="43.75449" lon="7.14304">
        <ele>583</ele>
        <time>2019-04-27T13:37:31Z</time>
      </trkpt>
      <trkpt lat="43.75442" lon="7.143">
        <ele>581</ele>
        <time>2019-04-27T13:37:37Z</time>
      </trkpt>
      <trkpt lat="43.75437" lon="7.14295">
        <ele>584</ele>
        <time>2019-04-27T13:37:43Z</time>
      </trkpt>
      <trkpt lat="43.75433" lon="7.14292">
        <ele>582</ele>
        <time>2019-04-27T13:37:49Z</time>
      </trkpt>
      <trkpt lat="43.75427" lon="7.1429">
        <ele>585</ele>
        <time>2019-04-27T13:37:55Z</time>
      </trkpt>
      <trkpt lat="43.7542" lon="7.1429">
        <ele>583</ele>
        <time>2019-04-27T13:38:01Z</time>
      </trkpt>
      <trkpt lat="43.75414" lon="7.14286">
        <ele>581</ele>
        <time>2019-04-27T13:38:07Z</time>
      </trkpt>
      <trkpt lat="43.75409" lon="7.14281">
        <ele>582</ele>
        <time>2019-04-27T13:38:13Z</time>
      </trkpt>
      <trkpt lat="43.75403" lon="7.14275">
        <ele>579</ele>
        <time>2019-04-27T13:38:19Z</time>
      </trkpt>
      <trkpt lat="43.75398" lon="7.14271">
        <ele>580</ele>
        <time>2019-04-27T13:38:25Z</time>
      </trkpt>
      <trkpt lat="43.75393" lon="7.14268">
        <ele>580</ele>
        <time>2019-04-27T13:38:31Z</time>
      </trkpt>
      <trkpt lat="43.75387" lon="7.14266">
        <ele>578</ele>
        <time>2019-04-27T13:38:37Z</time>
      </trkpt>
      <trkpt lat="43.7538" lon="7.14266">
        <ele>579</ele>
        <time>2019-04-27T13:38:43Z</time>
      </trkpt>
      <trkpt lat="43.75374" lon="7.14265">
        <ele>577</ele>
        <time>2019-04-27T13:38:49Z</time>
      </trkpt>
      <trkpt lat="43.75368" lon="7.14264">
        <ele>575</ele>
        <time>2019-04-27T13:38:55Z</time>
      </trkpt>
      <trkpt lat="43.7536" lon="7.14264">
        <ele>571</ele>
        <time>2019-04-27T13:39:01Z</time>
      </trkpt>
      <trkpt lat="43.75355" lon="7.14265">
        <ele>568</ele>
        <time>2019-04-27T13:39:07Z</time>
      </trkpt>
      <trkpt lat="43.75355" lon="7.14269">
        <ele>567</ele>
        <time>2019-04-27T13:39:13Z</time>
      </trkpt>
      <trkpt lat="43.75357" lon="7.14275">
        <ele>564</ele>
        <time>2019-04-27T13:39:19Z</time>
      </trkpt>
      <trkpt lat="43.75361" lon="7.14279">
        <ele>566</ele>
        <time>2019-04-27T13:39:25Z</time>
      </trkpt>
      <trkpt lat="43.75367" lon="7.14284">
        <ele>563</ele>
        <time>2019-04-27T13:39:31Z</time>
      </trkpt>
      <trkpt lat="43.75372" lon="7.14289">
        <ele>565</ele>
        <time>2019-04-27T13:39:37Z</time>
      </trkpt>
      <trkpt lat="43.75377" lon="7.14294">
        <ele>564</ele>
        <time>2019-04-27T13:39:43Z</time>
      </trkpt>
      <trkpt lat="43.75383" lon="7.14299">
        <ele>566</ele>
        <time>2019-04-27T13:39:49Z</time>
      </trkpt>
      <trkpt lat="43.75386" lon="7.14304">
        <ele>563</ele>
        <time>2019-04-27T13:39:55Z</time>
      </trkpt>
      <trkpt lat="43.75383" lon="7.14299">
        <ele>566</ele>
        <time>2019-04-27T13:40:01Z</time>
      </trkpt>
      <trkpt lat="43.75377" lon="7.14298">
        <ele>564</ele>
        <time>2019-04-27T13:40:07Z</time>
      </trkpt>
      <trkpt lat="43.7537" lon="7.14298">
        <ele>562</ele>
        <time>2019-04-27T13:40:13Z</time>
      </trkpt>
      <trkpt lat="43.75364" lon="7.14296">
        <ele>560</ele>
        <time>2019-04-27T13:40:19Z</time>
      </trkpt>
      <trkpt lat="43.75358" lon="7.14293">
        <ele>558</ele>
        <time>2019-04-27T13:40:25Z</time>
      </trkpt>
      <trkpt lat="43.75353" lon="7.14291">
        <ele>559</ele>
        <time>2019-04-27T13:40:31Z</time>
      </trkpt>
      <trkpt lat="43.75347" lon="7.14289">
        <ele>557</ele>
        <time>2019-04-27T13:40:37Z</time>
      </trkpt>
      <trkpt lat="43.75341" lon="7.14287">
        <ele>555</ele>
        <time>2019-04-27T13:40:43Z</time>
      </trkpt>
      <trkpt lat="43.75335" lon="7.14284">
        <ele>553</ele>
        <time>2019-04-27T13:40:49Z</time>
      </trkpt>
      <trkpt lat="43.7533" lon="7.14283">
        <ele>553</ele>
        <time>2019-04-27T13:40:55Z</time>
      </trkpt>
      <trkpt lat="43.75323" lon="7.14282">
        <ele>551</ele>
        <time>2019-04-27T13:41:01Z</time>
      </trkpt>
      <trkpt lat="43.75317" lon="7.14278">
        <ele>548</ele>
        <time>2019-04-27T13:41:07Z</time>
      </trkpt>
      <trkpt lat="43.75311" lon="7.14273">
        <ele>549</ele>
        <time>2019-04-27T13:41:13Z</time>
      </trkpt>
      <trkpt lat="43.75306" lon="7.14268">
        <ele>549</ele>
        <time>2019-04-27T13:41:19Z</time>
      </trkpt>
      <trkpt lat="43.75301" lon="7.14265">
        <ele>550</ele>
        <time>2019-04-27T13:41:25Z</time>
      </trkpt>
      <trkpt lat="43.75296" lon="7.14261">
        <ele>548</ele>
        <time>2019-04-27T13:41:31Z</time>
      </trkpt>
      <trkpt lat="43.7529" lon="7.14256">
        <ele>549</ele>
        <time>2019-04-27T13:41:37Z</time>
      </trkpt>
      <trkpt lat="43.75285" lon="7.14252">
        <ele>547</ele>
        <time>2019-04-27T13:41:43Z</time>
      </trkpt>
      <trkpt lat="43.75282" lon="7.14252">
        <ele>547</ele>
        <time>2019-04-27T13:41:49Z</time>
      </trkpt>
      <trkpt lat="43.75276" lon="7.1425">
        <ele>545</ele>
        <time>2019-04-27T13:41:55Z</time>
      </trkpt>
      <trkpt lat="43.75268" lon="7.1425">
        <ele>542</ele>
        <time>2019-04-27T13:42:01Z</time>
      </trkpt>
      <trkpt lat="43.75262" lon="7.14251">
        <ele>540</ele>
        <time>2019-04-27T13:42:07Z</time>
      </trkpt>
      <trkpt lat="43.75257" lon="7.14251">
        <ele>537</ele>
        <time>2019-04-27T13:42:13Z</time>
      </trkpt>
      <trkpt lat="43.75252" lon="7.14251">
        <ele>534</ele>
        <time>2019-04-27T13:42:19Z</time>
      </trkpt>
      <trkpt lat="43.75247" lon="7.14249">
        <ele>532</ele>
        <time>2019-04-27T13:42:25Z</time>
      </trkpt>
      <trkpt lat="43.7524" lon="7.14246">
        <ele>533</ele>
        <time>2019-04-27T13:42:31Z</time>
      </trkpt>
      <trkpt lat="43.75238" lon="7.14247">
        <ele>533</ele>
        <time>2019-04-27T13:42:37Z</time>
      </trkpt>
      <trkpt lat="43.75235" lon="7.14246">
        <ele>530</ele>
        <time>2019-04-27T13:42:43Z</time>
      </trkpt>
      <trkpt lat="43.7523" lon="7.14246">
        <ele>528</ele>
        <time>2019-04-27T13:42:49Z</time>
      </trkpt>
      <trkpt lat="43.75225" lon="7.14245">
        <ele>525</ele>
        <time>2019-04-27T13:42:55Z</time>
      </trkpt>
      <trkpt lat="43.75221" lon="7.14244">
        <ele>525</ele>
        <time>2019-04-27T13:43:01Z</time>
      </trkpt>
      <trkpt lat="43.75215" lon="7.14242">
        <ele>523</ele>
        <time>2019-04-27T13:43:07Z</time>
      </trkpt>
      <trkpt lat="43.75214" lon="7.14241">
        <ele>523</ele>
        <time>2019-04-27T13:43:13Z</time>
      </trkpt>
      <trkpt lat="43.75214" lon="7.1424">
        <ele>527</ele>
        <time>2019-04-27T13:43:19Z</time>
      </trkpt>
      <trkpt lat="43.75213" lon="7.14239">
        <ele>527</ele>
        <time>2019-04-27T13:43:25Z</time>
      </trkpt>
      <trkpt lat="43.75212" lon="7.14238">
        <ele>524</ele>
        <time>2019-04-27T13:43:31Z</time>
      </trkpt>
      <trkpt lat="43.75208" lon="7.14235">
        <ele>524</ele>
        <time>2019-04-27T13:43:37Z</time>
      </trkpt>
      <trkpt lat="43.75203" lon="7.1423">
        <ele>526</ele>
        <time>2019-04-27T13:43:43Z</time>
      </trkpt>
      <trkpt lat="43.75197" lon="7.14223">
        <ele>524</ele>
        <time>2019-04-27T13:43:49Z</time>
      </trkpt>
      <trkpt lat="43.75192" lon="7.1422">
        <ele>526</ele>
        <time>2019-04-27T13:43:55Z</time>
      </trkpt>
      <trkpt lat="43.75189" lon="7.14215">
        <ele>526</ele>
        <time>2019-04-27T13:44:01Z</time>
      </trkpt>
      <trkpt lat="43.75185" lon="7.14215">
        <ele>524</ele>
        <time>2019-04-27T13:44:07Z</time>
      </trkpt>
      <trkpt lat="43.7518" lon="7.14216">
        <ele>522</ele>
        <time>2019-04-27T13:44:13Z</time>
      </trkpt>
      <trkpt lat="43.75172" lon="7.14215">
        <ele>521</ele>
        <time>2019-04-27T13:44:19Z</time>
      </trkpt>
      <trkpt lat="43.75168" lon="7.14215">
        <ele>519</ele>
        <time>2019-04-27T13:44:25Z</time>
      </trkpt>
      <trkpt lat="43.75167" lon="7.14214">
        <ele>523</ele>
        <time>2019-04-27T13:44:31Z</time>
      </trkpt>
      <trkpt lat="43.75164" lon="7.14213">
        <ele>523</ele>
        <time>2019-04-27T13:44:37Z</time>
      </trkpt>
      <trkpt lat="43.75161" lon="7.14212">
        <ele>522</ele>
        <time>2019-04-27T13:44:43Z</time>
      </trkpt>
      <trkpt lat="43.75162" lon="7.1421">
        <ele>522</ele>
        <time>2019-04-27T13:44:49Z</time>
      </trkpt>
      <trkpt lat="43.75161" lon="7.1421">
        <ele>522</ele>
        <time>2019-04-27T13:44:55Z</time>
      </trkpt>
      <trkpt lat="43.75161" lon="7.14209">
        <ele>522</ele>
        <time>2019-04-27T13:45:01Z</time>
      </trkpt>
      <trkpt lat="43.75161" lon="7.14208">
        <ele>522</ele>
        <time>2019-04-27T13:45:07Z</time>
      </trkpt>
      <trkpt lat="43.7516" lon="7.14208">
        <ele>522</ele>
        <time>2019-04-27T13:45:13Z</time>
      </trkpt>
      <trkpt lat="43.7516" lon="7.1421">
        <ele>522</ele>
        <time>2019-04-27T13:45:19Z</time>
      </trkpt>
      <trkpt lat="43.75161" lon="7.14209">
        <ele>522</ele>
        <time>2019-04-27T13:45:25Z</time>
      </trkpt>
      <trkpt lat="43.7516" lon="7.14209">
        <ele>522</ele>
        <time>2019-04-27T13:45:31Z</time>
      </trkpt>
      <trkpt lat="43.75161" lon="7.14208">
        <ele>522</ele>
        <time>2019-04-27T13:45:37Z</time>
      </trkpt>
      <trkpt lat="43.75161" lon="7.14207">
        <ele>522</ele>
        <time>2019-04-27T13:45:43Z</time>
      </trkpt>
      <trkpt lat="43.75163" lon="7.14206">
        <ele>527</ele>
        <time>2019-04-27T13:45:49Z</time>
      </trkpt>
      <trkpt lat="43.75163" lon="7.14205">
        <ele>526</ele>
        <time>2019-04-27T13:45:55Z</time>
      </trkpt>
      <trkpt lat="43.75162" lon="7.14206">
        <ele>522</ele>
        <time>2019-04-27T13:46:01Z</time>
      </trkpt>
      <trkpt lat="43.75163" lon="7.14207">
        <ele>523</ele>
        <time>2019-04-27T13:46:07Z</time>
      </trkpt>
      <trkpt lat="43.75163" lon="7.14207">
        <ele>523</ele>
        <time>2019-04-27T13:46:13Z</time>
      </trkpt>
      <trkpt lat="43.75163" lon="7.14208">
        <ele>522</ele>
        <time>2019-04-27T13:46:19Z</time>
      </trkpt>
      <trkpt lat="43.75162" lon="7.14208">
        <ele>522</ele>
        <time>2019-04-27T13:46:25Z</time>
      </trkpt>
      <trkpt lat="43.75162" lon="7.14208">
        <ele>522</ele>
        <time>2019-04-27T13:46:31Z</time>
      </trkpt>
      <trkpt lat="43.75163" lon="7.14207">
        <ele>522</ele>
        <time>2019-04-27T13:46:37Z</time>
      </trkpt>
      <trkpt lat="43.75162" lon="7.14206">
        <ele>522</ele>
        <time>2019-04-27T13:46:43Z</time>
      </trkpt>
      <trkpt lat="43.75162" lon="7.14208">
        <ele>522</ele>
        <time>2019-04-27T13:46:49Z</time>
      </trkpt>
      <trkpt lat="43.75162" lon="7.14212">
        <ele>522</ele>
        <time>2019-04-27T13:46:55Z</time>
      </trkpt>
      <trkpt lat="43.75161" lon="7.14212">
        <ele>522</ele>
        <time>2019-04-27T13:47:01Z</time>
      </trkpt>
      <trkpt lat="43.7516" lon="7.1421">
        <ele>522</ele>
        <time>2019-04-27T13:47:07Z</time>
      </trkpt>
      <trkpt lat="43.75156" lon="7.14205">
        <ele>525</ele>
        <time>2019-04-27T13:47:13Z</time>
      </trkpt>
      <trkpt lat="43.7515" lon="7.14201">
        <ele>524</ele>
        <time>2019-04-27T13:47:19Z</time>
      </trkpt>
      <trkpt lat="43.75143" lon="7.14194">
        <ele>527</ele>
        <time>2019-04-27T13:47:25Z</time>
      </trkpt>
      <trkpt lat="43.75139" lon="7.14192">
        <ele>527</ele>
        <time>2019-04-27T13:47:31Z</time>
      </trkpt>
      <trkpt lat="43.75134" lon="7.1419">
        <ele>526</ele>
        <time>2019-04-27T13:47:37Z</time>
      </trkpt>
      <trkpt lat="43.75129" lon="7.14189">
        <ele>525</ele>
        <time>2019-04-27T13:47:43Z</time>
      </trkpt>
      <trkpt lat="43.75123" lon="7.14185">
        <ele>529</ele>
        <time>2019-04-27T13:47:49Z</time>
      </trkpt>
      <trkpt lat="43.75116" lon="7.14184">
        <ele>528</ele>
        <time>2019-04-27T13:47:55Z</time>
      </trkpt>
      <trkpt lat="43.7511" lon="7.14182">
        <ele>527</ele>
        <time>2019-04-27T13:48:01Z</time>
      </trkpt>
      <trkpt lat="43.75105" lon="7.1418">
        <ele>526</ele>
        <time>2019-04-27T13:48:07Z</time>
      </trkpt>
      <trkpt lat="43.75101" lon="7.14177">
        <ele>530</ele>
        <time>2019-04-27T13:48:13Z</time>
      </trkpt>
      <trkpt lat="43.75095" lon="7.14176">
        <ele>530</ele>
        <time>2019-04-27T13:48:19Z</time>
      </trkpt>
      <trkpt lat="43.75092" lon="7.14174">
        <ele>529</ele>
        <time>2019-04-27T13:48:25Z</time>
      </trkpt>
      <trkpt lat="43.75085" lon="7.14174">
        <ele>527</ele>
        <time>2019-04-27T13:48:31Z</time>
      </trkpt>
      <trkpt lat="43.75078" lon="7.14172">
        <ele>526</ele>
        <time>2019-04-27T13:48:37Z</time>
      </trkpt>
      <trkpt lat="43.75073" lon="7.1417">
        <ele>529</ele>
        <time>2019-04-27T13:48:43Z</time>
      </trkpt>
      <trkpt lat="43.75068" lon="7.14168">
        <ele>527</ele>
        <time>2019-04-27T13:48:49Z</time>
      </trkpt>
      <trkpt lat="43.75063" lon="7.14166">
        <ele>525</ele>
        <time>2019-04-27T13:48:55Z</time>
      </trkpt>
      <trkpt lat="43.75057" lon="7.14165">
        <ele>523</ele>
        <time>2019-04-27T13:49:01Z</time>
      </trkpt>
      <trkpt lat="43.75053" lon="7.14164">
        <ele>523</ele>
        <time>2019-04-27T13:49:07Z</time>
      </trkpt>
      <trkpt lat="43.75046" lon="7.14164">
        <ele>521</ele>
        <time>2019-04-27T13:49:13Z</time>
      </trkpt>
      <trkpt lat="43.75044" lon="7.14167">
        <ele>519</ele>
        <time>2019-04-27T13:49:19Z</time>
      </trkpt>
      <trkpt lat="43.7504" lon="7.14164">
        <ele>519</ele>
        <time>2019-04-27T13:49:25Z</time>
      </trkpt>
      <trkpt lat="43.75036" lon="7.14161">
        <ele>521</ele>
        <time>2019-04-27T13:49:31Z</time>
      </trkpt>
      <trkpt lat="43.75031" lon="7.14159">
        <ele>519</ele>
        <time>2019-04-27T13:49:37Z</time>
      </trkpt>
      <trkpt lat="43.75025" lon="7.14155">
        <ele>517</ele>
        <time>2019-04-27T13:49:43Z</time>
      </trkpt>
      <trkpt lat="43.7502" lon="7.14151">
        <ele>520</ele>
        <time>2019-04-27T13:49:49Z</time>
      </trkpt>
      <trkpt lat="43.75017" lon="7.14149">
        <ele>520</ele>
        <time>2019-04-27T13:49:55Z</time>
      </trkpt>
      <trkpt lat="43.75011" lon="7.14146">
        <ele>517</ele>
        <time>2019-04-27T13:50:01Z</time>
      </trkpt>
      <trkpt lat="43.75004" lon="7.14144">
        <ele>520</ele>
        <time>2019-04-27T13:50:07Z</time>
      </trkpt>
      <trkpt lat="43.74997" lon="7.14141">
        <ele>517</ele>
        <time>2019-04-27T13:50:13Z</time>
      </trkpt>
      <trkpt lat="43.74992" lon="7.14139">
        <ele>515</ele>
        <time>2019-04-27T13:50:19Z</time>
      </trkpt>
      <trkpt lat="43.74987" lon="7.14139">
        <ele>512</ele>
        <time>2019-04-27T13:50:25Z</time>
      </trkpt>
      <trkpt lat="43.74982" lon="7.14144">
        <ele>510</ele>
        <time>2019-04-27T13:50:31Z</time>
      </trkpt>
      <trkpt lat="43.7498" lon="7.14144">
        <ele>510</ele>
        <time>2019-04-27T13:50:37Z</time>
      </trkpt>
      <trkpt lat="43.74976" lon="7.14144">
        <ele>507</ele>
        <time>2019-04-27T13:50:43Z</time>
      </trkpt>
      <trkpt lat="43.74971" lon="7.14147">
        <ele>504</ele>
        <time>2019-04-27T13:50:49Z</time>
      </trkpt>
      <trkpt lat="43.74962" lon="7.14149">
        <ele>500</ele>
        <time>2019-04-27T13:50:55Z</time>
      </trkpt>
      <trkpt lat="43.74954" lon="7.14153">
        <ele>498</ele>
        <time>2019-04-27T13:51:01Z</time>
      </trkpt>
      <trkpt lat="43.74951" lon="7.14152">
        <ele>496</ele>
        <time>2019-04-27T13:51:07Z</time>
      </trkpt>
      <trkpt lat="43.7495" lon="7.14153">
        <ele>496</ele>
        <time>2019-04-27T13:51:13Z</time>
      </trkpt>
      <trkpt lat="43.74949" lon="7.14155">
        <ele>493</ele>
        <time>2019-04-27T13:51:19Z</time>
      </trkpt>
      <trkpt lat="43.74949" lon="7.14156">
        <ele>493</ele>
        <time>2019-04-27T13:51:25Z</time>
      </trkpt>
      <trkpt lat="43.7495" lon="7.14158">
        <ele>493</ele>
        <time>2019-04-27T13:51:31Z</time>
      </trkpt>
      <trkpt lat="43.74951" lon="7.14159">
        <ele>493</ele>
        <time>2019-04-27T13:51:37Z</time>
      </trkpt>
      <trkpt lat="43.74952" lon="7.14159">
        <ele>493</ele>
        <time>2019-04-27T13:51:43Z</time>
      </trkpt>
      <trkpt lat="43.74952" lon="7.14159">
        <ele>495</ele>
        <time>2019-04-27T13:51:49Z</time>
      </trkpt>
      <trkpt lat="43.74953" lon="7.14157">
        <ele>495</ele>
        <time>2019-04-27T13:51:55Z</time>
      </trkpt>
      <trkpt lat="43.74954" lon="7.14155">
        <ele>495</ele>
        <time>2019-04-27T13:52:01Z</time>
      </trkpt>
      <trkpt lat="43.74953" lon="7.14155">
        <ele>495</ele>
        <time>2019-04-27T13:52:07Z</time>
      </trkpt>
      <trkpt lat="43.74953" lon="7.14156">
        <ele>495</ele>
        <time>2019-04-27T13:52:13Z</time>
      </trkpt>
      <trkpt lat="43.74952" lon="7.14157">
        <ele>493</ele>
        <time>2019-04-27T13:52:19Z</time>
      </trkpt>
      <trkpt lat="43.74952" lon="7.14157">
        <ele>493</ele>
        <time>2019-04-27T13:52:25Z</time>
      </trkpt>
      <trkpt lat="43.74951" lon="7.14159">
        <ele>493</ele>
        <time>2019-04-27T13:52:31Z</time>
      </trkpt>
      <trkpt lat="43.74949" lon="7.1416">
        <ele>493</ele>
        <time>2019-04-27T13:52:37Z</time>
      </trkpt>
      <trkpt lat="43.74944" lon="7.14161">
        <ele>492</ele>
        <time>2019-04-27T13:52:43Z</time>
      </trkpt>
      <trkpt lat="43.74942" lon="7.14164">
        <ele>489</ele>
        <time>2019-04-27T13:52:49Z</time>
      </trkpt>
      <trkpt lat="43.74937" lon="7.14169">
        <ele>488</ele>
        <time>2019-04-27T13:52:55Z</time>
      </trkpt>
      <trkpt lat="43.74933" lon="7.14174">
        <ele>484</ele>
        <time>2019-04-27T13:53:01Z</time>
      </trkpt>
      <trkpt lat="43.74932" lon="7.14175">
        <ele>484</ele>
        <time>2019-04-27T13:53:07Z</time>
      </trkpt>
      <trkpt lat="43.74927" lon="7.14181">
        <ele>480</ele>
        <time>2019-04-27T13:53:13Z</time>
      </trkpt>
      <trkpt lat="43.74926" lon="7.14185">
        <ele>480</ele>
        <time>2019-04-27T13:53:19Z</time>
      </trkpt>
      <trkpt lat="43.74926" lon="7.14186">
        <ele>480</ele>
        <time>2019-04-27T13:53:25Z</time>
      </trkpt>
      <trkpt lat="43.74922" lon="7.14187">
        <ele>480</ele>
        <time>2019-04-27T13:53:31Z</time>
      </trkpt>
      <trkpt lat="43.74919" lon="7.1419">
        <ele>477</ele>
        <time>2019-04-27T13:53:37Z</time>
      </trkpt>
      <trkpt lat="43.74921" lon="7.14195">
        <ele>477</ele>
        <time>2019-04-27T13:53:43Z</time>
      </trkpt>
      <trkpt lat="43.74924" lon="7.142">
        <ele>475</ele>
        <time>2019-04-27T13:53:49Z</time>
      </trkpt>
      <trkpt lat="43.74927" lon="7.14202">
        <ele>475</ele>
        <time>2019-04-27T13:53:55Z</time>
      </trkpt>
      <trkpt lat="43.74923" lon="7.14202">
        <ele>475</ele>
        <time>2019-04-27T13:54:01Z</time>
      </trkpt>
      <trkpt lat="43.74919" lon="7.14204">
        <ele>475</ele>
        <time>2019-04-27T13:54:07Z</time>
      </trkpt>
      <trkpt lat="43.74915" lon="7.14205">
        <ele>474</ele>
        <time>2019-04-27T13:54:13Z</time>
      </trkpt>
      <trkpt lat="43.74911" lon="7.14203">
        <ele>474</ele>
        <time>2019-04-27T13:54:19Z</time>
      </trkpt>
      <trkpt lat="43.74906" lon="7.14202">
        <ele>473</ele>
        <time>2019-04-27T13:54:25Z</time>
      </trkpt>
      <trkpt lat="43.74904" lon="7.14204">
        <ele>473</ele>
        <time>2019-04-27T13:54:31Z</time>
      </trkpt>
      <trkpt lat="43.74902" lon="7.14207">
        <ele>470</ele>
        <time>2019-04-27T13:54:37Z</time>
      </trkpt>
      <trkpt lat="43.74898" lon="7.14208">
        <ele>470</ele>
        <time>2019-04-27T13:54:43Z</time>
      </trkpt>
      <trkpt lat="43.74894" lon="7.1421">
        <ele>469</ele>
        <time>2019-04-27T13:54:49Z</time>
      </trkpt>
      <trkpt lat="43.74892" lon="7.1421">
        <ele>469</ele>
        <time>2019-04-27T13:54:55Z</time>
      </trkpt>
      <trkpt lat="43.74893" lon="7.14209">
        <ele>469</ele>
        <time>2019-04-27T13:55:01Z</time>
      </trkpt>
      <trkpt lat="43.74892" lon="7.14208">
        <ele>469</ele>
        <time>2019-04-27T13:55:07Z</time>
      </trkpt>
      <trkpt lat="43.74893" lon="7.14208">
        <ele>469</ele>
        <time>2019-04-27T13:55:13Z</time>
      </trkpt>
      <trkpt lat="43.74892" lon="7.14209">
        <ele>469</ele>
        <time>2019-04-27T13:55:19Z</time>
      </trkpt>
      <trkpt lat="43.74893" lon="7.14211">
        <ele>469</ele>
        <time>2019-04-27T13:55:25Z</time>
      </trkpt>
      <trkpt lat="43.74894" lon="7.14213">
        <ele>469</ele>
        <time>2019-04-27T13:55:31Z</time>
      </trkpt>
      <trkpt lat="43.74898" lon="7.14217">
        <ele>468</ele>
        <time>2019-04-27T13:55:37Z</time>
      </trkpt>
      <trkpt lat="43.749" lon="7.14223">
        <ele>468</ele>
        <time>2019-04-27T13:55:43Z</time>
      </trkpt>
      <trkpt lat="43.74902" lon="7.14224">
        <ele>466</ele>
        <time>2019-04-27T13:55:49Z</time>
      </trkpt>
      <trkpt lat="43.74898" lon="7.14224">
        <ele>466</ele>
        <time>2019-04-27T13:55:55Z</time>
      </trkpt>
      <trkpt lat="43.74893" lon="7.14223">
        <ele>465</ele>
        <time>2019-04-27T13:56:01Z</time>
      </trkpt>
      <trkpt lat="43.74887" lon="7.14221">
        <ele>466</ele>
        <time>2019-04-27T13:56:07Z</time>
      </trkpt>
      <trkpt lat="43.74882" lon="7.14219">
        <ele>465</ele>
        <time>2019-04-27T13:56:13Z</time>
      </trkpt>
      <trkpt lat="43.74877" lon="7.14219">
        <ele>465</ele>
        <time>2019-04-27T13:56:19Z</time>
      </trkpt>
      <trkpt lat="43.74873" lon="7.1422">
        <ele>465</ele>
        <time>2019-04-27T13:56:25Z</time>
      </trkpt>
      <trkpt lat="43.74869" lon="7.14223">
        <ele>462</ele>
        <time>2019-04-27T13:56:31Z</time>
      </trkpt>
      <trkpt lat="43.74864" lon="7.14225">
        <ele>461</ele>
        <time>2019-04-27T13:56:37Z</time>
      </trkpt>
      <trkpt lat="43.74859" lon="7.14227">
        <ele>461</ele>
        <time>2019-04-27T13:56:43Z</time>
      </trkpt>
      <trkpt lat="43.74853" lon="7.14225">
        <ele>460</ele>
        <time>2019-04-27T13:56:49Z</time>
      </trkpt>
      <trkpt lat="43.74846" lon="7.14222">
        <ele>461</ele>
        <time>2019-04-27T13:56:55Z</time>
      </trkpt>
      <trkpt lat="43.74841" lon="7.14221">
        <ele>461</ele>
        <time>2019-04-27T13:57:01Z</time>
      </trkpt>
      <trkpt lat="43.74837" lon="7.14225">
        <ele>458</ele>
        <time>2019-04-27T13:57:07Z</time>
      </trkpt>
      <trkpt lat="43.74839" lon="7.14232">
        <ele>457</ele>
        <time>2019-04-27T13:57:13Z</time>
      </trkpt>
      <trkpt lat="43.74838" lon="7.14239">
        <ele>457</ele>
        <time>2019-04-27T13:57:19Z</time>
      </trkpt>
      <trkpt lat="43.74838" lon="7.14248">
        <ele>455</ele>
        <time>2019-04-27T13:57:25Z</time>
      </trkpt>
      <trkpt lat="43.74839" lon="7.14255">
        <ele>453</ele>
        <time>2019-04-27T13:57:31Z</time>
      </trkpt>
      <trkpt lat="43.74836" lon="7.14261">
        <ele>452</ele>
        <time>2019-04-27T13:57:37Z</time>
      </trkpt>
      <trkpt lat="43.74834" lon="7.14268">
        <ele>449</ele>
        <time>2019-04-27T13:57:43Z</time>
      </trkpt>
      <trkpt lat="43.74832" lon="7.14275">
        <ele>448</ele>
        <time>2019-04-27T13:57:49Z</time>
      </trkpt>
      <trkpt lat="43.7483" lon="7.1428">
        <ele>448</ele>
        <time>2019-04-27T13:57:55Z</time>
      </trkpt>
      <trkpt lat="43.74829" lon="7.14285">
        <ele>446</ele>
        <time>2019-04-27T13:58:01Z</time>
      </trkpt>
      <trkpt lat="43.74828" lon="7.1429">
        <ele>446</ele>
        <time>2019-04-27T13:58:08Z</time>
      </trkpt>
      <trkpt lat="43.74829" lon="7.14293">
        <ele>444</ele>
        <time>2019-04-27T13:58:14Z</time>
      </trkpt>
      <trkpt lat="43.74831" lon="7.14293">
        <ele>444</ele>
        <time>2019-04-27T13:58:20Z</time>
      </trkpt>
      <trkpt lat="43.7483" lon="7.14292">
        <ele>444</ele>
        <time>2019-04-27T13:58:26Z</time>
      </trkpt>
      <trkpt lat="43.74828" lon="7.14293">
        <ele>444</ele>
        <time>2019-04-27T13:58:32Z</time>
      </trkpt>
      <trkpt lat="43.74828" lon="7.14292">
        <ele>444</ele>
        <time>2019-04-27T13:58:38Z</time>
      </trkpt>
      <trkpt lat="43.74826" lon="7.14296">
        <ele>444</ele>
        <time>2019-04-27T13:58:44Z</time>
      </trkpt>
      <trkpt lat="43.74823" lon="7.14302">
        <ele>442</ele>
        <time>2019-04-27T13:58:50Z</time>
      </trkpt>
      <trkpt lat="43.74824" lon="7.14309">
        <ele>442</ele>
        <time>2019-04-27T13:58:56Z</time>
      </trkpt>
      <trkpt lat="43.74827" lon="7.14313">
        <ele>440</ele>
        <time>2019-04-27T13:59:02Z</time>
      </trkpt>
      <trkpt lat="43.74832" lon="7.14318">
        <ele>438</ele>
        <time>2019-04-27T13:59:08Z</time>
      </trkpt>
      <trkpt lat="43.74835" lon="7.14326">
        <ele>438</ele>
        <time>2019-04-27T13:59:14Z</time>
      </trkpt>
      <trkpt lat="43.74835" lon="7.14332">
        <ele>437</ele>
        <time>2019-04-27T13:59:20Z</time>
      </trkpt>
      <trkpt lat="43.74835" lon="7.14334">
        <ele>437</ele>
        <time>2019-04-27T13:59:26Z</time>
      </trkpt>
      <trkpt lat="43.74837" lon="7.14337">
        <ele>435</ele>
        <time>2019-04-27T13:59:32Z</time>
      </trkpt>
      <trkpt lat="43.74836" lon="7.14337">
        <ele>435</ele>
        <time>2019-04-27T13:59:38Z</time>
      </trkpt>
      <trkpt lat="43.74835" lon="7.14337">
        <ele>435</ele>
        <time>2019-04-27T13:59:44Z</time>
      </trkpt>
      <trkpt lat="43.74833" lon="7.14339">
        <ele>434</ele>
        <time>2019-04-27T13:59:50Z</time>
      </trkpt>
      <trkpt lat="43.74834" lon="7.14346">
        <ele>432</ele>
        <time>2019-04-27T13:59:56Z</time>
      </trkpt>
      <trkpt lat="43.7484" lon="7.14351">
        <ele>433</ele>
        <time>2019-04-27T14:00:02Z</time>
      </trkpt>
      <trkpt lat="43.74844" lon="7.14355">
        <ele>431</ele>
        <time>2019-04-27T14:00:08Z</time>
      </trkpt>
      <trkpt lat="43.74848" lon="7.14356">
        <ele>431</ele>
        <time>2019-04-27T14:00:14Z</time>
      </trkpt>
      <trkpt lat="43.74853" lon="7.14359">
        <ele>431</ele>
        <time>2019-04-27T14:00:20Z</time>
      </trkpt>
      <trkpt lat="43.74854" lon="7.14361">
        <ele>429</ele>
        <time>2019-04-27T14:00:26Z</time>
      </trkpt>
      <trkpt lat="43.74854" lon="7.14367">
        <ele>429</ele>
        <time>2019-04-27T14:00:32Z</time>
      </trkpt>
      <trkpt lat="43.74857" lon="7.14371">
        <ele>427</ele>
        <time>2019-04-27T14:00:38Z</time>
      </trkpt>
      <trkpt lat="43.74861" lon="7.14376">
        <ele>428</ele>
        <time>2019-04-27T14:00:44Z</time>
      </trkpt>
      <trkpt lat="43.74863" lon="7.14375">
        <ele>428</ele>
        <time>2019-04-27T14:00:50Z</time>
      </trkpt>
      <trkpt lat="43.74864" lon="7.14373">
        <ele>428</ele>
        <time>2019-04-27T14:00:56Z</time>
      </trkpt>
      <trkpt lat="43.74864" lon="7.14373">
        <ele>428</ele>
        <time>2019-04-27T14:01:02Z</time>
      </trkpt>
      <trkpt lat="43.74864" lon="7.14374">
        <ele>428</ele>
        <time>2019-04-27T14:01:08Z</time>
      </trkpt>
      <trkpt lat="43.74866" lon="7.14373">
        <ele>428</ele>
        <time>2019-04-27T14:01:14Z</time>
      </trkpt>
      <trkpt lat="43.74868" lon="7.14372">
        <ele>428</ele>
        <time>2019-04-27T14:01:20Z</time>
      </trkpt>
      <trkpt lat="43.74869" lon="7.14371">
        <ele>428</ele>
        <time>2019-04-27T14:01:26Z</time>
      </trkpt>
      <trkpt lat="43.74869" lon="7.14371">
        <ele>428</ele>
        <time>2019-04-27T14:01:32Z</time>
      </trkpt>
      <trkpt lat="43.7487" lon="7.14372">
        <ele>428</ele>
        <time>2019-04-27T14:01:38Z</time>
      </trkpt>
      <trkpt lat="43.74871" lon="7.14373">
        <ele>428</ele>
        <time>2019-04-27T14:01:44Z</time>
      </trkpt>
      <trkpt lat="43.74872" lon="7.14376">
        <ele>429</ele>
        <time>2019-04-27T14:01:50Z</time>
      </trkpt>
      <trkpt lat="43.74871" lon="7.14376">
        <ele>428</ele>
        <time>2019-04-27T14:01:56Z</time>
      </trkpt>
      <trkpt lat="43.7487" lon="7.14374">
        <ele>428</ele>
        <time>2019-04-27T14:02:02Z</time>
      </trkpt>
      <trkpt lat="43.7487" lon="7.14374">
        <ele>428</ele>
        <time>2019-04-27T14:02:08Z</time>
      </trkpt>
      <trkpt lat="43.74868" lon="7.14373">
        <ele>428</ele>
        <time>2019-04-27T14:02:14Z</time>
      </trkpt>
      <trkpt lat="43.74868" lon="7.14372">
        <ele>428</ele>
        <time>2019-04-27T14:02:20Z</time>
      </trkpt>
      <trkpt lat="43.74869" lon="7.14371">
        <ele>428</ele>
        <time>2019-04-27T14:02:26Z</time>
      </trkpt>
      <trkpt lat="43.74868" lon="7.14371">
        <ele>428</ele>
        <time>2019-04-27T14:02:32Z</time>
      </trkpt>
      <trkpt lat="43.74867" lon="7.14372">
        <ele>428</ele>
        <time>2019-04-27T14:02:38Z</time>
      </trkpt>
      <trkpt lat="43.74868" lon="7.14372">
        <ele>428</ele>
        <time>2019-04-27T14:02:44Z</time>
      </trkpt>
      <trkpt lat="43.74868" lon="7.14373">
        <ele>428</ele>
        <time>2019-04-27T14:02:50Z</time>
      </trkpt>
      <trkpt lat="43.74868" lon="7.14374">
        <ele>428</ele>
        <time>2019-04-27T14:02:56Z</time>
      </trkpt>
    </trkseg>
  </trk>
</gpx>